[[{"header":{"parameterUnit":"m.s-1","parameterCategory":1,"la1":30.6,"la2":29.2853,"lo1":-89.7004,"lo2":-87.6739,"dx":0.0162,"dy":0.0183,"nx":112,"ny":82,"refTime":"2022-12-21T06:00:00:Z","depth":0,"parameterNumber":2,"parameterNumberName":"U-component_of_WINDS"},"data":[0.0,0.0,0.0,0.0,0.0,0.0,0.0,0.0,0.0,0.0,0.0,0.0,0.0,0.0,0.0,0.0,0.0,0.0,0.0,0.0,0.0,0.0,0.0,0.0,0.0,0.0,0.0,0.0,0.0,0.0,0.0,0.0,0.0,0.0,0.0,0.0,0.0,0.0,0.0,0.0,0.0,0.0,0.0,0.0,0.0,0.0,0.0,0.0,0.0,0.0,0.0,0.0,0.0,0.0,0.0,0.0,0.0,0.0,0.0,0.0,0.0,0.0,0.0,0.0,0.0,0.0,0.0,0.0,0.0,0.0,0.0,0.0,0.0,0.0,0.0,0.0,0.0,0.0,0.0,0.0,0.0,0.0,0.0,0.0,0.0,0.0,0.0,0.0,0.0,0.0,6.9849,7.1718,7.5526,7.7512,7.6429,7.4669,7.1548,6.6693,0.0,0.0,0.0,0.0,0.0,0.0,0.0,0.0,0.0,0.0,0.0,0.0,0.0,0.0,0.0,0.0,0.0,0.0,0.0,0.0,0.0,0.0,0.0,0.0,0.0,0.0,0.0,0.0,0.0,0.0,0.0,0.0,0.0,0.0,0.0,0.0,0.0,0.0,0.0,0.0,0.0,0.0,0.0,0.0,0.0,0.0,0.0,0.0,0.0,0.0,0.0,0.0,0.0,0.0,0.0,0.0,0.0,0.0,0.0,0.0,0.0,0.0,0.0,0.0,0.0,0.0,0.0,0.0,0.0,0.0,0.0,0.0,0.0,0.0,0.0,0.0,0.0,0.0,0.0,0.0,0.0,0.0,0.0,0.0,0.0,0.0,0.0,0.0,0.0,0.0,0.0,0.0,0.0,0.0,0.0,0.0,0.0,0.0,0.0,0.0,0.0,0.0,0.0,0.0,7.2434,7.7019,7.8121,7.8357,7.7833,7.5565,7.191,6.6555,0.0,0.0,0.0,0.0,0.0,0.0,0.0,0.0,0.0,0.0,0.0,0.0,0.0,0.0,0.0,0.0,0.0,0.0,0.0,0.0,0.0,0.0,0.0,0.0,0.0,0.0,0.0,0.0,0.0,0.0,0.0,0.0,0.0,0.0,0.0,0.0,0.0,0.0,0.0,0.0,0.0,0.0,0.0,0.0,0.0,0.0,0.0,0.0,0.0,0.0,0.0,0.0,0.0,0.0,0.0,0.0,0.0,0.0,0.0,0.0,0.0,0.0,0.0,0.0,0.0,0.0,0.0,0.0,0.0,0.0,0.0,0.0,0.0,0.0,0.0,0.0,0.0,0.0,0.0,0.0,0.0,0.0,0.0,0.0,0.0,0.0,0.0,0.0,0.0,0.0,0.0,0.0,0.0,0.0,0.0,0.0,0.0,0.0,0.0,0.0,0.0,0.0,0.0,7.1518,7.5011,7.9329,8.0078,7.9994,7.9256,7.6966,7.3377,6.8274,6.3106,0.0,0.0,0.0,0.0,0.0,0.0,0.0,0.0,0.0,0.0,0.0,0.0,0.0,0.0,0.0,0.0,0.0,0.0,0.0,0.0,0.0,0.0,0.0,0.0,0.0,0.0,0.0,0.0,0.0,0.0,0.0,0.0,0.0,0.0,0.0,0.0,0.0,0.0,0.0,0.0,0.0,0.0,0.0,0.0,0.0,0.0,0.0,0.0,0.0,0.0,0.0,0.0,0.0,0.0,0.0,0.0,0.0,0.0,0.0,0.0,0.0,0.0,0.0,0.0,0.0,0.0,0.0,0.0,0.0,0.0,0.0,0.0,0.0,0.0,0.0,0.0,0.0,0.0,0.0,0.0,0.0,0.0,0.0,0.0,0.0,0.0,0.0,0.0,0.0,0.0,0.0,0.0,0.0,0.0,0.0,0.0,0.0,0.0,0.0,0.0,0.0,0.0,7.447,7.7172,8.0541,8.1347,8.1314,8.0453,7.7717,7.4078,6.9403,6.3863,0.0,0.0,0.0,0.0,0.0,0.0,0.0,0.0,0.0,0.0,0.0,0.0,0.0,0.0,0.0,0.0,0.0,0.0,0.0,0.0,0.0,0.0,0.0,0.0,0.0,0.0,0.0,0.0,0.0,0.0,0.0,0.0,0.0,0.0,0.0,0.0,0.0,0.0,0.0,0.0,0.0,0.0,0.0,0.0,0.0,0.0,0.0,0.0,0.0,0.0,0.0,0.0,0.0,0.0,0.0,0.0,0.0,0.0,0.0,0.0,0.0,0.0,0.0,0.0,0.0,0.0,0.0,0.0,0.0,0.0,0.0,0.0,0.0,0.0,0.0,0.0,0.0,0.0,0.0,0.0,0.0,0.0,0.0,0.0,0.0,0.0,0.0,0.0,0.0,0.0,0.0,0.0,0.0,0.0,0.0,0.0,0.0,0.0,0.0,0.0,0.0,0.0,7.5388,7.8627,8.1246,8.1738,8.1712,8.126,7.7057,7.2695,6.8533,6.2556,0.0,0.0,0.0,0.0,0.0,0.0,0.0,0.0,0.0,0.0,0.0,0.0,0.0,0.0,0.0,0.0,0.0,0.0,0.0,0.0,0.0,0.0,0.0,0.0,0.0,0.0,0.0,0.0,0.0,0.0,0.0,0.0,0.0,0.0,0.0,0.0,0.0,0.0,0.0,0.0,0.0,0.0,0.0,0.0,0.0,0.0,0.0,0.0,0.0,0.0,0.0,0.0,0.0,0.0,0.0,0.0,0.0,0.0,0.0,0.0,0.0,0.0,0.0,0.0,0.0,0.0,0.0,0.0,0.0,0.0,0.0,0.0,0.0,0.0,0.0,0.0,0.0,0.0,0.0,0.0,0.0,0.0,0.0,0.0,0.0,0.0,0.0,0.0,0.0,0.0,0.0,0.0,0.0,0.0,0.0,0.0,0.0,0.0,0.0,0.0,0.0,0.0,7.7337,8.1059,8.35,8.4004,8.3825,8.3048,8.0197,7.5635,6.9118,0.0,0.0,0.0,0.0,0.0,0.0,0.0,0.0,0.0,0.0,0.0,0.0,0.0,0.0,0.0,0.0,0.0,0.0,0.0,0.0,0.0,0.0,0.0,0.0,0.0,0.0,0.0,0.0,0.0,0.0,0.0,0.0,0.0,0.0,0.0,0.0,0.0,0.0,0.0,0.0,0.0,0.0,0.0,0.0,0.0,0.0,0.0,0.0,0.0,0.0,0.0,0.0,0.0,0.0,0.0,0.0,0.0,0.0,0.0,0.0,0.0,0.0,0.0,0.0,0.0,0.0,0.0,0.0,0.0,0.0,0.0,0.0,0.0,0.0,0.0,0.0,0.0,0.0,0.0,0.0,0.0,0.0,0.0,0.0,0.0,0.0,0.0,0.0,0.0,0.0,0.0,0.0,0.0,0.0,0.0,0.0,0.0,0.0,0.0,0.0,0.0,0.0,7.4101,7.8974,8.3072,8.5141,8.558,8.5334,8.4325,8.1569,7.6924,6.9904,0.0,0.0,0.0,0.0,0.0,0.0,0.0,0.0,0.0,0.0,0.0,0.0,0.0,0.0,0.0,0.0,0.0,0.0,0.0,0.0,0.0,0.0,0.0,0.0,0.0,0.0,0.0,0.0,0.0,0.0,0.0,0.0,0.0,0.0,0.0,0.0,0.0,0.0,0.0,0.0,0.0,0.0,0.0,0.0,0.0,0.0,0.0,0.0,0.0,0.0,0.0,0.0,0.0,0.0,0.0,0.0,0.0,0.0,0.0,0.0,0.0,0.0,0.0,0.0,0.0,0.0,0.0,0.0,0.0,0.0,0.0,0.0,0.0,0.0,0.0,0.0,0.0,0.0,0.0,0.0,0.0,0.0,0.0,0.0,0.0,0.0,0.0,0.0,0.0,0.0,0.0,0.0,0.0,0.0,0.0,0.0,0.0,0.0,0.0,0.0,0.0,0.0,7.4597,8.0131,8.4458,8.5792,8.61,8.5826,8.4793,8.0513,7.5779,0.0,0.0,0.0,0.0,0.0,0.0,0.0,0.0,0.0,0.0,0.0,0.0,0.0,0.0,0.0,0.0,0.0,0.0,0.0,0.0,0.0,0.0,0.0,0.0,0.0,0.0,0.0,0.0,0.0,0.0,0.0,0.0,0.0,0.0,0.0,0.0,0.0,0.0,0.0,0.0,0.0,0.0,0.0,0.0,0.0,0.0,0.0,0.0,0.0,0.0,0.0,0.0,0.0,0.0,0.0,0.0,0.0,0.0,0.0,0.0,0.0,0.0,0.0,0.0,0.0,0.0,0.0,0.0,0.0,0.0,0.0,0.0,0.0,0.0,0.0,0.0,0.0,0.0,0.0,0.0,0.0,0.0,0.0,0.0,0.0,0.0,0.0,0.0,0.0,0.0,0.0,0.0,0.0,0.0,0.0,0.0,0.0,0.0,0.0,0.0,0.0,0.0,0.0,7.7014,8.2245,8.6154,8.7128,8.7621,8.7398,8.6203,8.3323,7.9448,7.4348,0.0,0.0,0.0,0.0,0.0,0.0,0.0,0.0,0.0,0.0,0.0,0.0,0.0,0.0,0.0,0.0,0.0,0.0,0.0,0.0,0.0,0.0,0.0,0.0,0.0,0.0,0.0,0.0,0.0,0.0,0.0,0.0,0.0,0.0,0.0,0.0,0.0,0.0,0.0,0.0,0.0,0.0,0.0,0.0,0.0,0.0,0.0,0.0,0.0,0.0,0.0,0.0,0.0,0.0,0.0,0.0,0.0,0.0,0.0,0.0,0.0,0.0,0.0,0.0,0.0,0.0,0.0,0.0,0.0,0.0,0.0,0.0,0.0,0.0,0.0,0.0,0.0,0.0,0.0,0.0,0.0,0.0,0.0,0.0,0.0,0.0,0.0,0.0,0.0,0.0,0.0,0.0,0.0,0.0,0.0,0.0,0.0,0.0,0.0,0.0,0.0,0.0,7.7917,8.341,8.7398,8.8064,8.8412,8.8136,8.6957,8.4717,8.1247,7.6309,0.0,0.0,0.0,0.0,0.0,0.0,0.0,0.0,0.0,0.0,0.0,0.0,0.0,0.0,0.0,0.0,0.0,0.0,0.0,0.0,0.0,0.0,0.0,0.0,0.0,0.0,0.0,0.0,0.0,0.0,0.0,0.0,0.0,0.0,0.0,0.0,0.0,0.0,0.0,0.0,0.0,0.0,0.0,0.0,0.0,0.0,0.0,0.0,0.0,0.0,0.0,0.0,0.0,0.0,0.0,0.0,0.0,0.0,0.0,0.0,0.0,0.0,0.0,0.0,0.0,0.0,0.0,0.0,0.0,0.0,0.0,0.0,0.0,0.0,0.0,0.0,0.0,0.0,0.0,0.0,0.0,0.0,0.0,0.0,0.0,0.0,0.0,0.0,0.0,0.0,0.0,0.0,0.0,0.0,0.0,0.0,0.0,0.0,0.0,0.0,0.0,0.0,7.7963,8.3913,8.8122,8.8676,8.865,8.8192,8.7195,8.5004,8.1781,7.7365,0.0,0.0,0.0,0.0,0.0,0.0,0.0,0.0,0.0,0.0,0.0,0.0,0.0,0.0,0.0,0.0,0.0,0.0,0.0,0.0,0.0,0.0,0.0,0.0,0.0,0.0,0.0,0.0,0.0,0.0,0.0,0.0,0.0,0.0,0.0,0.0,0.0,0.0,0.0,0.0,0.0,0.0,0.0,0.0,0.0,0.0,0.0,0.0,0.0,0.0,0.0,0.0,0.0,0.0,0.0,0.0,0.0,0.0,0.0,0.0,5.8885,5.6769,0.0,0.0,0.0,0.0,0.0,0.0,0.0,0.0,0.0,0.0,0.0,0.0,0.0,0.0,0.0,0.0,0.0,0.0,0.0,0.0,0.0,0.0,0.0,0.0,0.0,0.0,0.0,0.0,0.0,0.0,0.0,0.0,0.0,0.0,0.0,0.0,0.0,0.0,0.0,0.0,8.0013,8.4751,8.8324,8.964,8.9009,8.82,8.7389,8.5418,8.3043,8.0269,7.6095,0.0,0.0,0.0,0.0,0.0,0.0,0.0,0.0,0.0,0.0,0.0,0.0,0.0,0.0,0.0,0.0,0.0,0.0,0.0,0.0,0.0,0.0,0.0,0.0,0.0,0.0,0.0,0.0,0.0,0.0,0.0,0.0,0.0,0.0,0.0,0.0,0.0,0.0,0.0,0.0,0.0,0.0,0.0,0.0,0.0,0.0,0.0,0.0,0.0,0.0,0.0,0.0,0.0,0.0,0.0,0.0,0.0,0.0,0.0,6.404,6.1631,0.0,0.0,0.0,0.0,0.0,0.0,0.0,0.0,0.0,0.0,0.0,0.0,0.0,0.0,0.0,0.0,0.0,0.0,0.0,0.0,0.0,0.0,0.0,0.0,0.0,0.0,0.0,0.0,0.0,0.0,0.0,0.0,0.0,0.0,0.0,0.0,0.0,0.0,0.0,0.0,8.0368,8.5636,8.941,9.0221,8.9689,8.9057,8.8536,8.6545,8.4476,8.2575,7.8955,0.0,0.0,0.0,0.0,0.0,0.0,0.0,0.0,0.0,0.0,0.0,0.0,0.0,0.0,0.0,0.0,0.0,0.0,0.0,0.0,0.0,0.0,0.0,0.0,0.0,0.0,0.0,0.0,0.0,0.0,0.0,0.0,0.0,0.0,0.0,0.0,0.0,0.0,0.0,0.0,0.0,0.0,0.0,0.0,0.0,0.0,0.0,0.0,0.0,0.0,0.0,0.0,0.0,7.1473,7.2419,7.3565,7.3529,7.3529,7.336,6.9406,6.7416,6.6817,6.4429,0.0,0.0,0.0,0.0,0.0,0.0,0.0,0.0,0.0,0.0,0.0,0.0,0.0,0.0,0.0,0.0,0.0,0.0,0.0,0.0,0.0,0.0,6.8626,6.9647,7.1694,7.2287,6.8068,0.0,0.0,0.0,0.0,0.0,0.0,0.0,0.0,0.0,0.0,0.0,8.0675,8.6545,9.0667,9.091,9.0459,9.0076,8.9894,8.7773,8.5796,8.4316,8.1815,7.8747,0.0,0.0,0.0,0.0,0.0,0.0,0.0,0.0,0.0,0.0,0.0,0.0,0.0,0.0,0.0,0.0,0.0,0.0,0.0,0.0,0.0,0.0,0.0,0.0,0.0,0.0,0.0,0.0,0.0,0.0,0.0,0.0,5.7765,5.858,0.0,0.0,0.0,0.0,0.0,0.0,0.0,0.0,0.0,0.0,0.0,0.0,0.0,6.9953,7.1269,7.2541,7.386,7.5182,7.5288,7.5777,7.6593,7.6447,7.6457,7.6548,7.5054,0.0,7.0717,6.7912,0.0,0.0,0.0,0.0,0.0,0.0,0.0,0.0,0.0,0.0,0.0,0.0,0.0,0.0,0.0,0.0,0.0,0.0,0.0,0.0,0.0,0.0,7.3135,7.4923,7.5654,7.5743,7.5056,7.2253,6.9748,6.9284,6.9686,6.9749,0.0,0.0,0.0,0.0,0.0,0.0,8.2991,8.7681,9.1263,9.2609,9.1314,9.0429,9.0648,8.8351,8.6365,8.5109,8.366,8.1806,7.9464,7.7336,0.0,0.0,0.0,0.0,0.0,0.0,0.0,0.0,0.0,0.0,0.0,0.0,0.0,0.0,0.0,0.0,0.0,0.0,0.0,0.0,0.0,0.0,0.0,0.0,0.0,0.0,0.0,0.0,0.0,5.7986,5.9716,6.1498,6.1272,6.0852,0.0,0.0,0.0,0.0,0.0,0.0,0.0,0.0,0.0,7.105,7.2789,7.4365,7.58,7.6824,7.7742,7.8642,7.8642,7.9009,7.9671,7.9711,7.9755,7.9799,7.8909,7.7618,7.5843,7.1871,7.046,7.0414,0.0,0.0,0.0,0.0,6.4043,6.4888,6.5705,6.6958,6.8221,6.8392,0.0,0.0,0.0,0.0,0.0,0.0,0.0,7.0302,7.3069,7.5089,7.675,7.8055,7.859,7.8681,7.83,7.695,7.5205,7.3075,7.3493,7.3617,7.1824,7.36,0.0,0.0,0.0,8.3785,8.5531,8.9463,9.2418,9.3235,9.2123,9.1348,9.1454,8.9673,8.7925,8.6523,8.5116,8.336,8.1182,7.9021,7.6156,0.0,0.0,0.0,0.0,0.0,0.0,0.0,0.0,0.0,0.0,0.0,0.0,0.0,0.0,0.0,0.0,0.0,0.0,0.0,0.0,0.0,0.0,0.0,0.0,0.0,0.0,0.0,0.0,6.0499,6.218,6.4308,6.4035,6.3671,0.0,0.0,0.0,0.0,0.0,0.0,6.8855,7.1055,7.3024,7.4565,7.6455,7.806,7.9413,8.0436,8.1109,8.1428,8.1428,8.1655,8.21,8.219,8.2274,8.229,8.1474,8.0866,8.0065,7.5558,7.3651,7.3315,7.1103,6.9826,6.9193,6.8902,6.9481,7.0515,7.1107,7.2523,7.3996,7.3526,7.3331,7.2845,7.0361,0.0,0.0,0.0,0.0,7.4633,7.6787,7.8618,8.0078,8.082,8.1296,8.1439,8.081,8.0868,7.9996,7.6631,7.7075,7.7356,7.5295,7.7362,0.0,7.8242,8.2921,8.6944,8.8007,9.123,9.3522,9.383,9.3114,9.2449,9.2094,9.0768,8.9359,8.7972,8.652,8.4879,8.3114,8.1078,7.8552,7.5492,0.0,0.0,0.0,0.0,0.0,0.0,0.0,0.0,0.0,0.0,0.0,0.0,0.0,0.0,0.0,0.0,0.0,0.0,0.0,0.0,0.0,0.0,0.0,0.0,0.0,0.0,0.0,0.0,0.0,6.628,6.6849,0.0,0.0,0.0,0.0,6.7176,6.9397,7.1601,7.3556,7.4339,7.5785,7.8067,7.9483,8.0566,8.1355,8.2913,8.362,8.344,8.3394,8.3429,8.3489,8.3246,8.3268,8.3475,8.2675,8.2404,8.2261,7.8508,7.6421,7.5517,7.5042,7.4723,7.454,7.4724,7.4797,7.4895,7.4931,7.5155,7.5514,7.6249,7.6051,7.5466,7.5173,7.3688,0.0,0.0,7.7155,7.7487,8.1174,8.2654,8.332,8.3843,8.3993,8.3956,8.3724,8.3534,8.2555,7.957,8.0073,8.0471,7.8819,0.0,8.2844,8.2047,8.5384,8.8606,9.03,9.2709,9.4386,9.4797,9.442,9.3629,9.2308,9.1319,9.0315,8.926,8.7829,8.6854,8.6481,8.4527,8.2546,8.0662,7.7415,0.0,0.0,0.0,0.0,0.0,0.0,0.0,0.0,0.0,0.0,0.0,0.0,0.0,0.0,0.0,0.0,0.0,0.0,0.0,0.0,0.0,0.0,0.0,0.0,0.0,0.0,0.0,0.0,6.8426,6.8952,0.0,6.8799,6.9479,7.0138,7.064,7.3208,7.5137,7.5991,7.8037,7.9772,8.1129,8.2605,8.373,8.4509,8.51,8.5285,8.5064,8.5064,8.4987,8.4842,8.4909,8.4987,8.5064,8.4782,8.4414,8.389,8.2567,8.0803,7.8873,7.8274,7.8284,7.8671,7.893,7.9614,8.0399,7.9899,7.9837,7.9882,7.9194,7.8691,7.843,7.8486,7.8603,7.9006,8.0505,8.1718,8.3021,8.4855,8.5404,8.5653,8.6361,8.5889,8.5285,8.5197,8.4998,8.4457,8.3279,8.3026,8.2655,8.157,8.368,8.5573,8.5771,8.8543,9.1203,9.2826,9.4192,9.4992,9.4892,9.4344,9.3683,9.2976,9.1871,9.0275,8.7971,8.7962,8.6911,8.4359,8.4525,8.3223,8.0087,7.7912,7.4767,0.0,0.0,0.0,0.0,0.0,0.0,0.0,0.0,0.0,0.0,0.0,0.0,0.0,0.0,0.0,0.0,0.0,0.0,0.0,0.0,0.0,0.0,0.0,0.0,0.0,6.6821,6.9124,7.072,7.1668,7.2154,7.2166,7.2976,7.3857,7.4692,7.7049,7.8517,7.8646,8.0899,8.2457,8.2998,8.4558,8.5717,8.6364,8.6767,8.6842,8.6573,8.6573,8.6493,8.631,8.6505,8.6714,8.6925,8.6758,8.651,8.6228,8.5677,8.4638,8.3179,8.1216,8.06,8.0782,8.0568,8.1139,8.2024,8.1955,8.2144,8.2219,8.1201,8.0792,8.074,8.1162,8.19,8.2749,8.343,8.5024,8.6751,8.749,8.796,8.8308,8.8728,8.8109,8.7298,8.669,8.6765,8.6721,8.5973,8.5263,8.4647,8.4249,8.6061,8.783,8.8679,9.0699,9.2549,9.3698,9.4399,9.4616,9.4303,9.393,9.3441,9.2759,9.1629,8.9843,8.7212,8.7418,8.6228,8.304,8.4036,8.3024,7.9557,7.765,7.4466,6.9906,0.0,0.0,0.0,0.0,0.0,0.0,0.0,0.0,0.0,0.0,0.0,0.0,0.0,0.0,0.0,0.0,0.0,0.0,0.0,0.0,0.0,0.0,0.0,6.664,6.9845,7.2445,7.3178,7.4946,7.611,7.6091,7.6663,7.7634,7.916,8.0727,8.1586,8.1586,8.294,8.3714,8.3725,8.5391,8.6457,8.6766,8.7963,8.8352,8.7972,8.7948,8.7948,8.7972,8.7948,8.8358,8.9013,8.8474,8.8672,8.9213,8.7709,8.7728,8.8233,8.4026,8.1929,8.1142,8.0033,7.9644,7.9868,8.1186,8.1994,8.2397,8.2362,8.2362,8.2504,8.33,8.356,8.3845,8.5441,8.694,8.826,8.906,9.0239,9.113,9.0925,9.0658,9.0012,8.8311,8.8915,8.9232,8.7406,8.6704,8.6513,8.6907,8.8223,8.9594,9.065,9.1715,0.0,9.2973,9.3311,9.3385,9.3025,9.3278,9.2934,9.1655,9.0533,8.9117,8.7294,8.6339,8.4923,8.2945,8.338,8.2325,7.9534,7.6976,7.3665,6.9614,0.0,0.0,0.0,0.0,0.0,0.0,0.0,0.0,0.0,0.0,0.0,0.0,0.0,0.0,0.0,0.0,0.0,0.0,0.0,0.0,0.0,6.7433,7.0121,7.1251,7.3087,7.4994,7.6752,7.7918,7.8489,7.8135,7.9245,8.0202,8.0615,8.2475,8.3662,8.3815,8.5107,8.5953,8.6133,8.7511,8.8392,8.865,8.9366,8.9694,8.9575,8.9167,8.919,8.954,8.9167,8.9331,8.9844,8.9705,8.9764,8.9928,8.9518,8.9706,8.9969,8.7092,8.6641,8.7571,8.7457,8.7766,8.8113,8.7381,8.7211,8.7169,8.5991,8.5609,8.5752,8.6547,8.6545,8.6378,8.7232,8.7474,8.7665,8.8257,8.8704,8.9127,8.9611,8.968,8.9462,8.8773,8.8904,8.8953,8.835,8.8135,8.8096,8.8191,8.9308,9.0387,9.1001,9.186,9.2633,9.3269,9.365,9.3636,9.304,9.2805,9.2577,9.2306,9.0731,8.883,8.6679,8.6522,8.5317,8.2582,8.3665,8.27,7.9216,7.6121,7.3025,0.0,0.0,0.0,0.0,0.0,0.0,0.0,0.0,0.0,0.0,0.0,0.0,0.0,0.0,0.0,0.0,0.0,0.0,0.0,0.0,0.0,0.0,7.0494,7.349,7.5629,7.6303,7.721,7.9011,7.9843,8.0434,8.082,8.1584,8.2446,8.342,8.468,8.5582,8.6035,8.707,8.7643,8.7579,8.9025,8.9659,8.9389,9.0117,9.0398,9.0195,8.9786,8.9715,9.0027,8.9537,8.9782,9.0494,9.0494,9.0765,9.1155,9.0912,9.1234,9.1622,0.0,0.0,0.0,0.0,8.9157,8.97,8.9128,8.91,8.9095,8.7821,8.7643,8.7989,8.8464,8.8546,8.8596,8.9116,8.9214,8.9148,8.9213,8.9624,9.0132,9.0465,9.0461,9.0234,8.9756,8.9709,8.9669,8.9286,8.9674,0.0,8.9901,9.0219,9.0669,9.1286,9.2031,9.2549,9.2698,9.3133,9.3249,9.2687,9.2401,9.2349,9.2593,9.0516,0.0,0.0,0.0,8.5094,8.2692,8.2046,0.0,0.0,0.0,7.4366,7.2976,7.3007,0.0,0.0,6.8975,6.8696,0.0,0.0,0.0,0.0,0.0,0.0,0.0,0.0,0.0,0.0,0.0,0.0,0.0,0.0,0.0,0.0,7.3697,7.6661,7.9511,7.938,7.9442,8.0631,8.1327,8.2293,8.3692,8.3752,8.4578,8.6684,8.7,8.7422,8.8112,8.8768,0.0,0.0,0.0,9.0669,8.9776,9.0799,9.1128,9.0722,9.0374,9.0264,9.0357,8.9971,9.0309,9.1186,9.1186,9.1742,9.2607,9.2137,9.2565,9.3191,9.0481,8.925,8.8831,8.7566,8.7407,8.7977,8.8616,0.0,0.0,8.8717,8.892,8.9551,8.9623,8.9872,9.0218,9.0865,9.1211,9.1302,9.0793,9.1546,9.2387,9.214,9.2022,9.1714,9.0993,9.0946,9.0905,9.0221,9.1087,9.1894,9.1683,9.1055,9.0874,9.159,9.234,9.2572,9.181,9.2338,9.2563,9.2097,9.201,0.0,9.2474,9.0105,8.8324,8.7672,8.6237,8.474,8.3315,8.0252,7.8884,7.9478,7.7997,7.7334,7.7515,7.8009,7.8066,7.7589,7.3295,7.2659,0.0,0.0,0.0,0.0,0.0,0.0,0.0,0.0,0.0,0.0,0.0,0.0,0.0,0.0,0.0,7.2656,7.5742,7.8761,8.1486,8.2291,8.2704,8.2943,8.417,8.5022,8.5124,8.6262,8.7199,8.762,8.8838,8.9598,8.9739,8.9879,8.9987,9.0059,9.1443,9.2182,9.215,9.3414,9.3994,9.3894,9.3188,0.0,9.3819,9.3078,9.2902,9.3093,9.3093,9.3188,9.3403,9.351,9.4189,9.4962,9.3332,9.2666,9.2545,9.2065,9.1948,9.2008,9.1728,9.1702,9.1668,9.0921,9.0779,9.1028,9.1633,9.0972,0.0,9.1444,9.0728,8.9624,8.9715,9.0391,9.099,9.0937,9.1561,9.2041,9.1648,9.1624,9.1566,9.126,9.1871,9.2459,9.2456,9.2565,9.2611,9.2502,9.3102,9.3318,9.2572,9.2841,9.272,9.1802,9.1405,9.1382,9.1763,9.0202,8.9154,8.9021,8.7124,8.5643,8.475,8.4062,8.3478,8.3012,8.2705,8.17,8.0018,8.0707,8.0496,7.9449,7.7721,7.7244,0.0,0.0,0.0,0.0,0.0,0.0,0.0,0.0,0.0,0.0,0.0,6.4905,6.7023,0.0,7.2717,7.5428,7.8225,8.078,8.2721,8.4249,8.4992,8.4616,8.5238,8.5978,8.6637,8.7445,8.81,8.8604,8.9599,9.0243,9.0339,9.0618,9.0877,9.1081,9.188,9.2228,9.2051,9.284,9.3246,9.3246,9.2723,9.2856,9.3601,9.317,9.3303,9.3828,9.3933,9.4072,9.421,9.4484,9.4966,9.5469,9.469,9.4443,9.4539,9.4407,9.4359,9.4312,9.4054,9.4054,9.4017,9.3271,9.3306,9.3591,9.3591,9.3144,9.2696,9.3268,9.2393,9.1283,9.1143,9.1406,9.1727,9.1526,9.1916,9.237,9.2628,9.215,9.1882,9.2681,9.2747,9.2829,9.3404,9.3804,9.389,9.3317,9.3881,9.3948,9.2837,9.3178,9.3089,9.196,9.1666,9.1692,9.2074,9.094,9.0036,8.967,8.8141,8.6999,8.6401,8.5573,8.4923,8.4573,8.3844,8.3011,8.2095,8.2647,8.2505,8.1762,8.1608,8.1226,0.0,0.0,0.0,0.0,0.0,0.0,0.0,6.0941,6.2518,6.3044,6.5445,6.813,7.0344,7.2973,7.5678,7.8443,8.0703,8.2615,8.3996,8.5639,8.6509,8.6029,8.5958,8.652,8.7972,8.8253,8.8756,8.9695,9.0315,9.0736,9.0869,9.1251,9.1554,9.177,9.2067,9.2105,9.1836,9.2171,9.242,9.2559,9.2309,9.2517,9.3159,9.3159,9.3546,9.4321,9.4571,9.4853,9.5119,9.5495,9.5741,9.5854,9.5704,9.5704,9.5757,9.5487,9.5345,9.5381,9.5407,9.5565,9.5687,9.5071,9.5296,9.5651,9.5048,9.5006,9.5093,9.4907,9.4252,9.3519,9.3065,9.3006,9.2963,9.2701,9.2643,9.2798,9.3377,9.2711,9.2415,9.3759,9.358,9.3493,9.4281,9.4787,9.4875,9.4113,9.4511,9.4411,9.3102,9.3318,9.3164,9.2117,9.2015,9.2122,9.2383,9.162,9.0786,9.0054,8.9214,8.8521,8.8029,8.6678,8.585,8.5718,8.4501,8.3893,8.3944,8.4133,8.4067,8.3746,8.4279,8.4035,5.8894,5.8713,5.9148,6.0883,6.1888,6.288,0.0,6.5114,6.5882,6.7294,6.9187,7.1237,7.3328,7.5858,7.8529,8.1217,8.2638,8.4091,8.6051,8.6555,8.693,8.755,8.762,8.7972,8.8803,8.9528,9.0242,9.1016,9.1799,9.2244,9.2281,9.2104,9.2003,9.2063,9.2507,9.305,9.3668,9.436,9.503,9.5679,9.5419,9.5454,9.5778,9.5778,9.561,9.534,9.5611,9.5892,9.6192,9.6957,9.7265,9.7277,9.7252,9.71,9.6767,9.5375,9.4895,9.4898,9.5157,9.5256,9.5246,9.5175,9.521,9.5246,9.5175,9.5012,9.4849,9.4962,9.4554,9.4076,9.3879,9.369,9.3528,9.3451,9.3484,9.3411,9.3197,9.3534,9.3793,9.3375,9.4272,9.503,9.4839,9.5388,9.5637,9.4875,9.4842,9.461,9.3782,9.3168,9.2522,9.1724,9.1674,9.1689,9.172,9.159,9.1227,9.0467,9.0337,8.9939,8.9241,8.9012,8.8599,8.7937,8.7534,8.6708,8.5459,8.5188,8.4859,8.4489,8.4311,8.4289,6.1155,6.1408,6.2191,6.3473,6.486,6.6291,6.7724,6.8299,6.8826,6.9728,7.1541,7.3548,7.5433,7.789,8.0359,8.2557,8.4036,8.5345,8.6732,8.707,8.7445,8.8227,8.8171,8.8498,8.9575,9.0116,9.0632,9.1248,9.1909,9.2067,9.16,9.1748,9.2063,9.2504,9.2547,9.2925,9.3689,9.3856,9.4087,9.4385,9.4299,9.4541,9.514,9.5893,9.6571,9.7096,9.6744,9.6671,9.6787,9.7138,9.7525,9.7925,9.7455,9.7483,9.7673,9.655,9.6129,9.6141,9.6291,9.6396,9.6534,9.6534,9.6534,9.6471,9.6119,9.5836,9.5568,9.5248,9.4765,9.429,9.4249,9.3903,9.3586,9.3586,9.3453,9.3376,9.3665,9.3683,9.3784,9.437,9.4814,9.5202,9.5488,9.5803,9.5902,9.5604,9.5173,9.4643,9.3881,9.3168,9.2406,9.1677,9.1611,9.1611,9.1611,9.1611,9.1479,9.1165,9.1132,9.0801,9.009,9.0056,8.96,8.8674,8.8306,8.7568,8.6411,8.6229,8.5944,8.5583,8.5723,8.5824,6.3793,6.4237,6.5035,6.6268,6.7855,6.9462,7.0662,7.1063,7.1485,7.2334,7.368,7.534,7.7392,7.9468,8.1542,8.3681,8.4977,8.6134,8.7332,8.7546,8.7782,8.8342,8.8358,8.8684,8.9667,9.0139,9.0702,9.1455,9.1803,9.1828,9.1453,9.1701,9.2222,9.2986,9.2746,9.2947,9.3709,9.3542,9.3537,9.3744,9.3951,9.4385,9.5081,9.6219,9.7297,9.8248,9.745,9.7099,9.7134,9.7344,9.7779,9.8248,9.7884,9.8095,9.8516,9.7941,9.7485,9.7099,9.7099,9.724,9.7407,9.7407,9.7269,9.7077,9.6625,9.6254,9.5837,9.5199,9.4744,9.436,9.4202,9.3874,9.3654,9.3857,9.3638,9.3586,9.422,9.4062,9.4092,9.5062,9.5236,9.5372,9.5902,9.6001,9.6001,9.6001,9.5372,9.4643,9.3881,9.3003,9.2208,9.1644,9.1611,9.1611,9.1611,9.1611,9.158,9.1486,9.1564,9.1333,9.0694,9.0679,9.0206,8.9232,8.8718,8.7949,8.6922,8.6937,8.6782,8.648,8.6658,8.6856,6.7046,6.712,6.7426,6.9673,7.1175,7.2354,7.3534,7.3524,7.3852,7.5744,7.5887,7.6543,7.9486,8.07,8.2177,8.4985,8.5467,8.6218,8.8282,8.8122,8.7808,8.789,8.8317,8.86,8.8621,8.9548,9.0648,9.1978,9.1854,9.2002,9.2698,9.2496,9.2733,9.3448,9.3216,9.3447,9.4254,9.4289,9.462,9.5344,9.6055,9.6567,9.6919,9.7511,9.7959,9.8248,9.745,9.7099,9.7169,9.7932,9.8283,9.8354,9.9078,9.9359,9.9345,9.9345,9.8362,9.7099,9.7099,9.7099,9.7112,9.7112,9.6712,9.6241,9.6227,9.581,9.5185,9.4602,9.4417,9.4274,9.3762,9.3601,9.3789,9.4518,9.4399,9.4284,9.4685,9.5077,9.5244,9.4989,9.5471,9.5968,9.6001,9.6001,9.6001,9.6001,9.5372,9.4643,9.3881,9.2539,9.1611,9.1611,9.1611,9.1611,9.1611,9.1611,9.1471,9.1156,9.1439,9.1437,9.1107,9.1091,9.0746,8.9974,8.9326,8.8274,8.6922,8.724,8.7208,8.6875,8.6549,8.6962,6.8605,6.9942,7.1394,7.285,7.3971,7.5114,7.656,7.6164,7.5828,7.6886,7.7185,7.7861,7.9743,8.1263,8.2897,8.4899,8.5682,8.6462,8.7632,8.7376,8.7268,8.7755,8.8307,8.873,8.9111,8.9576,9.0187,9.0972,9.1565,9.187,9.1732,9.245,9.3237,9.3997,9.395,9.4275,9.5034,9.5034,9.5137,9.5413,9.638,9.6975,9.7276,9.764,9.7959,9.8248,9.745,9.7099,9.7169,9.7967,9.8599,9.9043,9.931,9.9381,9.9345,9.8832,9.7767,9.6651,9.7591,9.7298,9.648,9.648,9.6093,9.5551,9.515,9.485,9.4588,9.4019,9.386,9.385,9.3645,9.3586,9.373,9.4249,9.4116,9.4115,9.501,9.5111,9.517,9.5554,9.5836,9.6001,9.6001,9.6001,9.6001,9.6001,9.5372,9.4445,9.3219,9.2638,9.2141,9.1644,9.1611,9.1611,9.1611,9.1611,9.1471,9.1124,9.1219,9.1124,9.0791,9.0775,9.0565,9.0095,8.9588,8.8891,8.7971,8.7567,8.7341,8.7225,8.6839,8.6982,7.12,7.2569,7.3822,7.5457,7.6264,7.6992,7.8396,7.791,7.7341,7.8068,7.8274,7.8668,7.988,8.1218,8.2713,8.4434,8.5275,8.6154,8.7383,8.7152,8.7012,8.7486,8.8178,8.8649,8.8815,8.9373,8.9996,9.073,9.1363,9.177,9.1862,9.2907,9.3896,9.4654,9.4689,9.493,9.5413,9.5413,9.5517,9.5793,9.6595,9.7223,9.7631,9.7672,9.776,9.7946,9.7128,9.6953,9.7268,9.8038,9.8808,9.9556,9.993,9.992,9.9639,9.9026,9.8074,9.7153,9.7432,9.6806,9.5891,9.5891,9.5448,9.4927,9.4517,9.426,9.4048,9.3689,9.3586,9.3586,9.3586,9.3586,9.3783,9.4417,9.4333,9.443,9.5553,9.5515,9.5438,9.5902,9.6001,9.6001,9.6001,9.6001,9.6001,9.6001,9.5604,9.4842,9.3649,9.3036,9.2506,9.2042,9.1744,9.1611,9.1611,9.1611,9.1424,9.095,9.1045,9.0902,9.0438,9.0406,9.0309,9.0082,8.9723,8.9187,8.8506,8.8133,8.7773,8.7402,8.7256,8.7095,7.4565,7.4869,7.4869,7.7469,7.7989,7.8121,7.9176,7.8755,7.8401,7.9384,7.9118,7.9034,7.9936,8.0704,8.1837,8.3677,8.4414,8.542,8.7444,8.7327,8.7056,8.7056,8.7959,8.8351,8.7854,8.8936,9.0128,9.123,9.1287,9.1805,9.3005,9.3896,9.4675,9.5379,9.5413,9.5413,9.5413,9.5413,9.5758,9.6448,9.6837,9.7321,9.7959,9.7575,9.7398,9.7293,9.6514,9.6667,9.7467,9.8185,9.8985,9.9813,10.0808,10.0802,10.0212,9.9813,9.9207,9.836,9.6786,9.586,9.5379,9.5379,9.4959,9.4462,9.4462,9.4107,9.3654,9.3654,9.362,9.3586,9.3586,9.3571,9.3854,9.5008,9.5007,9.5101,9.6252,9.6197,9.6001,9.6001,9.6001,9.6001,9.6001,9.6001,9.6001,9.6001,9.6001,9.5736,9.5008,9.3683,9.2771,9.2705,9.2059,9.1613,9.1596,9.1564,9.1282,9.0615,9.0886,9.0759,9.0115,9.005,9.005,9.005,8.9739,8.9234,8.8538,8.8806,8.8408,8.7416,8.7683,8.7244,7.4852,7.6488,7.7717,7.8559,7.8721,7.9096,8.0515,7.9771,7.914,8.037,7.9937,7.9507,7.993,8.084,8.1987,8.3449,8.4426,8.5377,8.6516,8.6582,8.6419,8.6231,8.7382,8.8106,8.7769,8.8695,8.9906,9.1337,9.1799,9.2261,9.2834,9.4082,9.4936,9.54,9.5413,9.5413,9.5413,9.5413,9.5482,9.5689,9.6595,9.6767,9.6407,9.7088,9.7084,9.6479,9.6284,9.6667,9.7467,9.8185,9.8985,9.9772,10.0279,10.0089,9.9448,9.9065,9.8223,9.7154,9.673,9.6466,9.6337,9.6337,9.595,9.5434,9.5434,9.4942,9.4417,9.4417,9.4011,9.3586,9.3586,9.3409,9.3526,9.4656,9.465,9.4754,9.5865,9.6067,9.6001,9.6001,9.6001,9.6001,9.6001,9.6001,9.6001,9.6001,9.6001,9.5736,9.5008,9.4577,9.3914,9.2837,9.2318,9.1829,9.1268,9.1013,9.0679,9.0244,9.0293,9.0147,8.9739,8.9723,8.9723,8.9723,8.936,8.9081,8.8871,8.8412,8.7921,8.7385,8.6935,8.6541,7.5852,7.7495,7.8796,7.9284,7.9374,7.9456,7.9644,7.9527,7.9398,7.9329,7.9556,7.9698,7.9527,8.0478,8.1653,8.2927,8.4054,8.5152,8.6162,8.6394,8.6382,8.6106,8.7397,8.8273,8.8117,8.9315,9.0622,9.1828,9.2057,9.2506,9.3418,9.4496,9.5336,9.5882,9.5896,9.6069,9.6414,9.6414,9.6241,9.5896,9.6477,9.6353,9.5647,9.6241,9.6288,9.5858,9.617,9.6794,9.7605,9.832,9.8998,9.9646,9.9984,9.9622,9.8866,9.8444,9.7878,9.7212,9.6887,9.6989,9.7144,9.6512,9.607,9.5804,9.5804,9.5499,9.5195,9.5195,9.489,9.4537,9.4388,9.4223,9.4235,9.49,9.4916,9.5027,9.5835,9.6001,9.6001,9.6001,9.6001,9.6001,9.6001,9.6001,9.6001,9.6001,9.6001,9.5869,9.5438,9.5107,9.4577,9.3749,9.3225,9.2617,9.1858,9.1474,9.1007,9.0358,9.0163,8.9952,8.9608,8.9426,8.9343,8.9343,8.8977,8.8793,8.8793,8.805,8.7659,8.7561,8.6698,8.6334,7.7176,7.8267,7.9017,7.9721,7.989,7.9497,7.798,7.8781,7.9374,7.7695,7.8691,7.973,7.9281,8.0147,8.135,8.2622,8.3822,8.502,8.6237,8.6605,8.6664,8.642,8.7657,8.861,8.8778,9.027,9.1616,9.2511,9.2304,9.2763,9.4261,9.5089,9.5855,9.6641,9.6641,9.7,9.769,9.769,9.7345,9.6641,9.6641,9.6331,9.5689,9.5586,9.5551,9.5586,9.6138,9.6801,9.7561,9.8297,9.8848,9.9342,9.9596,9.9209,9.8436,9.7981,9.7915,9.7901,9.7274,9.7461,9.7784,9.6514,9.6074,9.6074,9.6074,9.6007,9.5939,9.5939,9.5841,9.5683,9.5376,9.5238,9.5224,9.5349,9.5374,9.5462,9.5885,9.6001,9.6001,9.6001,9.6001,9.6001,9.6001,9.6001,9.6001,9.6001,9.6001,9.6001,9.6001,9.5438,9.4991,9.4844,9.4199,9.3439,9.2565,9.218,9.153,9.0519,9.018,8.9887,8.9525,8.9178,8.8945,8.8861,8.8524,8.832,8.8286,8.7602,8.7379,8.7619,8.6753,8.6416,7.8006,7.9079,7.9721,7.9854,7.989,7.9601,7.851,7.8959,7.9376,7.8387,7.8975,7.9868,8.0588,8.1272,8.2338,8.4254,8.5176,8.5961,8.6825,8.702,8.6995,8.6881,8.7637,8.861,8.9645,9.045,9.1648,9.3416,9.3335,9.3645,9.4593,9.5489,9.6436,9.7449,9.7483,9.7552,9.769,9.769,9.7621,9.7483,9.7483,9.7414,9.7276,9.6621,9.6296,9.6262,9.5793,9.5917,9.6528,9.7177,9.7775,9.8301,9.8611,9.8659,9.8444,9.8079,9.7994,9.7987,9.7867,9.7901,9.7953,9.7698,9.7631,9.7631,9.7631,9.7191,9.6699,9.6699,9.6061,9.5376,9.5314,9.4883,9.4631,9.5238,9.5198,9.5172,9.5836,9.6001,9.6001,9.6001,9.6001,9.6001,9.6001,9.6001,9.6001,9.6001,9.6001,9.6001,9.6001,9.5902,9.5457,9.4584,9.4058,9.3138,9.1501,9.1059,9.0552,8.9804,8.9723,8.9509,8.9112,8.9029,8.8727,8.8104,8.7759,8.7432,8.7088,8.6682,8.6633,8.6874,8.6727,8.6588,7.8988,7.9614,7.989,7.989,7.9283,7.8408,7.7564,7.7937,7.8283,7.7509,7.8649,7.9993,8.0766,8.1333,8.2242,8.3945,8.4813,8.5557,8.6377,8.6586,8.6859,8.7361,8.81,8.9118,9.0529,9.121,9.2184,9.369,9.3841,9.4224,9.5019,9.6254,9.7341,9.8242,9.8656,9.8828,9.8828,9.8828,9.8656,9.8276,9.8276,9.8069,9.7704,9.7311,9.6897,9.6503,9.6586,9.674,9.7017,9.7552,9.8066,9.8542,9.8522,9.8401,9.8218,9.8064,9.7987,9.7953,9.7563,9.7698,9.7935,9.7563,9.7698,9.7987,9.7987,9.7766,9.7431,9.7261,9.6837,9.6366,9.6007,9.5676,9.5474,9.5647,9.5585,9.5571,9.5935,9.6001,9.6001,9.6001,9.6001,9.6001,9.6001,9.6001,9.5936,9.5722,9.5689,9.5623,9.5441,9.5425,9.5293,9.4947,9.46,9.3858,9.2612,9.2198,9.156,9.0439,9.0209,8.9765,8.9044,8.8643,8.8256,8.7899,8.7363,8.698,8.6805,8.6811,8.6858,8.689,8.6687,8.67,7.9676,7.989,7.989,7.989,7.8676,7.7285,7.6498,7.6774,7.7015,7.6453,7.8058,7.9828,8.0635,8.113,8.1903,8.3468,8.426,8.4985,8.5915,8.6475,8.7069,8.7869,8.8811,8.9959,9.1304,9.204,9.283,9.3918,9.4324,9.4951,9.5827,9.7173,9.8276,9.9001,9.9622,9.9898,9.9898,9.976,9.938,9.8794,9.8794,9.8483,9.7931,9.7931,9.7518,9.6779,9.7414,9.7588,9.7417,9.7972,9.8367,9.865,9.8463,9.8132,9.7766,9.7766,9.7618,9.7369,9.7006,9.7182,9.7498,9.7136,9.7437,9.7895,9.7895,9.7895,9.7848,9.755,9.744,9.7285,9.6745,9.6504,9.6326,9.6067,9.6001,9.6001,9.6001,9.6001,9.6001,9.6001,9.6001,9.6001,9.6001,9.6001,9.587,9.5458,9.5392,9.521,9.4728,9.4595,9.458,9.4682,9.4614,9.4249,9.3413,9.295,9.2115,9.0731,9.0385,8.9792,8.8709,8.8118,8.771,8.7556,8.691,8.66,8.6654,8.6841,8.6962,8.7048,8.674,8.6849,7.9676,7.989,7.989,7.989,7.8676,7.7257,7.6339,7.6131,7.6157,7.6114,7.743,7.907,8.0733,8.1099,8.1864,8.4115,8.4578,8.5082,8.6344,8.7568,8.8358,8.8511,8.9823,9.1018,9.1863,9.237,9.3199,9.4537,9.5251,9.6194,9.7428,9.8276,9.9035,9.9794,9.9849,9.9898,9.9898,9.9242,9.8863,9.8794,9.8794,9.8759,9.869,9.869,9.8276,9.7587,9.767,9.719,9.6416,9.7439,9.7746,9.7661,9.7949,9.7627,9.7003,9.7003,9.638,9.5694,9.6592,9.6536,9.6253,9.7155,9.75,9.7568,9.7568,9.7568,9.7552,9.7521,9.7285,9.7032,9.6969,9.6488,9.6034,9.6001,9.6001,9.6001,9.6001,9.6001,9.6001,9.6001,9.6001,9.6001,9.6001,9.6001,9.587,9.5458,9.5392,9.5045,9.404,9.3625,9.3212,9.2544,9.3081,9.3045,9.1993,9.1245,9.0366,8.9241,8.9159,8.8657,8.7602,8.7466,8.712,8.6467,8.6023,8.5908,8.6181,8.582,8.6115,8.6917,8.6879,8.7004,8.0256,7.9578,7.8579,7.9043,7.6902,7.4957,7.6024,7.515,7.4607,7.6549,7.7832,7.9099,8.0782,8.1113,8.168,8.3427,8.3691,8.4102,8.5269,8.631,8.7349,8.8464,8.9948,9.1356,9.2548,9.3047,9.356,9.425,9.5131,9.5993,9.6697,9.7625,9.869,9.9849,9.9898,9.9898,9.9898,9.9173,9.9035,9.9449,9.9001,9.9035,9.9449,9.9449,9.907,9.8345,9.8345,9.7708,9.6669,9.7456,9.7316,9.6644,9.7126,9.6902,9.6195,9.6012,9.5691,9.5318,9.5544,9.5746,9.5992,9.6622,9.6869,9.6953,9.7143,9.7206,9.7159,9.6969,9.6809,9.6649,9.6473,9.6197,9.6001,9.6001,9.6001,9.6001,9.6001,9.6001,9.6001,9.6001,9.6001,9.6001,9.6001,9.6001,9.587,9.5458,9.5226,9.4696,9.3641,9.3206,9.2872,9.258,9.2807,9.2821,9.2409,9.2285,9.1973,9.1331,9.0841,8.9893,8.8426,8.7893,8.7213,8.6325,8.6302,8.6245,8.6109,8.6742,8.6872,8.6558,8.6951,8.6931,8.0649,7.9685,7.8401,7.9195,7.6626,7.4368,7.6304,7.4868,7.394,7.6616,7.7756,7.869,8.0139,8.0707,8.1356,8.2546,8.289,8.3458,8.4851,8.5769,8.6856,8.8495,9.0007,9.135,9.2519,9.338,9.388,9.3919,9.4807,9.5524,9.587,9.6649,9.7746,9.9193,9.9141,9.9141,9.9242,9.8518,9.838,9.8883,9.8621,9.8759,9.9277,9.9691,9.9423,9.8597,9.896,9.8199,9.6767,9.7764,9.7311,9.6061,9.6654,9.6326,9.5435,9.5209,9.5072,9.4999,9.5063,9.5386,9.585,9.6399,9.6488,9.6391,9.6617,9.6761,9.6793,9.6569,9.6504,9.6423,9.6099,9.6001,9.6001,9.6001,9.6001,9.6001,9.6001,9.6001,9.5969,9.5854,9.592,9.5969,9.5854,9.592,9.5838,9.5325,9.5042,9.4494,9.3304,9.2951,9.2665,9.2319,9.2615,9.273,9.2627,9.2627,9.2474,9.201,9.1444,9.0343,8.8577,8.7934,8.7253,8.6441,8.6385,8.6416,8.6508,8.7216,8.7111,8.6236,8.6736,8.6609,8.0649,8.0506,8.0068,8.0863,7.8686,7.6554,7.733,7.5679,7.4457,7.6081,7.6849,7.752,7.856,7.9805,8.0962,8.1759,8.2365,8.3454,8.5591,8.6568,8.7534,8.8768,9.0059,9.1094,9.1581,9.3176,9.4042,9.371,9.4459,9.5031,9.5296,9.5498,9.6272,9.7676,9.7377,9.7397,9.7725,9.6931,9.6538,9.6538,9.7345,9.7725,9.7759,9.9242,9.9248,9.8153,9.9357,9.8484,9.6345,9.8229,9.7805,9.6061,9.6654,9.6007,9.4706,9.4706,9.4512,9.4353,9.5413,9.5601,9.5569,9.6655,9.6536,9.6001,9.6001,9.6262,9.6504,9.6504,9.6504,9.6423,9.6099,9.6001,9.6001,9.6001,9.6001,9.6001,9.6001,9.6001,9.5887,9.5475,9.5722,9.5887,9.5458,9.5739,9.5755,9.5041,9.4891,9.4393,9.298,9.2813,9.2368,9.1233,9.2121,9.2627,9.2248,9.1521,9.0794,9.01,9.0015,8.922,8.7373,8.7319,8.709,8.6693,8.5906,8.6172,8.7486,8.6712,8.6257,8.61,8.612,8.5963,7.9188,7.8622,7.7725,7.8616,7.637,7.4297,7.5617,7.4601,7.3949,7.5966,7.6646,7.7245,7.8465,7.9155,8.024,8.2354,8.2809,8.3642,8.5799,8.6958,8.7971,8.9038,9.1049,9.2655,9.3498,9.3728,9.3838,9.389,9.4157,9.4337,9.4423,9.4489,9.5393,9.7314,9.7262,9.7363,9.769,9.6897,9.6793,9.7311,9.7587,9.7852,9.8153,9.9165,9.9298,9.8754,9.9112,9.7893,9.5724,9.78,9.6999,9.4558,9.6011,9.6114,9.542,9.495,9.4687,9.4711,9.5573,9.5663,9.5569,9.6655,9.6697,9.6343,9.6343,9.6279,9.6165,9.6165,9.6165,9.6132,9.6034,9.6001,9.6001,9.6001,9.6001,9.6001,9.6001,9.6001,9.5887,9.5458,9.5491,9.5557,9.5425,9.5342,9.5259,9.5226,9.4857,9.4223,9.327,9.268,9.2255,9.1892,9.2156,9.2248,9.1835,9.2024,9.2097,9.1868,9.1121,9.0193,8.9109,8.8583,8.7919,8.705,8.6973,8.7005,8.7085,8.6758,8.6261,8.5628,8.5354,8.5393,7.8335,7.801,7.7148,7.802,7.6032,7.4163,7.5522,7.4431,7.3537,7.5081,7.5364,7.5719,7.6918,7.7553,7.8768,8.1454,8.2087,8.3079,8.5559,8.6666,8.7724,8.9092,9.1411,9.298,9.3268,9.3569,9.3791,9.383,9.3714,9.3699,9.383,9.3864,9.4505,9.5968,9.5982,9.616,9.6489,9.588,9.588,9.6489,9.665,9.6927,9.732,9.8074,9.8407,9.8318,9.8522,9.75,0.0,9.771,9.6797,9.4354,9.5833,9.6003,9.5394,9.5118,9.51,9.5324,9.6025,9.6157,9.6095,9.6803,9.6681,9.6294,9.6294,9.6181,9.6001,9.6001,9.6001,9.6001,9.6001,9.6001,9.6001,9.6001,9.6001,9.6001,9.6001,9.6001,9.5887,9.5458,9.5392,9.5359,9.5226,9.5025,9.4908,9.5025,9.467,9.4133,9.339,9.2912,9.2496,9.2184,9.2149,9.2009,9.162,9.2283,9.245,9.1877,9.1297,9.0544,8.9512,8.9034,8.8403,8.7592,8.7427,8.7314,8.7288,8.6548,8.584,8.5162,8.4734,8.4776,0.0,7.8102,7.7771,7.8578,7.7063,7.5595,7.6527,7.4876,0.0,7.3653,7.3455,7.3522,7.4596,7.5493,7.6971,7.9727,8.0621,8.2039,8.5028,8.6057,8.7233,8.9224,9.1403,9.2429,9.1571,9.2997,9.3894,9.3645,9.332,9.3275,9.3571,9.3586,9.3703,9.3918,9.3947,9.4121,9.4485,9.4179,9.4193,9.446,9.4928,9.5283,9.5559,9.633,9.6837,9.7138,9.7541,9.7148,9.6327,9.7665,9.6937,9.5067,9.5958,9.5777,9.4973,9.5283,9.5658,9.6057,9.6693,9.6964,9.6984,9.6969,9.6537,9.6001,9.6001,9.6001,9.6001,9.6001,9.6001,9.6001,9.6001,9.6001,9.6001,9.6001,9.6001,9.5985,9.5969,9.5969,9.587,9.5408,9.5309,9.5193,9.4842,9.4742,9.459,9.4333,9.428,9.4039,9.3346,9.3241,9.291,9.2168,9.2097,9.1949,9.1565,9.2164,9.1967,9.0525,9.0728,9.0299,8.8936,8.8812,8.8607,8.8244,8.7368,8.718,8.772,8.6161,8.5183,8.4743,8.4262,8.4196,7.4583,0.0,7.5529,7.647,7.5284,7.4111,0.0,7.432,7.3691,7.4073,7.4208,7.4771,7.6497,7.6708,7.7976,8.2134,8.2336,8.2922,8.5625,8.7369,8.9324,9.1879,9.2826,9.3296,9.3416,9.3605,9.3762,9.3889,9.3645,9.3512,9.3586,9.3586,9.3512,9.3335,9.3571,9.3952,9.4485,9.4414,9.4235,9.3997,9.5021,9.5248,9.4793,9.5906,9.6279,9.6115,9.5856,9.5303,9.462,9.5241,9.5168,9.4774,9.5386,9.5972,9.6466,9.6258,9.6456,9.6748,9.6906,9.6993,9.6953,9.6697,9.636,9.6001,9.6001,9.6001,9.6001,9.6001,9.6001,9.6001,9.6001,9.6001,9.6001,9.6001,9.6001,9.592,9.5623,9.5772,9.5722,9.4822,9.4382,9.4072,9.3738,9.3229,9.2905,9.3076,9.3098,9.3033,9.2857,9.2574,9.2293,9.2115,9.2097,9.1701,9.0747,9.1064,9.1192,9.0857,9.0358,8.9923,8.9581,8.8966,8.8586,8.8521,8.7644,8.6805,8.6001,8.5599,8.4991,8.4241,8.3787,8.3862,7.2079,7.3388,7.4785,7.532,7.4484,7.374,7.4609,7.3685,7.2784,7.3473,7.3323,7.3708,7.577,7.5807,7.6857,8.094,8.1195,8.2179,8.5867,8.7766,8.955,9.1598,9.2458,9.2893,9.3036,9.3359,9.3611,9.3821,9.3542,9.3364,9.3364,9.3364,9.323,9.2868,9.3201,9.3527,9.3864,9.3864,9.3821,9.3714,9.4228,9.4515,9.4598,9.5266,9.5849,9.6274,9.544,9.5309,9.5597,9.5233,9.5265,9.5493,9.5778,9.6187,9.652,9.6504,9.652,9.6602,9.6889,9.6889,9.6745,9.6552,9.6262,9.6001,9.6001,9.6001,9.6001,9.6001,9.6001,9.6001,9.6001,9.587,9.5722,9.5722,9.5607,9.5441,9.5209,9.5342,9.5309,9.4739,9.4343,9.3965,9.3593,9.3062,9.2714,9.2699,9.2689,9.2645,9.2468,9.2222,9.2025,9.1895,9.1551,9.1151,9.0691,9.0339,9.0153,9.0153,8.996,8.961,8.925,8.8831,8.8409,8.8022,8.7359,8.648,8.5397,8.5223,8.4673,8.3787,8.4063,8.4151,7.0532,7.2585,7.4613,7.4462,7.3841,7.3522,7.4449,7.301,7.1706,7.274,7.2316,7.2504,7.4789,7.4761,7.56,7.9226,7.9961,8.1717,8.6261,8.7769,8.9019,9.0606,9.1734,9.2298,9.2101,9.2958,9.3537,9.3586,9.3335,9.3186,9.3186,9.3186,9.3003,9.2687,9.2988,9.3156,9.3111,9.3156,9.3282,9.3475,9.3267,9.3619,9.4442,9.4635,9.5364,9.6511,9.5542,9.5894,9.7065,9.5914,9.5821,9.6321,9.6273,9.6129,9.6034,9.631,9.6262,9.6165,9.6713,9.6697,9.6423,9.6423,9.6213,9.5985,9.5936,9.5952,9.5969,9.587,9.587,9.5936,9.5985,9.5656,9.5342,9.5392,9.5142,9.4907,9.484,9.4841,9.4858,9.474,9.447,9.4099,9.3621,9.3257,9.2923,9.2521,9.251,9.2414,9.2061,9.2007,9.1913,9.1637,9.0944,9.0581,9.0876,8.9891,8.9243,8.9129,8.9452,8.925,8.8448,8.8501,8.8155,8.7274,8.7007,8.6429,8.5443,8.5024,8.4337,8.342,8.441,8.4426,7.1168,7.2666,7.3806,7.2831,7.2008,7.1621,7.2474,7.2349,7.2349,7.3352,7.3856,7.4905,7.7578,7.7057,7.7712,8.2344,8.3494,8.482,8.7787,8.8178,8.929,9.2328,9.2953,9.3209,9.3385,9.3509,9.3586,9.3586,9.3542,9.3512,9.3512,9.3512,9.3364,9.3018,9.3349,9.3394,9.3111,9.3379,9.3355,9.3001,9.3355,9.3403,9.319,9.4216,9.4808,9.5041,9.5086,9.5285,9.5568,9.4708,9.4847,9.5541,9.5268,9.5487,9.6001,9.6051,9.6197,9.644,9.6536,9.6343,9.6083,9.6083,9.6051,9.5936,9.5607,9.5722,9.587,9.5242,9.5259,9.559,9.592,9.5491,9.5042,9.5325,9.5142,9.484,9.4551,9.4688,9.4739,9.4109,9.3707,9.3251,9.255,9.2117,9.1732,9.1412,9.16,9.1764,9.166,9.1692,9.1674,9.1619,9.1169,9.0784,9.0538,8.9985,8.9433,8.8736,8.8755,8.8409,8.7536,8.806,8.7946,8.7044,8.7548,8.709,8.5648,8.5193,8.4432,8.342,8.3751,8.3613,7.0053,7.1096,7.203,7.2158,7.2255,7.2373,7.2623,7.227,7.2132,7.3119,7.3875,7.4995,7.7168,7.7464,7.8696,8.2577,8.4134,8.5583,8.7568,8.8445,8.9632,9.177,9.2479,9.294,9.3239,9.3481,9.3586,9.3586,9.3586,9.3512,9.3335,9.3335,9.3186,9.2822,9.3171,9.326,9.3111,9.3423,9.349,9.3283,9.349,9.3693,9.3898,9.4442,9.5127,9.5868,9.5338,9.5623,9.6425,9.5384,9.5358,9.5972,9.5812,9.5866,9.6001,9.6001,9.6099,9.6246,9.6246,9.6132,9.6001,9.6001,9.587,9.564,9.5442,9.5392,9.5375,9.5209,9.5276,9.5392,9.5408,9.5008,9.4654,9.4806,9.4587,9.428,9.4092,9.4195,9.4229,9.3869,9.3695,9.3348,9.2604,9.2324,9.2007,9.1469,9.1488,9.1601,9.1601,9.1601,9.1529,9.131,9.0944,9.0506,9.0128,8.9716,8.9243,8.864,8.8158,8.7882,8.7832,8.7926,8.7835,8.7545,8.7587,8.7154,8.6247,8.4928,8.3915,8.3185,8.3342,8.32,6.8974,6.9893,7.0841,7.1767,7.2576,7.3103,7.3113,7.2672,7.2459,7.3242,7.4098,7.5228,7.683,7.8555,8.0476,8.2759,8.46,8.6142,8.7389,8.8755,9.0047,9.115,9.2094,9.2779,9.3045,9.3379,9.3586,9.3586,9.3586,9.3483,9.3245,9.323,9.3111,9.2837,9.3096,9.323,9.323,9.3468,9.3586,9.3586,9.3512,9.3816,9.4451,9.453,9.5221,9.636,9.5698,9.6051,9.7075,9.6239,9.6072,9.6375,9.6375,9.6246,9.6001,9.6001,9.6001,9.6001,9.6001,9.6001,9.5985,9.5903,9.5656,9.5359,9.5192,9.5025,9.4908,9.4992,9.5076,9.5126,9.5025,9.4705,9.4398,9.4398,9.4108,9.38,9.38,9.38,9.38,9.38,9.3731,9.3471,9.2822,9.2628,9.2343,9.171,9.1601,9.1601,9.1601,9.1529,9.1383,9.1151,9.0599,9.0041,8.9553,8.9136,8.8778,8.8545,8.7884,8.7713,8.8126,8.7955,8.7866,8.791,8.7363,8.6911,8.6436,8.4684,8.362,8.322,8.3342,8.319,6.8974,7.0206,7.1264,7.1348,7.1831,7.242,7.2978,7.3662,7.4277,7.4515,7.5652,7.7027,7.8467,8.1955,8.4583,8.4464,8.6163,8.7684,8.8232,8.9369,9.0533,9.1625,9.2808,9.3533,9.3548,9.3567,9.3586,9.3586,9.3586,9.3571,9.3556,9.3556,9.3542,9.3527,9.3542,9.3556,9.3556,9.3571,9.3586,9.3586,9.329,9.3339,9.3673,9.4069,9.447,9.4894,9.5872,9.6188,9.6061,9.6328,9.6275,9.6034,9.6034,9.6018,9.6001,9.6001,9.6001,9.6001,9.6001,9.6001,9.5936,9.5541,9.5425,9.5276,9.467,9.4671,9.4757,9.4109,9.4178,9.4619,9.5192,9.489,9.4398,9.4398,9.4108,9.38,9.38,9.38,9.38,9.38,9.354,9.3206,9.2769,9.2382,9.2039,9.1642,9.1601,9.1601,9.1601,9.126,9.1182,9.1529,9.0506,8.9515,8.8755,8.8244,8.809,8.8313,8.8244,8.8076,8.7766,8.8045,8.8051,8.764,8.6911,8.6273,8.5686,8.4668,8.4072,8.3828,8.404,8.3885,6.8235,6.9211,7.0322,7.1797,7.2517,7.3007,7.3528,7.3865,7.4354,7.5462,7.6433,7.7791,8.0247,8.2751,8.4716,8.5692,8.7122,8.8293,8.8787,9.0022,9.1043,9.1443,9.2745,9.3586,9.3586,9.3586,9.3586,9.3586,9.3586,9.3586,9.3586,9.3586,9.3586,9.3586,9.3394,9.3394,9.3586,9.3201,9.3096,9.329,9.3171,9.3066,9.2991,9.3335,9.396,9.4776,9.4935,9.5622,9.6549,9.6271,9.6217,9.6278,9.6083,9.6001,9.6001,9.6001,9.6001,9.6001,9.6001,9.5854,9.5607,9.5442,9.5125,9.4722,9.4466,9.4297,9.4212,9.4193,9.4279,9.4398,9.4417,9.4229,9.4039,9.4039,9.3903,9.38,9.38,9.38,9.3731,9.3523,9.3398,9.3101,9.245,9.2186,9.2003,9.1656,9.1601,9.151,9.1274,9.1078,9.0889,9.0506,8.961,8.8812,8.8205,8.7544,8.7226,8.7426,8.7173,8.7367,8.8034,8.7653,8.7394,8.735,8.68,8.6384,8.6162,8.4192,8.34,8.3621,8.2413,8.1944,6.7524,6.8485,6.987,7.1789,7.2928,7.3827,7.4717,7.48,7.5089,7.6493,7.7647,7.9131,8.1507,8.3525,8.5221,8.6475,8.8042,8.9183,8.9433,9.0729,9.1614,9.1547,9.2661,9.3438,9.3438,9.3438,9.3483,9.3586,9.3586,9.3586,9.3586,9.3586,9.3586,9.3586,9.3379,9.332,9.3438,9.3006,9.2762,9.2777,9.2973,9.2913,9.2596,9.2985,9.3607,9.4456,9.4546,9.529,9.6457,9.6095,9.607,9.631,9.6099,9.6001,9.6001,9.6001,9.6001,9.5985,9.5837,9.564,9.5359,9.5142,9.4756,9.4364,9.4245,9.4006,9.3852,9.4142,9.421,9.4159,9.3869,9.3886,9.3955,9.3834,9.38,9.3765,9.3661,9.3644,9.3523,9.3188,9.2998,9.2751,9.2186,9.1989,9.1823,9.1442,9.1419,9.1274,9.0857,9.0691,9.0302,8.9496,8.8812,8.8128,8.7564,8.6918,8.6655,8.681,8.6346,8.6602,8.7804,8.7138,8.6832,8.6988,8.6212,8.5842,8.582,8.3946,8.3211,8.3504,8.1937,8.1394,6.6952,6.8265,7.0017,7.1059,7.2763,7.4654,7.6518,7.6786,7.6855,7.7644,7.9522,8.1308,8.2164,8.4664,8.6662,8.6901,8.9052,9.0609,9.025,9.1459,9.229,9.2063,9.2673,9.3077,9.3077,9.3077,9.3245,9.3571,9.3586,9.3586,9.3586,9.3586,9.3586,9.3586,9.3586,9.3423,9.3111,9.3096,9.2747,9.2122,9.2713,9.2849,9.2614,9.3012,9.3377,9.3755,9.4883,9.5406,9.5441,9.5834,9.6001,9.6001,9.6001,9.6001,9.6001,9.6001,9.6001,9.5936,9.5557,9.5392,9.5276,9.4619,9.4398,9.4313,9.392,9.38,9.38,9.38,9.38,9.38,9.38,9.4108,9.4279,9.3886,9.38,9.3696,9.3381,9.3311,9.3188,9.2769,9.2347,9.2097,9.2097,9.1823,9.1474,9.1072,9.1017,9.087,9.0464,9.0023,8.9477,8.8678,8.8166,8.7564,8.6768,8.6433,8.6368,8.6577,8.5903,8.5903,8.6856,8.6621,8.6461,8.6461,8.5107,8.4392,8.4392,8.392,8.3693,8.367,8.3138,8.2881,6.5814,6.6798,6.8416,7.1215,7.2778,7.4603,7.8378,7.8407,7.8161,7.9891,8.1458,8.3068,8.4795,8.5913,8.7136,8.8804,9.0008,9.0779,9.0942,9.1798,9.2363,9.2275,9.2965,9.3453,9.3453,9.3453,9.3483,9.3586,9.3586,9.3586,9.3586,9.3586,9.3483,9.326,9.3036,9.2837,9.2747,9.2291,9.2076,9.2107,9.2028,9.1966,9.1922,9.3241,9.3815,9.3801,9.4393,9.5079,9.5834,9.5935,9.6001,9.6001,9.6001,9.6001,9.6001,9.6001,9.5804,9.5574,9.5442,9.5108,9.467,9.4466,9.421,9.3955,9.3834,9.38,9.38,9.38,9.38,9.38,9.38,9.3696,9.3659,9.3765,9.3609,9.3433,9.3328,9.3101,9.2751,9.2379,9.2168,9.2039,9.1787,9.1424,9.1303,9.1645,9.1449,9.1163,9.0749,8.9672,8.864,8.7789,8.729,8.6908,8.6522,8.5801,8.5658,8.6295,8.5542,8.5551,8.6591,8.5912,8.5381,8.5017,8.4279,8.392,8.392,8.3047,8.2816,8.3138,8.2195,8.1993,6.624,6.7368,6.8994,7.1736,7.3536,7.5738,7.9993,8.0439,8.0293,8.1505,8.3124,8.459,8.563,8.6717,8.7963,8.9417,9.0379,9.1146,9.1657,9.2373,9.2836,9.2685,9.3124,9.3394,9.3394,9.3394,9.3453,9.3571,9.3586,9.3586,9.3586,9.3468,9.3305,9.3126,9.3185,9.3153,9.3031,9.2933,9.2895,9.2958,9.2895,9.2558,9.2091,9.3382,9.392,9.3831,9.462,9.5351,9.6001,9.6001,9.6001,9.6001,9.6001,9.6001,9.5969,9.5804,9.5623,9.5342,9.4908,9.4603,9.4347,9.4056,9.3679,9.3366,9.3366,9.3124,9.2896,9.2896,9.2896,9.2896,9.2896,9.2719,9.2769,9.3436,9.3314,9.2998,9.2857,9.2365,9.1863,9.1465,9.1124,9.085,9.0642,9.0471,9.037,9.0374,8.9862,8.9494,8.953,8.8591,8.776,8.7227,8.6886,8.6594,8.6258,8.5623,8.5364,8.5664,8.5228,8.5275,8.5931,8.5403,8.4888,8.4414,8.412,8.3784,8.3395,8.277,8.2539,8.2632,8.1951,8.1839,6.7362,6.8926,7.0677,7.2477,7.4936,7.7853,8.1388,8.2592,8.294,8.2836,8.4577,8.6016,8.5629,8.746,8.909,8.9339,9.0512,9.1633,9.2363,9.3087,9.3453,9.3186,9.3156,9.3156,9.3156,9.3156,9.3275,9.3571,9.3586,9.362,9.3687,9.3406,9.3227,9.3167,9.3791,9.3942,9.3485,9.4193,9.4372,9.4021,9.4289,9.3802,9.2638,9.3547,9.3978,9.408,9.5438,9.6001,9.6001,9.6001,9.6001,9.6001,9.5969,9.5952,9.5903,9.5508,9.5309,9.5109,9.4109,9.3938,9.4073,9.3381,9.2875,9.2592,9.2592,9.2079,9.1502,9.1502,9.1502,9.1502,9.1502,9.1484,9.1719,9.2822,9.2804,9.2432,9.2025,9.1356,9.0666,9.0259,8.9604,8.9113,8.9117,8.9245,8.9044,8.819,8.7413,8.7097,8.7636,8.7273,8.6951,8.6851,8.6715,8.6418,8.5971,8.5716,8.5423,8.5027,8.5049,8.509,8.5045,8.509,8.4865,8.4347,8.4347,8.382,8.284,8.284,8.2632,8.2192,8.2192,8.2192,6.5467,6.7092,6.9103,7.2816,7.7102,8.0827,8.2304,8.395,8.5128,8.5173,8.6687,8.8209,8.8842,8.9847,9.0842,9.156,9.1763,9.2122,9.283,9.3114,9.329,9.3468,9.3483,9.3483,9.3483,9.3483,9.3512,9.3586,9.3586,9.3857,9.4451,9.441,9.4107,9.3573,9.3726,9.3177,9.1914,9.2161,9.2196,9.2043,9.2181,9.2116,9.1925,9.4272,9.5424,9.5538,9.5869,9.6001,9.6001,9.6001,9.6001,9.5969,9.5656,9.5541,9.5475,9.5126,9.4638,9.4092,9.3508,9.3001,9.2507,9.2043,9.1827,9.1755,9.1755,9.1647,9.1502,9.1502,9.1502,9.1502,9.1502,9.1284,9.107,9.1343,9.1356,9.1192,9.0758,9.0327,8.991,8.9453,8.9215,8.9152,8.9298,8.9105,8.9001,8.9178,8.9348,8.9178,8.8474,8.7562,8.6672,8.5824,8.5845,8.5767,8.5468,8.5544,8.5594,8.5616,8.5296,8.4933,8.4573,8.491,8.4708,8.3875,8.3852,8.3372,8.2354,8.2354,8.2308,8.2192,8.2192,8.2192,6.5923,6.7693,6.9964,7.4813,7.8261,8.1061,8.325,8.4749,8.6094,8.7612,8.8626,8.9415,8.9908,9.0802,9.1599,9.2121,9.2089,9.2255,9.301,9.3111,9.323,9.3556,9.3924,9.3977,9.362,9.3924,9.3992,9.362,9.3453,9.3533,9.3923,9.3638,9.3305,9.2935,9.3287,9.3072,9.2255,9.2665,9.2864,9.2789,9.2708,9.2837,9.3202,9.4331,9.5264,9.6001,9.6001,9.6001,9.6001,9.6001,9.6001,9.5969,9.5574,9.5292,9.5076,9.435,9.3733,9.3124,9.235,9.1957,9.1755,9.1356,9.107,9.0936,9.0936,9.0679,9.0383,9.0383,9.0383,9.0383,9.0383,9.0234,9.0066,9.0066,9.0364,9.0531,9.0141,8.9779,8.9307,8.8636,8.8213,8.8019,8.8233,8.8006,8.8096,8.9,8.8582,8.8084,8.7856,8.7068,8.6429,8.6192,8.6046,8.5962,8.5867,8.5754,8.5635,8.5458,8.5247,8.4888,8.4437,8.464,8.4301,8.3349,8.3327,8.2932,8.2192,8.2192,8.2192,8.2192,8.2192,8.2076,6.6692,6.9141,7.2012,7.7207,7.9156,8.0699,8.4089,8.5394,8.6667,8.9359,9.0003,9.0181,9.0502,9.1359,9.2018,9.2156,9.2187,9.2389,9.301,9.3111,9.3264,9.3711,9.4214,9.4315,9.3857,9.4214,9.4218,9.3546,9.332,9.3175,9.3204,9.2736,9.243,9.2274,9.2858,9.3089,9.2902,9.3526,9.3825,9.3786,9.3674,9.3981,9.4676,9.4213,9.4743,9.6001,9.6001,9.6001,9.5985,9.5936,9.5903,9.5854,9.5342,9.4908,9.4486,9.3403,9.2705,9.2172,9.1143,9.0991,9.1138,9.0752,9.0383,9.0122,9.0122,8.9685,8.9205,8.9205,8.9205,8.9205,8.9205,8.9205,8.9217,8.9233,8.9757,9.0103,8.9584,8.9229,8.8785,8.7921,8.7256,8.6915,8.7065,8.7056,8.7367,8.8334,8.7328,8.657,8.6934,8.6536,8.6319,8.6661,8.6463,8.6276,8.6217,8.5963,8.5598,8.5135,8.5112,8.4865,8.4301,8.4279,8.3824,8.2816,8.2863,8.2678,8.2192,8.2122,8.2076,8.2076,8.1983,8.17,6.5356,6.9733,7.4517,7.8585,8.0486,8.2047,8.4553,8.6372,8.78,8.8921,8.9781,9.0857,9.2532,9.2791,9.2812,9.2946,9.2943,9.2976,9.3077,9.3111,9.3466,9.444,9.4079,9.3958,9.4518,9.4045,9.3569,9.3201,9.3394,9.3545,9.361,9.3811,9.3643,9.3089,9.3157,9.2697,9.1653,9.1853,9.192,9.1805,9.2522,9.3219,9.3981,9.4511,9.5206,9.6001,9.6001,9.6001,9.5969,9.5623,9.5475,9.5375,9.4384,9.3767,9.3334,9.2542,9.1791,9.1051,9.0536,9.0215,8.9948,8.9565,8.9395,8.9357,8.9357,8.9281,8.9205,8.9205,8.9205,8.9205,8.9205,8.9205,8.9233,8.9413,8.9535,8.9363,8.8365,8.8272,8.8144,8.7295,8.731,8.7481,8.7535,8.7978,8.8262,8.8029,8.8149,8.7943,8.7093,8.6934,8.6532,8.5635,8.5989,8.5974,8.5187,8.5559,8.5598,8.5135,8.5112,8.4708,8.3829,8.3784,8.3327,8.2308,8.2701,8.2678,8.2192,8.1723,8.1513,8.1489,8.1091,8.0856,6.7651,7.1394,7.4993,7.8579,8.0778,8.2754,8.524,8.6945,8.841,8.9747,9.0444,9.1186,9.2436,9.3008,9.3238,9.3118,9.3111,9.3111,9.3111,9.3111,9.3332,9.4015,9.4146,9.418,9.4079,9.4146,9.3985,9.3428,9.3186,9.3066,9.308,9.2884,9.2589,9.2309,9.2294,9.2057,9.1515,9.1585,9.1552,9.1515,9.2129,9.2895,9.3799,9.391,9.4485,9.5375,9.5375,9.5158,9.474,9.4588,9.4369,9.4113,9.3389,9.279,9.2136,9.1361,9.0752,9.0246,8.9835,8.9591,8.9433,8.9262,8.9205,8.9205,8.9205,8.9205,8.9205,8.9205,8.9205,8.9205,8.9205,8.9034,8.8904,8.8968,8.8897,8.8698,8.8238,8.8702,8.8857,8.7778,8.778,8.7925,8.7693,8.7965,8.8231,8.8295,8.8252,8.8028,8.7573,8.6967,8.655,8.6392,8.5866,8.55,8.5395,8.5412,8.5336,8.5112,8.4865,8.4392,8.3715,8.3418,8.2909,8.2215,8.2401,8.2285,8.1746,8.1513,8.1255,8.0997,8.0785,8.0526,6.9657,7.2268,7.4521,7.8118,8.0532,8.2773,8.5598,8.7218,8.8621,9.0499,9.1143,9.1588,9.2242,9.287,9.3261,9.3241,9.323,9.323,9.323,9.323,9.3387,9.3827,9.4214,9.4282,9.3924,9.4214,9.415,9.3502,9.3003,9.2641,9.2489,9.2015,9.1705,9.1611,9.1611,9.1611,9.1611,9.1611,9.1611,9.1611,9.2287,9.303,9.3783,9.3679,9.3981,9.4622,9.4622,9.4265,9.3631,9.3528,9.3267,9.2849,9.2368,9.1777,9.1088,9.0438,8.9966,8.9622,8.93,8.9205,8.9205,8.9205,8.9205,8.9205,8.9205,8.9205,8.9205,8.9205,8.9205,8.9186,8.9072,8.8935,8.883,8.8789,8.8668,8.8576,8.8627,8.9088,8.9267,8.8486,8.8257,8.8097,8.78,8.7824,8.8015,8.8381,8.8123,8.7864,8.7756,8.6998,8.663,8.6821,8.582,8.525,8.5592,8.5314,8.5045,8.4933,8.4595,8.4143,8.3533,8.3001,8.2493,8.2029,8.189,8.1676,8.1419,8.1162,8.0832,8.0479,8.036,8.0028,6.964,7.1445,7.3212,7.7397,7.9709,8.1913,8.5417,8.7036,8.8458,9.0728,9.1697,9.229,9.277,9.2658,9.2711,9.3455,9.3556,9.3556,9.3556,9.3556,9.3827,9.4552,9.4045,9.3924,9.4586,9.406,9.3502,9.3156,9.3077,9.2792,9.2168,9.2107,9.1937,9.1627,9.1611,9.1611,9.1611,9.1611,9.1611,9.1611,9.3037,9.3733,9.3832,9.4502,9.447,9.3871,9.3871,9.3614,9.3182,9.2829,9.2439,9.1979,9.127,9.0721,9.0327,8.9966,8.9584,8.9224,8.9205,8.9205,8.9205,8.9205,8.9205,8.9205,8.9205,8.9205,8.9205,8.9205,8.9205,8.911,8.8716,8.9021,8.943,8.9298,8.9259,8.9329,8.9555,8.8964,8.8547,8.9125,8.8507,8.7914,8.7892,8.79,8.7907,8.7929,8.7929,8.7756,8.7293,8.7199,8.6821,8.5947,8.5814,8.5592,8.518,8.5112,8.491,8.4482,8.4414,8.3956,8.3001,8.2493,8.1979,8.1466,8.0997,8.0974,8.1419,8.0428,7.9981,7.9933,7.9507,7.9004,6.9324,7.1223,7.2932,7.6064,7.8988,8.1572,8.3403,8.6007,8.8348,8.9434,9.1172,9.2492,9.256,9.29,9.3267,9.3552,9.3423,9.3349,9.3556,9.3409,9.3465,9.3928,9.3755,9.3687,9.3958,9.3755,9.3412,9.3011,9.3065,9.2861,9.2311,9.2176,9.2045,9.1937,9.172,9.1611,9.1611,9.1611,9.1502,9.1282,9.2301,9.2778,9.2778,9.2743,9.2878,9.3036,9.2311,9.2061,9.215,9.2039,9.1701,9.1302,9.0771,9.0339,8.9929,8.9565,8.9319,8.9205,8.9205,8.9205,8.9205,8.9205,8.9205,8.9205,8.9205,8.9205,8.9205,8.9205,8.9303,8.9359,8.9224,8.9264,8.9307,8.8988,8.9013,8.9126,8.9221,8.8991,8.8753,8.8832,8.8595,8.8252,8.7951,8.7907,8.7907,8.7907,8.7619,8.738,8.7228,8.6652,8.6175,8.5842,8.5531,8.5151,8.4708,8.4663,8.446,8.3989,8.3619,8.3161,8.2493,8.1956,8.1443,8.095,8.0123,7.9933,8.0455,7.9717,7.9241,7.8905,7.84,7.7891,6.8486,7.0249,7.193,7.4651,7.7195,7.9698,8.2267,8.4577,8.6647,8.8362,9.0383,9.1905,9.2105,9.2953,9.3556,9.3453,9.3245,9.3186,9.3394,9.3156,9.3066,9.3394,9.3423,9.3423,9.3423,9.3764,9.3727,9.3186,9.3237,9.307,9.2489,9.2146,9.1937,9.1937,9.1736,9.1611,9.1611,9.1392,9.1156,9.0934,9.1648,9.1916,9.1814,9.173,9.1989,9.2418,9.1172,9.0944,9.1401,9.1401,9.1059,9.0562,9.0284,8.996,8.9584,8.93,8.9205,8.9205,8.9205,8.9205,8.9205,8.9205,8.9205,8.9236,8.9482,8.9544,8.9536,8.9648,8.9766,8.981,8.9486,8.9428,8.9338,8.8891,8.8891,8.8908,8.8596,8.8711,8.8809,8.8635,8.8488,8.8274,8.7951,8.7778,8.7691,8.7691,8.7271,8.69,8.6769,8.6197,8.5754,8.5576,8.5291,8.4978,8.4663,8.4505,8.412,8.3487,8.2955,8.2378,8.1727,8.1185,8.0667,8.0171,7.9313,7.8849,7.8858,7.8681,7.8448,7.8135,7.7575,7.7062,0.0,0.0,0.0,7.3155,7.4287,7.6211,8.1964,8.2655,8.3317,8.7548,8.9434,9.0556,9.1497,9.2745,9.3483,9.3103,9.3077,9.3077,9.3126,9.2822,9.2732,9.3048,9.3126,9.3111,9.3111,9.4039,9.4353,9.3605,9.3615,9.3366,9.2611,9.195,9.1627,9.1611,9.1611,9.1596,9.158,9.0934,9.0583,9.0551,9.1235,9.1346,9.0987,9.173,9.2061,9.1993,9.0554,9.0321,9.0986,9.0986,9.0525,8.9847,8.9829,8.9565,8.9224,8.9205,8.9205,8.9205,8.9205,8.9205,8.9205,8.9217,8.9217,8.934,9.0017,9.0213,9.0259,9.0526,9.0602,9.0405,8.957,8.9528,8.9599,8.9115,8.8991,8.8751,8.782,8.8127,8.8595,8.8595,8.8209,8.7907,8.7886,8.7489,8.7206,8.7184,8.6769,8.6307,8.5865,8.5798,8.5598,8.5157,8.509,8.5067,8.5067,8.4618,8.3888,8.2932,8.2424,8.1703,8.0691,8.0147,7.9597,7.9045,7.8593,7.7827,7.6779,7.7294,7.7526,7.7526,7.6963,7.6448,6.6915,0.0,0.0,0.0,0.0,0.0,7.7366,7.9889,8.2801,8.6311,8.8499,9.0136,9.1232,9.2614,9.3145,9.1674,9.237,9.3201,9.3423,9.3186,9.3096,9.3423,9.326,9.3111,9.3111,9.3144,9.2943,9.2426,9.2707,9.2653,9.2125,9.2021,9.186,9.1627,9.1611,9.1376,9.0886,9.0695,9.0212,8.9443,9.0362,9.0626,9.0309,9.0978,9.1461,9.1696,9.0998,9.0811,9.0954,9.0415,9.04,9.0599,9.0035,8.9735,8.9603,8.9319,8.9205,8.9205,8.9205,8.9205,8.921,8.9375,8.9644,8.999,9.0376,9.0493,9.0504,9.057,9.0502,9.0356,9.0288,9.0281,9.0208,8.9627,8.9347,8.9011,8.8266,8.8106,8.8101,8.8101,8.7994,8.7799,8.7445,8.7293,8.7097,8.6747,8.6285,8.5953,8.582,8.5487,8.5247,8.5112,8.4798,8.446,8.4125,8.3299,8.2512,8.1863,8.1372,8.0644,7.9574,7.9383,7.8721,7.7468,7.7297,7.6905,7.6224,7.6367,7.6222,7.5843,7.5359,7.5062,6.6995,6.7913,6.907,6.9908,0.0,0.0,7.607,7.8344,8.0926,8.4305,8.6452,8.7946,8.8736,9.0036,9.0606,8.9509,9.0074,9.1325,9.3124,9.2722,9.2356,9.267,9.2162,9.1901,9.2202,9.2459,9.2504,9.22,9.2599,9.2532,9.1809,9.1858,9.1813,9.1627,9.1345,9.0998,9.0599,9.0033,8.9344,8.8559,8.9147,8.922,8.8896,8.9581,9.0167,9.0588,9.0099,9.0196,9.0697,8.9775,8.9826,9.0432,8.9997,8.9716,8.9527,8.93,8.9205,8.9205,8.9205,8.9205,8.9191,8.9137,8.9463,8.9946,9.021,9.0518,9.0733,9.0878,9.0648,9.0407,9.0362,9.0347,9.0175,8.9433,8.9108,8.884,8.8247,8.8011,8.7907,8.7907,8.7907,8.7756,8.7293,8.7031,8.6747,8.6285,8.5798,8.5509,8.5509,8.5269,8.5112,8.5112,8.4685,8.4211,8.3711,8.277,8.177,8.0832,8.0313,7.9576,7.852,7.8472,7.7954,7.6823,7.6787,7.6322,7.5356,7.5607,7.5285,7.4541,7.4239,7.411,6.7343,6.7767,6.9053,7.0205,7.0871,0.0,7.6309,7.7372,7.8492,8.1891,8.3691,8.4805,8.5181,8.6216,8.6921,8.671,8.6893,8.8366,9.2118,9.1536,9.0883,9.1312,9.0452,9.0123,9.0811,9.1687,9.2289,9.2356,9.2781,9.262,9.166,9.1677,9.1646,9.1502,9.0984,9.06,9.0374,8.9145,8.8288,8.7862,8.7932,8.7797,8.7498,8.8221,8.889,8.9378,8.8853,8.9254,9.0253,8.9227,8.9221,8.981,8.9753,8.9527,8.9205,8.9205,8.9205,8.9205,8.9205,8.9167,8.9072,8.8751,8.9005,8.9499,8.9836,9.0354,9.087,9.1138,9.0887,9.0451,9.0097,8.9971,8.9719,8.8894,8.8638,8.8488,8.808,8.7907,8.7821,8.7821,8.7821,8.7691,8.7206,8.6725,8.6263,8.5798,8.5353,8.5112,8.5112,8.5045,8.5023,8.5023,8.4505,8.3956,8.3496,8.2535,8.1326,7.9909,7.9311,7.8568,7.7552,7.7527,7.7208,7.6619,7.6619,7.5881,7.4411,7.4837,7.4587,7.3707,7.3632,7.3632,6.7856,6.8338,6.9133,6.8606,7.0791,0.0,7.3,7.5056,7.7678,8.022,8.144,8.2372,8.3464,8.448,8.4591,8.3061,8.4276,8.6453,8.9393,8.9281,8.9328,9.0493,8.991,8.9595,9.0075,9.0078,9.0255,9.0886,9.1537,9.1806,9.1611,9.2174,9.1955,9.0823,9.122,9.0652,8.8945,8.8643,8.8169,8.7484,8.8054,8.8404,8.863,8.9627,9.012,9.0195,9.0384,9.0257,8.9891,8.9692,8.9686,8.9791,8.9452,8.9262,8.9205,8.9205,8.9205,8.9205,8.9205,8.8996,8.8732,8.8806,8.8962,8.9248,8.9993,9.0325,9.0465,9.0686,9.0431,9.0097,9.0013,8.9719,8.9403,8.9213,8.8873,8.8574,8.8488,8.7857,8.7337,8.7337,8.7337,8.7184,8.6703,8.6241,8.5776,8.5314,8.5157,8.5112,8.5112,8.4775,8.455,8.455,8.3386,8.2609,8.2466,8.1162,8.0052,7.9287,7.8809,7.8061,7.7014,7.6965,7.6517,7.5524,7.5524,7.4937,7.3758,7.3469,7.3644,7.4311,7.3833,7.3859,6.9087,6.9206,6.9996,7.0164,7.1567,0.0,0.0,7.4737,7.6488,7.8833,7.9268,7.9391,7.9777,8.0235,8.0075,7.8592,7.971,8.137,8.3219,8.5378,8.7245,8.8413,8.7658,8.7442,8.8516,8.8343,8.8848,9.037,9.0851,9.1198,9.1578,9.2307,9.2137,9.0903,9.1044,9.0371,8.8761,8.822,8.7656,8.7085,8.7445,8.7704,8.7872,8.8563,8.9087,8.9378,8.9721,8.973,8.9508,8.9508,8.9508,8.9489,8.9281,8.9205,8.9205,8.9205,8.9205,8.9167,8.8977,8.8889,8.8877,8.8665,8.8739,8.903,8.9389,8.9728,9.0037,9.0252,9.016,8.995,8.9719,8.9318,8.8958,8.8958,8.8595,8.8209,8.7943,8.7532,8.714,8.69,8.6659,8.6439,8.6197,8.5953,8.5642,8.518,8.491,8.4753,8.4753,8.4347,8.3938,8.366,8.2793,8.1913,8.1115,8.01,7.9047,7.8037,7.7721,7.7259,7.6474,7.6449,7.62,7.5653,7.5135,7.4714,7.4461,7.3916,7.379,7.4035,7.4035,7.4035,7.0972,7.0815,7.1591,7.2449,7.2758,7.3193,0.0,0.0,0.0,7.7087,7.6904,7.63,7.5926,7.5674,7.5184,7.4298,7.4946,7.5831,7.6642,8.0334,8.3564,8.5267,8.462,8.4612,8.6123,8.6231,8.7194,8.9549,8.9735,9.0148,9.0993,9.1848,9.1895,9.102,9.0618,8.9902,8.8886,8.7891,8.7255,8.6893,8.6823,8.6847,8.6933,8.732,8.7827,8.8421,8.8743,8.9065,8.9319,8.9224,8.9205,8.9205,8.9205,8.9205,8.9205,8.9205,8.9148,8.9053,8.8793,8.8755,8.8751,8.8367,8.8522,8.8844,8.8736,8.9252,8.9888,9.0073,9.0055,8.9908,8.9551,8.9022,8.8616,8.8616,8.8252,8.7778,8.7293,8.714,8.6922,8.6461,8.5998,8.5687,8.5798,8.5731,8.5509,8.5045,8.464,8.4347,8.4143,8.3688,8.3161,8.2535,8.1933,8.1068,7.9719,7.9121,7.8254,7.6892,7.6794,7.6597,7.6129,7.6005,7.5956,7.5956,7.5111,7.4812,7.5161,7.4937,7.4487,7.3934,7.4311,7.4236,7.3973,7.401,7.4377,7.3421,7.4214,7.483,7.3346,0.0,7.4722,7.4158,0.0,7.3555,7.3511,0.0,0.0,7.1124,7.1723,7.2338,7.2647,7.3875,7.6341,8.0608,8.1208,8.1588,8.2422,8.308,8.4446,8.6867,8.7041,8.7659,8.9038,9.0231,9.0766,9.0567,8.9929,8.9261,8.8485,8.7748,8.7394,8.7342,8.6963,8.6974,8.7248,8.7912,8.8398,8.8768,8.9395,8.9698,8.9716,8.9357,8.9205,8.9205,8.9205,8.9205,8.9205,8.9205,8.8965,8.8697,8.9034,8.8409,8.7555,8.785,8.8303,8.8715,8.8704,8.9561,9.0507,9.0526,9.0285,8.9992,8.9929,8.9276,8.8616,8.8616,8.8252,8.7778,8.7293,8.6878,8.6439,8.5975,8.5487,8.5314,8.5731,8.5442,8.5023,8.455,8.4437,8.407,8.318,8.2655,8.1979,8.097,8.0026,7.9217,7.8617,7.8061,7.7503,7.6843,7.6794,7.6597,7.6129,7.5634,7.541,7.541,7.5286,7.5012,7.4587,7.5485,7.5634,7.5086,7.4687,7.4461,7.6302,7.6333,7.6503,7.5568,7.5699,7.5599,7.3767,7.3357,7.3297,7.2878,0.0,0.0,0.0,0.0,0.0,0.0,6.9122,6.9608,6.9201,7.0381,7.2768,7.6897,7.7389,7.7985,7.9617,8.0539,8.1913,8.4102,8.4386,8.5519,8.7969,8.9039,8.9766,9.0212,8.9751,8.9035,8.8135,8.7642,8.729,8.7032,8.7134,8.698,8.6758,8.7832,8.8237,8.8229,8.9071,8.9452,8.9452,8.9262,8.9205,8.9205,8.9205,8.9205,8.9167,8.8957,8.8736,8.8544,8.8216,8.7906,8.7683,8.8017,8.8657,8.9282,8.9282,8.9671,9.0098,9.0207,9.0139,8.995,8.9677,8.9106,8.8616,8.8616,8.8252,8.7713,8.6944,8.6637,8.6263,8.5531,8.4995,8.4775,8.495,8.4815,8.4527,8.4052,8.3505,8.2978,8.2563,8.1536,8.0573,7.9812,7.9121,7.8351,7.7552,7.7283,7.6916,7.6425,7.64,7.6302,7.6104,7.5584,7.546,7.5758,7.546,7.5335,7.5435,7.5881,7.5807,7.5286,7.5061,7.4787,7.908,7.9097,7.8957,7.7741,7.706,7.6186,7.4177,7.3189,7.2637,7.2465,7.1924,0.0,0.0,0.0,6.8131,6.7003,0.0,6.7291,6.6471,6.7463,6.9608,7.3188,7.3886,7.4897,7.6888,7.7398,7.8602,8.1028,8.1213,8.261,8.5868,8.6861,8.7967,8.935,8.8909,8.8449,8.8062,8.7596,8.7273,8.6977,8.7064,8.6836,8.6321,8.749,8.7898,8.7777,8.8759,8.9262,8.9357,8.9243,8.9205,8.9186,8.9091,8.9053,8.9015,8.8697,8.8448,8.8177,8.7653,8.7685,8.8055,8.8336,8.8976,8.9722,8.9722,8.9821,8.9957,8.999,9.0013,8.9908,8.9424,8.8958,8.8574,8.8437,8.8029,8.7445,8.6505,8.6307,8.602,8.509,8.464,8.4279,8.3865,8.3888,8.3824,8.3372,8.2539,8.1863,8.1606,8.0479,7.9433,7.8761,7.8254,7.7575,7.6695,7.6622,7.6474,7.6129,7.6255,7.6255,7.6104,7.5584,7.5534,7.6079,7.5559,7.5559,7.6104,7.5956,7.5683,7.5311,7.5311,7.4912,8.2822,8.2822,8.2051,7.9617,7.8297,7.6834,7.4133,7.3648,7.3546,7.2833,7.2878,7.2673,7.1469,7.006,6.8582,0.0,6.6248,0.0,0.0,6.4613,6.5958,6.919,7.1071,7.2665,7.4193,7.3232,7.3957,7.7399,7.7199,7.8425,8.1897,8.3048,8.4863,8.7692,8.6949,8.7098,8.8374,8.7728,8.7412,8.7377,8.6678,8.6325,8.6303,8.6944,8.7433,8.7845,8.8809,8.9433,8.9753,8.9357,8.9205,8.9167,8.8755,8.8621,8.8621,8.8601,8.8061,8.7398,8.7759,8.8046,8.8326,8.8603,8.9139,8.9722,8.9722,9.01,9.0484,9.0118,9.0013,8.9908,8.9424,8.8958,8.848,8.8022,8.7546,8.6988,8.6042,8.582,8.5553,8.459,8.4414,8.3933,8.2516,8.2655,8.2793,8.2331,8.177,8.1068,8.01,7.9478,7.8761,7.7745,7.7186,7.6646,7.6153,7.6129,7.6129,7.6104,7.6582,7.6632,7.6129,7.5584,7.5534,7.6079,7.5559,7.5559,7.6104,7.5559,7.5335,7.5311,7.5311,7.4687,8.5052,8.5309,8.4805,8.2477,8.1494,8.042,7.7789,7.6896,7.6142,7.4559,7.4729,7.4366,7.1774,7.0083,0.0,0.0,0.0,6.4576,0.0,6.2886,6.3411,6.5642,6.7732,6.9226,6.9732,7.0598,7.1814,7.3456,7.4824,7.678,7.9582,8.1074,8.3219,8.6148,8.6075,8.6559,8.771,8.7963,8.7592,8.6678,8.7346,8.7159,8.622,8.7385,8.7976,8.8118,8.8862,8.9281,8.9395,8.9262,8.9205,8.9167,8.8755,8.8428,8.8089,8.7848,8.7827,8.8024,8.8306,8.8777,8.9257,8.9322,8.9789,9.0289,9.0289,9.0252,9.018,9.0034,8.9782,8.9445,8.8979,8.8723,8.8488,8.8008,8.7532,8.6944,8.602,8.5553,8.5067,8.412,8.3391,8.2793,8.2285,8.1193,8.0569,8.1108,8.0442,7.9638,7.8927,7.8093,7.7327,7.6625,7.6419,7.6277,7.6104,7.6104,7.6104,7.6104,7.628,7.6305,7.6104,7.5931,7.5906,7.6104,7.5906,7.5906,7.6104,7.5559,7.4938,7.4243,7.4189,7.3959,8.6953,8.7398,8.7104,8.4706,8.3935,8.298,8.0182,7.945,7.8865,7.7118,7.7447,7.7253,7.4679,7.2338,0.0,0.0,0.0,0.0,0.0,6.1771,6.1887,6.2955,6.4926,6.6541,6.7407,6.8205,6.9508,7.1597,7.2541,7.4373,7.7533,7.9247,8.1472,8.44,8.5243,8.6193,8.738,8.7697,8.7546,8.7041,8.7564,8.7342,8.6578,8.7873,8.8248,8.79,8.8956,8.9338,8.9205,8.9205,8.9129,8.8927,8.8524,8.807,8.7642,8.7398,8.7623,8.8176,8.8826,8.9345,8.9733,8.9941,9.0259,9.0597,9.0597,9.0327,8.9971,8.9803,8.9424,8.8886,8.8266,8.8094,8.7943,8.7293,8.6791,8.6241,8.5464,8.4927,8.4301,8.3372,8.2632,8.1948,8.1224,7.9988,7.9315,8.0015,7.9073,7.8192,7.8043,7.7138,7.647,7.6309,7.6173,7.6104,7.6104,7.6255,7.6305,7.6129,7.628,7.6305,7.6104,7.6104,7.6104,7.6104,7.5906,7.5807,7.5807,7.5061,7.434,7.3671,7.3411,7.3328]},{"header":{"parameterUnit":"m.s-1","parameterCategory":1,"la1":30.6,"la2":29.2853,"lo1":-89.7004,"lo2":-87.6739,"dx":0.0162,"dy":0.0183,"nx":112,"ny":82,"refTime":"2022-12-21T06:00:00:Z","depth":0,"parameterNumber":3,"parameterNumberName":"V-component_of_WINDS"},"data":[0.0,0.0,0.0,0.0,0.0,0.0,0.0,0.0,0.0,0.0,0.0,0.0,0.0,0.0,0.0,0.0,0.0,0.0,0.0,0.0,0.0,0.0,0.0,0.0,0.0,0.0,0.0,0.0,0.0,0.0,0.0,0.0,0.0,0.0,0.0,0.0,0.0,0.0,0.0,0.0,0.0,0.0,0.0,0.0,0.0,0.0,0.0,0.0,0.0,0.0,0.0,0.0,0.0,0.0,0.0,0.0,0.0,0.0,0.0,0.0,0.0,0.0,0.0,0.0,0.0,0.0,0.0,0.0,0.0,0.0,0.0,0.0,0.0,0.0,0.0,0.0,0.0,0.0,0.0,0.0,0.0,0.0,0.0,0.0,0.0,0.0,0.0,0.0,0.0,0.0,2.6224,2.8431,3.1913,3.4308,3.4906,3.4621,3.3458,3.1299,0.0,0.0,0.0,0.0,0.0,0.0,0.0,0.0,0.0,0.0,0.0,0.0,0.0,0.0,0.0,0.0,0.0,0.0,0.0,0.0,0.0,0.0,0.0,0.0,0.0,0.0,0.0,0.0,0.0,0.0,0.0,0.0,0.0,0.0,0.0,0.0,0.0,0.0,0.0,0.0,0.0,0.0,0.0,0.0,0.0,0.0,0.0,0.0,0.0,0.0,0.0,0.0,0.0,0.0,0.0,0.0,0.0,0.0,0.0,0.0,0.0,0.0,0.0,0.0,0.0,0.0,0.0,0.0,0.0,0.0,0.0,0.0,0.0,0.0,0.0,0.0,0.0,0.0,0.0,0.0,0.0,0.0,0.0,0.0,0.0,0.0,0.0,0.0,0.0,0.0,0.0,0.0,0.0,0.0,0.0,0.0,0.0,0.0,0.0,0.0,0.0,0.0,0.0,0.0,2.8213,3.3389,3.4476,3.5195,3.6062,3.5563,3.4155,3.1589,0.0,0.0,0.0,0.0,0.0,0.0,0.0,0.0,0.0,0.0,0.0,0.0,0.0,0.0,0.0,0.0,0.0,0.0,0.0,0.0,0.0,0.0,0.0,0.0,0.0,0.0,0.0,0.0,0.0,0.0,0.0,0.0,0.0,0.0,0.0,0.0,0.0,0.0,0.0,0.0,0.0,0.0,0.0,0.0,0.0,0.0,0.0,0.0,0.0,0.0,0.0,0.0,0.0,0.0,0.0,0.0,0.0,0.0,0.0,0.0,0.0,0.0,0.0,0.0,0.0,0.0,0.0,0.0,0.0,0.0,0.0,0.0,0.0,0.0,0.0,0.0,0.0,0.0,0.0,0.0,0.0,0.0,0.0,0.0,0.0,0.0,0.0,0.0,0.0,0.0,0.0,0.0,0.0,0.0,0.0,0.0,0.0,0.0,0.0,0.0,0.0,0.0,0.0,2.8194,3.1527,3.5605,3.6414,3.6878,3.7353,3.6531,3.5073,3.2885,3.0651,0.0,0.0,0.0,0.0,0.0,0.0,0.0,0.0,0.0,0.0,0.0,0.0,0.0,0.0,0.0,0.0,0.0,0.0,0.0,0.0,0.0,0.0,0.0,0.0,0.0,0.0,0.0,0.0,0.0,0.0,0.0,0.0,0.0,0.0,0.0,0.0,0.0,0.0,0.0,0.0,0.0,0.0,0.0,0.0,0.0,0.0,0.0,0.0,0.0,0.0,0.0,0.0,0.0,0.0,0.0,0.0,0.0,0.0,0.0,0.0,0.0,0.0,0.0,0.0,0.0,0.0,0.0,0.0,0.0,0.0,0.0,0.0,0.0,0.0,0.0,0.0,0.0,0.0,0.0,0.0,0.0,0.0,0.0,0.0,0.0,0.0,0.0,0.0,0.0,0.0,0.0,0.0,0.0,0.0,0.0,0.0,0.0,0.0,0.0,0.0,0.0,0.0,3.1803,3.4208,3.6811,3.7582,3.8025,3.8293,3.7043,3.5507,3.378,3.1148,0.0,0.0,0.0,0.0,0.0,0.0,0.0,0.0,0.0,0.0,0.0,0.0,0.0,0.0,0.0,0.0,0.0,0.0,0.0,0.0,0.0,0.0,0.0,0.0,0.0,0.0,0.0,0.0,0.0,0.0,0.0,0.0,0.0,0.0,0.0,0.0,0.0,0.0,0.0,0.0,0.0,0.0,0.0,0.0,0.0,0.0,0.0,0.0,0.0,0.0,0.0,0.0,0.0,0.0,0.0,0.0,0.0,0.0,0.0,0.0,0.0,0.0,0.0,0.0,0.0,0.0,0.0,0.0,0.0,0.0,0.0,0.0,0.0,0.0,0.0,0.0,0.0,0.0,0.0,0.0,0.0,0.0,0.0,0.0,0.0,0.0,0.0,0.0,0.0,0.0,0.0,0.0,0.0,0.0,0.0,0.0,0.0,0.0,0.0,0.0,0.0,0.0,3.2438,3.4878,3.7616,3.7574,3.7724,3.8596,3.6703,3.4869,3.3426,3.0532,0.0,0.0,0.0,0.0,0.0,0.0,0.0,0.0,0.0,0.0,0.0,0.0,0.0,0.0,0.0,0.0,0.0,0.0,0.0,0.0,0.0,0.0,0.0,0.0,0.0,0.0,0.0,0.0,0.0,0.0,0.0,0.0,0.0,0.0,0.0,0.0,0.0,0.0,0.0,0.0,0.0,0.0,0.0,0.0,0.0,0.0,0.0,0.0,0.0,0.0,0.0,0.0,0.0,0.0,0.0,0.0,0.0,0.0,0.0,0.0,0.0,0.0,0.0,0.0,0.0,0.0,0.0,0.0,0.0,0.0,0.0,0.0,0.0,0.0,0.0,0.0,0.0,0.0,0.0,0.0,0.0,0.0,0.0,0.0,0.0,0.0,0.0,0.0,0.0,0.0,0.0,0.0,0.0,0.0,0.0,0.0,0.0,0.0,0.0,0.0,0.0,0.0,3.4509,3.7181,3.8881,3.9647,4.0207,4.0645,3.9006,3.6864,3.4273,0.0,0.0,0.0,0.0,0.0,0.0,0.0,0.0,0.0,0.0,0.0,0.0,0.0,0.0,0.0,0.0,0.0,0.0,0.0,0.0,0.0,0.0,0.0,0.0,0.0,0.0,0.0,0.0,0.0,0.0,0.0,0.0,0.0,0.0,0.0,0.0,0.0,0.0,0.0,0.0,0.0,0.0,0.0,0.0,0.0,0.0,0.0,0.0,0.0,0.0,0.0,0.0,0.0,0.0,0.0,0.0,0.0,0.0,0.0,0.0,0.0,0.0,0.0,0.0,0.0,0.0,0.0,0.0,0.0,0.0,0.0,0.0,0.0,0.0,0.0,0.0,0.0,0.0,0.0,0.0,0.0,0.0,0.0,0.0,0.0,0.0,0.0,0.0,0.0,0.0,0.0,0.0,0.0,0.0,0.0,0.0,0.0,0.0,0.0,0.0,0.0,0.0,3.2847,3.6199,3.8875,3.9985,4.0791,4.1304,4.1413,3.9756,3.7518,3.471,0.0,0.0,0.0,0.0,0.0,0.0,0.0,0.0,0.0,0.0,0.0,0.0,0.0,0.0,0.0,0.0,0.0,0.0,0.0,0.0,0.0,0.0,0.0,0.0,0.0,0.0,0.0,0.0,0.0,0.0,0.0,0.0,0.0,0.0,0.0,0.0,0.0,0.0,0.0,0.0,0.0,0.0,0.0,0.0,0.0,0.0,0.0,0.0,0.0,0.0,0.0,0.0,0.0,0.0,0.0,0.0,0.0,0.0,0.0,0.0,0.0,0.0,0.0,0.0,0.0,0.0,0.0,0.0,0.0,0.0,0.0,0.0,0.0,0.0,0.0,0.0,0.0,0.0,0.0,0.0,0.0,0.0,0.0,0.0,0.0,0.0,0.0,0.0,0.0,0.0,0.0,0.0,0.0,0.0,0.0,0.0,0.0,0.0,0.0,0.0,0.0,0.0,3.4217,3.7233,3.9692,4.0892,4.0607,4.0364,4.0444,3.8349,3.6297,0.0,0.0,0.0,0.0,0.0,0.0,0.0,0.0,0.0,0.0,0.0,0.0,0.0,0.0,0.0,0.0,0.0,0.0,0.0,0.0,0.0,0.0,0.0,0.0,0.0,0.0,0.0,0.0,0.0,0.0,0.0,0.0,0.0,0.0,0.0,0.0,0.0,0.0,0.0,0.0,0.0,0.0,0.0,0.0,0.0,0.0,0.0,0.0,0.0,0.0,0.0,0.0,0.0,0.0,0.0,0.0,0.0,0.0,0.0,0.0,0.0,0.0,0.0,0.0,0.0,0.0,0.0,0.0,0.0,0.0,0.0,0.0,0.0,0.0,0.0,0.0,0.0,0.0,0.0,0.0,0.0,0.0,0.0,0.0,0.0,0.0,0.0,0.0,0.0,0.0,0.0,0.0,0.0,0.0,0.0,0.0,0.0,0.0,0.0,0.0,0.0,0.0,0.0,3.5224,3.8981,4.1672,4.226,4.2765,4.3218,4.3686,4.1147,3.8937,3.7525,0.0,0.0,0.0,0.0,0.0,0.0,0.0,0.0,0.0,0.0,0.0,0.0,0.0,0.0,0.0,0.0,0.0,0.0,0.0,0.0,0.0,0.0,0.0,0.0,0.0,0.0,0.0,0.0,0.0,0.0,0.0,0.0,0.0,0.0,0.0,0.0,0.0,0.0,0.0,0.0,0.0,0.0,0.0,0.0,0.0,0.0,0.0,0.0,0.0,0.0,0.0,0.0,0.0,0.0,0.0,0.0,0.0,0.0,0.0,0.0,0.0,0.0,0.0,0.0,0.0,0.0,0.0,0.0,0.0,0.0,0.0,0.0,0.0,0.0,0.0,0.0,0.0,0.0,0.0,0.0,0.0,0.0,0.0,0.0,0.0,0.0,0.0,0.0,0.0,0.0,0.0,0.0,0.0,0.0,0.0,0.0,0.0,0.0,0.0,0.0,0.0,0.0,3.5972,3.9896,4.2775,4.3369,4.39,4.4364,4.4786,4.273,4.0674,3.9012,0.0,0.0,0.0,0.0,0.0,0.0,0.0,0.0,0.0,0.0,0.0,0.0,0.0,0.0,0.0,0.0,0.0,0.0,0.0,0.0,0.0,0.0,0.0,0.0,0.0,0.0,0.0,0.0,0.0,0.0,0.0,0.0,0.0,0.0,0.0,0.0,0.0,0.0,0.0,0.0,0.0,0.0,0.0,0.0,0.0,0.0,0.0,0.0,0.0,0.0,0.0,0.0,0.0,0.0,0.0,0.0,0.0,0.0,0.0,0.0,0.0,0.0,0.0,0.0,0.0,0.0,0.0,0.0,0.0,0.0,0.0,0.0,0.0,0.0,0.0,0.0,0.0,0.0,0.0,0.0,0.0,0.0,0.0,0.0,0.0,0.0,0.0,0.0,0.0,0.0,0.0,0.0,0.0,0.0,0.0,0.0,0.0,0.0,0.0,0.0,0.0,0.0,3.6614,4.0475,4.3427,4.4333,4.4471,4.4513,4.4578,4.3458,4.1782,3.9606,0.0,0.0,0.0,0.0,0.0,0.0,0.0,0.0,0.0,0.0,0.0,0.0,0.0,0.0,0.0,0.0,0.0,0.0,0.0,0.0,0.0,0.0,0.0,0.0,0.0,0.0,0.0,0.0,0.0,0.0,0.0,0.0,0.0,0.0,0.0,0.0,0.0,0.0,0.0,0.0,0.0,0.0,0.0,0.0,0.0,0.0,0.0,0.0,0.0,0.0,0.0,0.0,0.0,0.0,0.0,0.0,0.0,0.0,0.0,0.0,2.473,2.3714,0.0,0.0,0.0,0.0,0.0,0.0,0.0,0.0,0.0,0.0,0.0,0.0,0.0,0.0,0.0,0.0,0.0,0.0,0.0,0.0,0.0,0.0,0.0,0.0,0.0,0.0,0.0,0.0,0.0,0.0,0.0,0.0,0.0,0.0,0.0,0.0,0.0,0.0,0.0,0.0,3.8218,4.24,4.5459,4.623,4.6428,4.6374,4.6069,4.4614,4.3085,4.1646,3.9428,0.0,0.0,0.0,0.0,0.0,0.0,0.0,0.0,0.0,0.0,0.0,0.0,0.0,0.0,0.0,0.0,0.0,0.0,0.0,0.0,0.0,0.0,0.0,0.0,0.0,0.0,0.0,0.0,0.0,0.0,0.0,0.0,0.0,0.0,0.0,0.0,0.0,0.0,0.0,0.0,0.0,0.0,0.0,0.0,0.0,0.0,0.0,0.0,0.0,0.0,0.0,0.0,0.0,0.0,0.0,0.0,0.0,0.0,0.0,2.7679,2.6459,0.0,0.0,0.0,0.0,0.0,0.0,0.0,0.0,0.0,0.0,0.0,0.0,0.0,0.0,0.0,0.0,0.0,0.0,0.0,0.0,0.0,0.0,0.0,0.0,0.0,0.0,0.0,0.0,0.0,0.0,0.0,0.0,0.0,0.0,0.0,0.0,0.0,0.0,0.0,0.0,3.8199,4.2813,4.608,4.6467,4.6814,4.701,4.7075,4.5744,4.4475,4.3474,4.1293,0.0,0.0,0.0,0.0,0.0,0.0,0.0,0.0,0.0,0.0,0.0,0.0,0.0,0.0,0.0,0.0,0.0,0.0,0.0,0.0,0.0,0.0,0.0,0.0,0.0,0.0,0.0,0.0,0.0,0.0,0.0,0.0,0.0,0.0,0.0,0.0,0.0,0.0,0.0,0.0,0.0,0.0,0.0,0.0,0.0,0.0,0.0,0.0,0.0,0.0,0.0,0.0,0.0,3.0961,3.1724,3.2898,3.2978,3.2978,3.2782,3.0811,2.9708,2.9226,2.7764,0.0,0.0,0.0,0.0,0.0,0.0,0.0,0.0,0.0,0.0,0.0,0.0,0.0,0.0,0.0,0.0,0.0,0.0,0.0,0.0,0.0,0.0,2.9373,2.9968,3.143,3.1925,2.909,0.0,0.0,0.0,0.0,0.0,0.0,0.0,0.0,0.0,0.0,0.0,3.8372,4.3179,4.654,4.6665,4.7027,4.7423,4.7766,4.6762,4.5739,4.4861,4.2988,4.1185,0.0,0.0,0.0,0.0,0.0,0.0,0.0,0.0,0.0,0.0,0.0,0.0,0.0,0.0,0.0,0.0,0.0,0.0,0.0,0.0,0.0,0.0,0.0,0.0,0.0,0.0,0.0,0.0,0.0,0.0,0.0,0.0,2.14,2.223,0.0,0.0,0.0,0.0,0.0,0.0,0.0,0.0,0.0,0.0,0.0,0.0,0.0,2.8529,3.0046,3.1542,3.2909,3.4064,3.4113,3.4359,3.483,3.5243,3.5222,3.4835,3.4625,0.0,3.1324,2.9353,0.0,0.0,0.0,0.0,0.0,0.0,0.0,0.0,0.0,0.0,0.0,0.0,0.0,0.0,0.0,0.0,0.0,0.0,0.0,0.0,0.0,0.0,3.095,3.2918,3.3584,3.3673,3.3197,3.2004,3.0713,2.9722,3.0074,3.0124,0.0,0.0,0.0,0.0,0.0,0.0,4.1378,4.5341,4.827,4.8982,4.884,4.8589,4.8262,4.7504,4.6497,4.5283,4.3928,4.2416,4.0735,3.9405,0.0,0.0,0.0,0.0,0.0,0.0,0.0,0.0,0.0,0.0,0.0,0.0,0.0,0.0,0.0,0.0,0.0,0.0,0.0,0.0,0.0,0.0,0.0,0.0,0.0,0.0,0.0,0.0,0.0,2.159,2.2979,2.4847,2.3827,2.3397,0.0,0.0,0.0,0.0,0.0,0.0,0.0,0.0,0.0,2.9045,3.0663,3.2046,3.3156,3.4029,3.4944,3.5891,3.5891,3.6215,3.6834,3.6747,3.6557,3.6367,3.6247,3.5501,3.4214,3.2093,3.1325,3.1235,0.0,0.0,0.0,0.0,2.6262,2.6774,2.7048,2.7287,2.7498,2.7806,0.0,0.0,0.0,0.0,0.0,0.0,0.0,2.8605,3.05,3.2043,3.3421,3.4625,3.5248,3.5521,3.5323,3.5271,3.467,3.2654,3.3058,3.3259,3.1814,3.3106,0.0,0.0,0.0,4.1974,4.3023,4.6572,4.901,4.9053,4.8983,4.8859,4.8659,4.7931,4.7059,4.6035,4.5019,4.3829,4.243,4.0999,3.9565,0.0,0.0,0.0,0.0,0.0,0.0,0.0,0.0,0.0,0.0,0.0,0.0,0.0,0.0,0.0,0.0,0.0,0.0,0.0,0.0,0.0,0.0,0.0,0.0,0.0,0.0,0.0,0.0,2.3337,2.4827,2.7049,2.6075,2.5725,0.0,0.0,0.0,0.0,0.0,0.0,2.7492,2.9137,3.0809,3.247,3.409,3.5189,3.5799,3.6287,3.6883,3.7593,3.7593,3.7941,3.8557,3.8271,3.8092,3.7963,3.7587,3.7226,3.6725,3.4558,3.3468,3.2978,3.1124,3.0339,3.0131,2.9225,2.9359,3.0023,3.0229,3.0691,3.1219,3.1328,3.0986,3.043,2.9686,0.0,0.0,0.0,0.0,3.2017,3.304,3.4414,3.5653,3.6195,3.6755,3.7195,3.7067,3.7871,3.7889,3.5403,3.5838,3.6252,3.5035,3.6332,0.0,3.7845,4.1343,4.4211,4.4963,4.7745,4.9596,4.9432,4.9282,4.9285,4.9451,4.8453,4.7607,4.7053,4.5792,4.4716,4.396,4.2375,4.1137,4.0404,0.0,0.0,0.0,0.0,0.0,0.0,0.0,0.0,0.0,0.0,0.0,0.0,0.0,0.0,0.0,0.0,0.0,0.0,0.0,0.0,0.0,0.0,0.0,0.0,0.0,0.0,0.0,0.0,0.0,2.7497,2.8161,0.0,0.0,0.0,0.0,2.8493,2.9457,3.0762,3.2533,3.3463,3.4437,3.5552,3.6774,3.7595,3.7937,3.8663,3.9271,3.9743,3.9749,3.9766,3.9822,4.0237,4.0192,3.976,3.9351,3.8919,3.8304,3.6089,3.5205,3.5114,3.3804,3.3562,3.3872,3.3367,3.3204,3.3272,3.3288,3.3069,3.2834,3.3104,3.2674,3.2155,3.254,3.1445,0.0,0.0,3.2875,3.3291,3.5295,3.6396,3.7206,3.8044,3.8278,3.8455,3.8958,3.9453,3.9239,3.7236,3.7818,3.8437,3.7727,0.0,4.035,4.1861,4.3829,4.5849,4.7918,4.9294,5.0384,5.127,5.0568,5.0309,5.0937,4.9325,4.8306,4.837,4.5904,4.4643,4.5109,4.3447,4.2343,4.199,4.0865,0.0,0.0,0.0,0.0,0.0,0.0,0.0,0.0,0.0,0.0,0.0,0.0,0.0,0.0,0.0,0.0,0.0,0.0,0.0,0.0,0.0,0.0,0.0,0.0,0.0,0.0,0.0,0.0,2.8847,2.8804,0.0,3.0541,3.0256,3.0406,3.1497,3.3026,3.4069,3.4456,3.5898,3.6987,3.7589,3.8492,3.9128,3.9491,3.9796,4.0138,4.0602,4.0602,4.0764,4.1065,4.0927,4.0764,4.0602,4.0468,4.0151,3.9705,3.8941,3.7733,3.6231,3.5568,3.5547,3.5827,3.5349,3.5446,3.5796,3.5573,3.5233,3.4837,3.446,3.4344,3.4357,3.4228,3.4254,3.4404,3.4874,3.5612,3.653,3.7503,3.8192,3.8781,3.93,3.9766,4.0138,4.0324,4.0741,4.0964,4.0618,4.0691,4.0649,4.0198,4.1921,4.3631,4.4442,4.6308,4.8048,4.9324,5.0083,5.0741,5.1422,5.0958,5.0866,5.1504,5.0109,4.8792,4.7796,4.674,4.5635,4.453,4.4382,4.367,4.2247,4.1345,3.9938,0.0,0.0,0.0,0.0,0.0,0.0,0.0,0.0,0.0,0.0,0.0,0.0,0.0,0.0,0.0,0.0,0.0,0.0,0.0,0.0,0.0,0.0,0.0,0.0,0.0,2.721,2.8898,3.0338,3.0606,3.1256,3.2769,3.2969,3.3391,3.4384,3.5801,3.6535,3.6257,3.7805,3.8807,3.9034,3.9571,4.0227,4.0962,4.0749,4.0957,4.1612,4.1612,4.1778,4.2067,4.1754,4.168,4.1782,4.1498,4.1292,4.1157,4.0952,3.9861,3.8181,3.6932,3.6493,3.6469,3.5608,3.557,3.5985,3.6141,3.6198,3.6124,3.5624,3.5681,3.5895,3.5712,3.617,3.6761,3.6765,3.7605,3.8624,3.8982,3.9652,4.0302,4.0699,4.1291,4.1727,4.164,4.2201,4.2825,4.3099,4.2685,4.2521,4.3304,4.5069,4.6823,4.8211,4.9566,5.0742,5.1571,5.1756,5.2009,5.2576,5.22,5.2196,5.2848,5.0954,4.9258,4.8125,4.7341,4.609,4.4182,4.4889,4.4377,4.2329,4.1505,4.0169,3.8252,0.0,0.0,0.0,0.0,0.0,0.0,0.0,0.0,0.0,0.0,0.0,0.0,0.0,0.0,0.0,0.0,0.0,0.0,0.0,0.0,0.0,0.0,0.0,2.7752,2.9602,3.1172,3.1937,3.3638,3.476,3.4802,3.552,3.6304,3.7097,3.7805,3.818,3.818,3.9339,3.9986,3.9963,4.0187,4.0949,4.2289,4.1692,4.1876,4.2847,4.2806,4.2806,4.2847,4.2806,4.3035,4.3385,4.2526,4.2384,4.2702,4.1953,4.1551,4.1026,3.8017,3.6584,3.6047,3.4489,3.3909,3.4082,3.5169,3.6052,3.6686,3.667,3.667,3.6733,3.706,3.7149,3.7275,3.8013,3.868,3.9267,3.9681,4.0679,4.174,4.2278,4.2848,4.3205,4.2953,4.3939,4.4793,4.4595,4.3821,4.411,4.6972,4.8151,4.9791,5.3064,5.3487,0.0,5.4663,5.4315,5.4188,5.4728,5.4296,5.4265,5.497,5.1941,4.9844,4.9577,4.7766,4.596,4.4277,4.5036,4.4524,4.2456,4.1604,4.0414,3.8861,0.0,0.0,0.0,0.0,0.0,0.0,0.0,0.0,0.0,0.0,0.0,0.0,0.0,0.0,0.0,0.0,0.0,0.0,0.0,0.0,0.0,2.8083,2.9652,3.029,3.1755,3.3242,3.4574,3.5407,3.6132,3.6799,3.7559,3.8093,3.8317,3.9587,4.0185,3.9865,4.0965,4.1459,4.1083,4.2005,4.2516,4.2521,4.3015,4.3414,4.3658,4.2979,4.302,4.3641,4.2979,4.3088,4.382,4.357,4.3539,4.3648,4.3419,4.2848,4.1924,4.0236,3.9627,3.9563,3.8767,3.8647,3.8828,3.8648,3.8743,3.8838,3.8314,3.8116,3.8179,3.8505,3.8222,3.7923,3.8696,3.8632,3.8488,3.9179,4.0659,4.2065,4.2502,4.38,4.5031,4.5354,4.5697,4.6368,4.7752,4.7822,4.7894,4.8696,4.9823,5.1171,5.2771,5.3236,5.3617,5.4155,5.3729,5.3755,5.4702,5.4021,5.4023,5.5326,5.3311,5.161,5.0645,4.967,4.8393,4.6722,4.7426,4.6909,4.4818,4.37,4.2188,0.0,0.0,0.0,0.0,0.0,0.0,0.0,0.0,0.0,0.0,0.0,0.0,0.0,0.0,0.0,0.0,0.0,0.0,0.0,0.0,0.0,0.0,3.0173,3.1907,3.3253,3.4047,3.4983,3.6398,3.702,3.7694,3.8522,3.9187,3.9739,4.0237,4.113,4.1597,4.1469,4.229,4.2451,4.1773,4.2552,4.2855,4.2606,4.3074,4.3573,4.3991,4.3671,4.3817,4.4335,4.4003,4.4124,4.4535,4.4535,4.4515,4.4429,4.4034,4.3455,4.2724,0.0,0.0,0.0,0.0,3.9172,3.9586,3.9333,3.9495,3.9697,3.9101,3.9021,3.9204,3.9387,3.9394,3.9474,4.0319,4.0481,4.0627,4.1512,4.3019,4.4387,4.4858,4.5999,4.7036,4.7192,4.7699,4.8434,4.946,5.0606,0.0,5.1708,5.2252,5.3109,5.4444,5.5025,5.53,5.5355,5.5236,5.5271,5.5451,5.4939,5.4874,5.5532,5.3751,0.0,0.0,0.0,4.9563,4.8255,4.7578,0.0,0.0,0.0,4.3996,4.3201,4.3759,0.0,0.0,4.1368,4.1073,0.0,0.0,0.0,0.0,0.0,0.0,0.0,0.0,0.0,0.0,0.0,0.0,0.0,0.0,0.0,0.0,3.2212,3.4107,3.634,3.6437,3.6676,3.7733,3.8546,3.9335,4.0031,4.0538,4.1251,4.2279,4.2433,4.2638,4.2916,4.3265,0.0,0.0,0.0,4.2732,4.2791,4.2823,4.3314,4.4248,4.469,4.4912,4.4989,4.541,4.552,4.5339,4.5339,4.5273,4.5105,4.4194,4.3749,4.3425,4.1563,4.0116,3.8942,3.7933,3.8006,3.8653,3.8848,0.0,0.0,3.9586,3.9706,4.0017,4.0049,4.0543,4.1293,4.222,4.3048,4.3947,4.499,4.6363,4.7551,4.8029,4.8672,4.9086,4.886,4.9766,5.0649,5.0591,5.2622,5.4569,5.5225,5.4982,5.5279,5.7023,5.7666,5.781,5.7334,5.7594,5.7455,5.6575,5.6418,0.0,5.5805,5.3907,5.2547,5.2192,5.1242,5.0321,4.9506,4.7243,4.6177,4.6554,4.6145,4.6266,4.695,4.7716,4.822,4.8395,4.4943,4.4335,0.0,0.0,0.0,0.0,0.0,0.0,0.0,0.0,0.0,0.0,0.0,0.0,0.0,0.0,0.0,3.2729,3.4343,3.6101,3.8486,3.8976,3.9199,3.9423,4.0119,4.0781,4.1288,4.1986,4.2471,4.2676,4.3299,4.37,4.3769,4.3837,4.3616,4.3016,4.4015,4.437,4.3984,4.4963,4.5559,4.5764,4.5608,0.0,4.5917,4.5743,4.5657,4.5624,4.5624,4.5608,4.5524,4.4853,4.4517,4.425,4.2842,4.2139,4.1932,4.2138,4.2298,4.2355,4.1652,4.152,4.1595,4.1256,4.1191,4.1304,4.1579,4.1428,0.0,4.255,4.2972,4.338,4.47,4.6648,4.8285,4.8384,4.9617,5.0855,5.1161,5.1443,5.2102,5.3723,5.4759,5.583,5.7109,5.6932,5.6857,5.7627,5.8141,5.8312,5.781,5.7452,5.7202,5.7052,5.6357,5.6171,5.6819,5.5852,5.517,5.5088,5.3848,5.2901,5.2413,5.1892,5.15,5.1213,5.1117,5.0588,4.9668,5.0187,4.9934,4.8955,4.8183,4.8063,0.0,0.0,0.0,0.0,0.0,0.0,0.0,0.0,0.0,0.0,0.0,2.8432,3.0016,0.0,3.2209,3.4748,3.5959,3.732,3.9345,4.0496,4.1024,4.0814,4.1143,4.1587,4.2197,4.2591,4.2761,4.2708,4.3519,4.3893,4.3605,4.4014,4.4017,4.3504,4.4813,4.517,4.4462,4.5784,4.6459,4.6459,4.6546,4.6803,4.7147,4.6961,4.6869,4.6781,4.6482,4.62,4.5918,4.5352,4.4884,4.4549,4.4186,4.3883,4.3677,4.396,4.4063,4.3979,4.3515,4.3142,4.2846,4.2506,4.2522,4.2652,4.2652,4.2971,4.3471,4.4362,4.5188,4.6104,4.732,4.9082,5.0616,5.0897,5.164,5.2427,5.2841,5.3203,5.3819,5.5003,5.6108,5.7025,5.773,5.8048,5.8207,5.824,5.8664,5.8705,5.7976,5.7871,5.757,5.6872,5.638,5.6189,5.6388,5.607,5.575,5.5523,5.4876,5.4198,5.3532,5.331,5.3098,5.2847,5.2392,5.2029,5.1798,5.18,5.1586,5.1153,5.1398,5.1126,0.0,0.0,0.0,0.0,0.0,0.0,0.0,2.5986,2.7163,2.8482,2.9997,3.1544,3.2989,3.3448,3.4389,3.6787,3.7579,3.8469,4.012,4.148,4.2193,4.193,4.1896,4.217,4.2847,4.2984,4.302,4.2962,4.3745,4.4041,4.3586,4.4321,4.4592,4.4234,4.5496,4.5859,4.5258,4.6426,4.7058,4.7129,4.7702,4.8065,4.827,4.827,4.8115,4.78,4.7216,4.6648,4.6104,4.5773,4.5346,4.5016,4.5425,4.5425,4.513,4.4971,4.4904,4.4921,4.4774,4.4436,4.3986,4.3734,4.3806,4.3969,4.3692,4.4523,4.5708,4.6449,4.7765,4.9268,5.053,5.1853,5.2964,5.342,5.3521,5.3644,5.4047,5.4645,5.522,5.5712,5.6995,5.8031,5.8094,5.8835,5.9285,5.8808,5.9057,5.8995,5.8141,5.8312,5.7968,5.6691,5.6559,5.6384,5.5956,5.6007,5.5872,5.5422,5.5443,5.5079,5.4242,5.39,5.3678,5.3595,5.2962,5.2901,5.3478,5.318,5.3138,5.3352,5.4113,5.3698,2.5208,2.5036,2.5012,2.4908,2.5339,2.5905,0.0,2.7451,2.8732,2.9501,3.1394,3.3384,3.4902,3.5676,3.688,3.9229,3.961,4.0194,4.1796,4.2187,4.2399,4.2642,4.2676,4.2847,4.3282,4.3666,4.3984,4.4269,4.4712,4.4959,4.4884,4.5421,4.5714,4.5682,4.6627,4.7284,4.7533,4.7982,4.8388,4.8751,4.9342,4.936,4.89,4.89,4.8454,4.76,4.7053,4.6479,4.5946,4.6246,4.6328,4.6301,4.6354,4.6672,4.7001,4.6292,4.6027,4.5933,4.5483,4.5276,4.5207,4.5173,4.519,4.5207,4.5173,4.5605,4.6389,4.7832,4.9058,5.0384,5.2373,5.3345,5.3863,5.392,5.3939,5.4067,5.4589,5.5096,5.5732,5.6731,5.7735,5.8591,5.9047,5.9569,5.9761,5.9285,5.9264,5.9119,5.8601,5.8183,5.7744,5.7177,5.711,5.7085,5.7035,5.7023,5.6867,5.6461,5.6449,5.62,5.5696,5.5621,5.5396,5.4982,5.533,5.5173,5.4443,5.4795,5.4583,5.3858,5.5639,5.546,2.677,2.6482,2.6339,2.6515,2.6741,2.7163,2.8095,2.9344,3.0576,3.1525,3.3194,3.4712,3.5476,3.6217,3.7392,3.9599,4.0308,4.128,4.3243,4.3263,4.3212,4.3569,4.2885,4.2746,4.3658,4.3618,4.3807,4.4505,4.52,4.5496,4.5296,4.5963,4.6467,4.6721,4.741,4.7956,4.835,4.8793,4.9109,4.9298,4.9547,4.9675,4.9626,4.919,4.8544,4.7751,4.7316,4.7019,4.6782,4.6952,4.7139,4.7299,4.7105,4.7316,4.7639,4.7091,4.6885,4.6859,4.664,4.6334,4.6044,4.6044,4.6044,4.6176,4.6816,4.7391,4.8105,4.9418,5.0587,5.1629,5.2512,5.3365,5.3998,5.3998,5.4227,5.4592,5.5104,5.5839,5.6734,5.7724,5.8494,5.9129,5.9631,5.9864,5.9926,5.974,5.9471,5.914,5.8664,5.8183,5.7707,5.7252,5.721,5.721,5.721,5.721,5.7128,5.6966,5.6945,5.6738,5.6328,5.6308,5.6227,5.6084,5.5717,5.5787,5.6284,5.5631,5.5713,5.6478,5.6974,5.7245,2.8049,2.791,2.7836,2.7831,2.8085,2.8595,2.9473,3.0531,3.1711,3.306,3.4431,3.5583,3.6268,3.6899,3.7997,4.0054,4.0874,4.1981,4.4049,4.3798,4.3498,4.3776,4.2678,4.2449,4.3915,4.366,4.3841,4.4884,4.5678,4.6065,4.594,4.6661,4.7275,4.7667,4.8216,4.8676,4.9074,4.9476,4.9735,4.9845,4.9955,5.0053,5.0157,4.9324,4.8577,4.7886,4.7562,4.7391,4.7408,4.7511,4.769,4.7886,4.7741,4.7844,4.8049,4.7802,4.7579,4.7391,4.7391,4.71,4.6754,4.6754,4.695,4.7347,4.8175,4.8912,4.9724,5.0852,5.1777,5.2473,5.2756,5.3416,5.4037,5.4154,5.4608,5.5161,5.5777,5.6728,5.773,5.8539,5.9149,5.9595,5.9926,5.9988,5.9988,5.9988,5.9595,5.914,5.8664,5.8079,5.7583,5.7231,5.721,5.721,5.721,5.721,5.726,5.741,5.7285,5.714,5.6982,5.7007,5.695,5.6881,5.6452,5.6639,5.7498,5.6694,5.693,5.8091,5.8246,5.893,2.8697,2.9119,2.9493,2.8593,2.9459,3.0387,2.999,3.0525,3.1658,3.3575,3.4684,3.5871,3.778,3.8411,3.9306,4.1307,4.1656,4.2255,4.3986,4.3427,4.2827,4.2837,4.1948,4.2082,4.4004,4.4069,4.4488,4.5765,4.6361,4.6846,4.72,4.7766,4.8242,4.8646,4.9173,4.9654,5.005,5.0068,5.0277,5.0662,5.1073,5.0941,5.0352,4.9283,4.8474,4.7886,4.7562,4.7391,4.7425,4.7732,4.7903,4.7937,4.8323,4.846,4.8488,4.8488,4.8008,4.7391,4.7391,4.7391,4.7365,4.7365,4.8087,4.8938,4.8964,4.9776,5.0878,5.2035,5.237,5.2627,5.3691,5.3972,5.4115,5.457,5.5087,5.5746,5.6752,5.7765,5.8616,5.9176,5.9657,5.9968,5.9988,5.9988,5.9988,5.9988,5.9595,5.914,5.8664,5.779,5.721,5.721,5.721,5.721,5.721,5.721,5.7435,5.7933,5.7485,5.7414,5.7937,5.7962,5.7777,5.7389,5.8321,5.8358,5.7498,5.843,5.8408,5.7569,5.9518,6.0433,2.9719,3.0366,3.1043,3.0619,3.0876,3.1281,3.1566,3.2109,3.2897,3.4081,3.5226,3.6463,3.7876,3.8408,3.9429,4.1839,4.2457,4.3344,4.5436,4.4911,4.4435,4.4683,4.3848,4.3697,4.4946,4.3568,4.3562,4.5854,4.6153,4.6589,4.7372,4.8447,4.9217,4.9618,4.979,5.0094,5.0497,5.0497,5.0552,5.0699,5.0708,5.0415,4.9832,4.9114,4.8474,4.7886,4.7562,4.7391,4.7425,4.7749,4.8057,4.8306,4.847,4.8505,4.8488,4.8204,4.8246,4.8386,4.7895,4.8048,4.8465,4.8465,4.9226,5.0272,5.1026,5.1499,5.2061,5.316,5.3442,5.3538,5.3896,5.3998,5.4217,5.5033,5.5646,5.6411,5.7725,5.8534,5.9181,5.9673,5.9885,5.9988,5.9988,5.9988,5.9988,5.9988,5.9595,5.9015,5.825,5.7852,5.7541,5.7231,5.721,5.721,5.721,5.721,5.7435,5.7983,5.7834,5.7983,5.8504,5.8528,5.8638,5.8858,5.8562,5.8557,5.8954,5.8995,5.9329,5.9983,6.1017,6.183,3.1097,3.1672,3.2219,3.2176,3.2274,3.2458,3.2849,3.3096,3.3629,3.4886,3.5568,3.6397,3.786,3.8413,3.9452,4.1896,4.2749,4.3868,4.5913,4.5429,4.4934,4.5209,4.4627,4.4561,4.5528,4.3983,4.3955,4.6416,4.6552,4.7043,4.8139,4.9172,4.9892,5.0296,5.0314,5.0442,5.0699,5.0699,5.0754,5.09,5.0552,5.0275,5.0081,4.9398,4.8875,4.8501,4.8129,4.8042,4.8198,4.858,4.8961,4.9298,4.9246,4.9444,4.9746,4.9137,4.9467,5.0071,4.8744,4.886,4.9619,4.9619,5.0384,5.144,5.219,5.2653,5.3109,5.3819,5.3998,5.3998,5.3998,5.3998,5.4282,5.5443,5.6122,5.6949,5.8411,5.9143,5.9636,5.9926,5.9988,5.9988,5.9988,5.9988,5.9988,5.9988,5.974,5.9264,5.8519,5.81,5.7769,5.7479,5.7293,5.721,5.721,5.721,5.751,5.8256,5.8107,5.833,5.9047,5.9097,5.9244,5.9589,5.914,5.9172,5.9698,5.9762,6.0289,6.1235,6.1917,6.288,3.2664,3.2943,3.3138,3.3233,3.3607,3.3892,3.3812,3.3505,3.3836,3.5864,3.5692,3.5784,3.7834,3.8494,3.9473,4.1577,4.2635,4.3759,4.546,4.5006,4.4507,4.4507,4.4455,4.4805,4.5856,4.5377,4.5706,4.7491,4.7552,4.8078,4.9321,4.9892,5.034,5.068,5.0699,5.0699,5.0699,5.0699,5.0882,5.1249,5.0679,5.0595,5.0892,5.0019,4.9593,4.954,4.9176,4.9221,4.9629,5.0028,5.0435,5.0789,5.0639,5.1257,5.2063,5.1132,5.1541,5.223,5.0015,4.9935,5.0847,5.0847,5.1626,5.253,5.253,5.3243,5.4037,5.4037,5.4017,5.3998,5.3998,5.4023,5.4392,5.5825,5.6594,5.7425,5.8839,5.9601,5.9988,5.9988,5.9988,5.9988,5.9988,5.9988,5.9988,5.9988,5.9988,5.9823,5.9367,5.8539,5.7934,5.7893,5.7525,5.7281,5.7235,5.7285,5.7734,5.8776,5.8355,5.8553,5.961,5.9638,5.9638,5.9638,6.0174,6.0225,5.979,6.0785,6.1295,6.1351,6.2327,6.3605,3.2789,3.363,3.4424,3.4158,3.4178,3.4392,3.4852,3.4505,3.4488,3.5862,3.6062,3.6443,3.7938,3.8207,3.9161,4.2033,4.2612,4.3414,4.5548,4.5674,4.5648,4.6001,4.6584,4.7217,4.7841,4.7689,4.7993,4.9045,4.8426,4.7964,4.7877,4.9958,5.1011,5.0725,5.0699,5.0699,5.0699,5.0699,5.0735,5.0845,5.0552,5.0307,5.0153,4.9769,4.9434,4.9159,4.9026,4.9221,4.9629,5.0028,5.0435,5.087,5.1509,5.1791,5.1839,5.1982,5.257,5.3231,5.2622,5.2616,5.2852,5.2852,5.3632,5.4545,5.4545,5.4539,5.4512,5.4512,5.4277,5.3998,5.3998,5.4304,5.4954,5.6419,5.7188,5.7995,5.9468,5.9884,5.9988,5.9988,5.9988,5.9988,5.9988,5.9988,5.9988,5.9988,5.9988,5.9823,5.9367,5.9098,5.8684,5.7976,5.8143,5.8185,5.783,5.8157,5.8677,5.9343,5.9269,5.9491,6.0174,6.0199,6.0199,6.0199,6.0736,6.0938,6.083,6.1835,6.2532,6.2945,6.3962,6.4624,3.3524,3.425,3.4979,3.4937,3.4926,3.4935,3.4992,3.4967,3.5065,3.5605,3.5863,3.6399,3.7693,3.8332,3.9495,4.2026,4.2828,4.3768,4.5632,4.5695,4.5719,4.6236,4.7052,4.7648,4.7937,4.8022,4.8311,4.8954,4.869,4.8509,4.8533,5.0178,5.1092,5.0982,5.0955,5.1047,5.123,5.123,5.1139,5.0955,5.086,5.0593,5.0256,5.0133,4.9958,4.9768,4.993,5.0254,5.0641,5.1046,5.1604,5.2219,5.25,5.2935,5.3436,5.3312,5.3941,5.4895,5.4676,5.4734,5.4856,5.4465,5.477,5.5312,5.5312,5.5137,5.4961,5.4961,5.4785,5.4615,5.4873,5.5156,5.5751,5.7304,5.788,5.8447,5.9739,5.9988,5.9988,5.9988,5.9988,5.9988,5.9988,5.9988,5.9988,5.9988,5.9988,5.9906,5.9636,5.9429,5.9098,5.8581,5.8608,5.8473,5.7993,5.8451,5.8889,5.9241,5.9466,5.9856,6.037,6.0639,6.076,6.076,6.1295,6.1562,6.1562,6.2552,6.3433,6.4165,6.474,6.5613,3.4487,3.4821,3.5155,3.5494,3.5595,3.542,3.4795,3.5204,3.5599,3.5331,3.5499,3.6047,3.7207,3.8389,3.976,4.1504,4.2767,4.4023,4.5491,4.5294,4.5265,4.598,4.6731,4.727,4.7453,4.7556,4.7851,4.8415,4.8724,4.9193,4.9954,5.056,5.1034,5.1385,5.1385,5.1542,5.1909,5.1909,5.1725,5.1385,5.1385,5.122,5.0845,5.079,5.0772,5.079,5.1084,5.1334,5.1568,5.2265,5.2974,5.3623,5.348,5.4358,5.5586,5.4802,5.5398,5.6523,5.6126,5.6269,5.6491,5.5723,5.5469,5.5469,5.5469,5.543,5.539,5.539,5.5404,5.5521,5.597,5.6204,5.6688,5.8144,5.8553,5.8858,5.9806,5.9988,5.9988,5.9988,5.9988,5.9988,5.9988,5.9988,5.9988,5.9988,5.9988,5.9988,5.9988,5.9636,5.9393,5.9409,5.9113,5.8707,5.8263,5.8725,5.9015,5.8995,5.9441,5.9954,6.0492,6.0933,6.1273,6.1394,6.1949,6.2238,6.2286,6.3246,6.4215,6.5205,6.5188,6.6534,3.4832,3.5208,3.5494,3.5579,3.5595,3.5571,3.5521,3.5854,3.6069,3.5697,3.5913,3.6214,3.6329,3.7091,3.8231,3.9849,4.0912,4.2246,4.4359,4.4578,4.5136,4.6774,4.7429,4.8174,4.9213,4.8632,4.8794,5.0293,4.9366,4.8943,4.9406,5.0973,5.1851,5.178,5.1799,5.1835,5.1909,5.1909,5.1872,5.1799,5.1799,5.1762,5.1689,5.134,5.1202,5.1183,5.09,5.0331,4.9748,5.1874,5.233,5.1924,5.431,5.5429,5.5732,5.6057,5.6363,5.6609,5.6504,5.6523,5.6589,5.6406,5.6367,5.6367,5.6367,5.6113,5.5794,5.5794,5.5881,5.597,5.6075,5.6801,5.7671,5.8326,5.8839,5.9326,5.9885,5.9988,5.9988,5.9988,5.9988,5.9988,5.9988,5.9988,5.9988,5.9988,5.9988,5.9988,5.9988,5.9926,5.9902,5.9967,6.0283,6.034,5.992,6.0378,6.0505,6.0147,6.0199,6.0517,6.103,6.1152,6.1588,6.241,6.296,6.3414,6.3819,6.4435,6.5283,6.6323,6.6322,6.727,3.5219,3.5446,3.5595,3.5595,3.5325,3.4986,3.4864,3.5082,3.5264,3.489,3.5403,3.6034,3.6409,3.7146,3.8159,3.9591,4.0312,4.147,4.3774,4.388,4.4376,4.6206,4.6813,4.7478,4.8484,4.837,4.8951,5.077,4.9995,4.9606,5.0025,5.128,5.2064,5.2202,5.2422,5.2513,5.2513,5.2513,5.2422,5.222,5.222,5.211,5.1882,5.1707,5.1487,5.1312,5.1322,5.1032,5.0672,5.2416,5.3107,5.3295,5.5034,5.5886,5.6207,5.6475,5.6609,5.6589,5.6328,5.6406,5.6543,5.6328,5.6406,5.6609,5.6609,5.6445,5.6323,5.6615,5.6722,5.6906,5.7509,5.8058,5.8614,5.9152,5.9475,5.9719,5.9947,5.9988,5.9988,5.9988,5.9988,5.9988,5.9988,5.9988,6.0093,6.036,6.0412,6.0516,6.0803,6.0829,6.0745,6.0488,6.0958,6.1098,6.0719,6.1133,6.1106,6.0393,6.0596,6.0904,6.1198,6.1709,6.2193,6.2698,6.3509,6.4032,6.4269,6.5046,6.6086,6.7391,6.7651,6.8772,3.55,3.5595,3.5595,3.5595,3.5055,3.4435,3.4184,3.4333,3.4465,3.4189,3.4907,3.5829,3.6509,3.7214,3.8056,3.9227,3.9655,4.0678,4.3129,4.3056,4.3529,4.5742,4.6048,4.6549,4.7688,4.7881,4.8647,5.0431,5.0252,5.032,5.0919,5.1634,5.222,5.2605,5.2935,5.3082,5.3082,5.3008,5.2807,5.2495,5.2495,5.233,5.2037,5.2037,5.1817,5.1458,5.1762,5.1684,5.1423,5.2953,5.3862,5.4402,5.546,5.6122,5.6445,5.6445,5.6466,5.6429,5.6042,5.6285,5.6752,5.6364,5.6468,5.6769,5.6769,5.6769,5.6849,5.7282,5.7468,5.7807,5.8706,5.9102,5.9391,5.9884,5.9988,5.9988,5.9988,5.9988,5.9988,5.9988,5.9988,5.9988,5.9988,5.9988,6.0198,6.0704,6.0808,6.0948,6.1407,6.1541,6.1421,6.0902,6.1296,6.1499,6.1208,6.1413,6.1259,6.0518,6.0894,6.1281,6.1683,6.2456,6.2961,6.3176,6.4127,6.4741,6.4929,6.5849,6.7106,6.8584,6.9035,7.0211,3.55,3.5595,3.5595,3.5595,3.5055,3.4498,3.4539,3.462,3.4657,3.4562,3.5159,3.58,3.6103,3.624,3.6635,3.7725,3.7933,3.8998,4.1996,4.1885,4.2857,4.6537,4.6045,4.6282,4.8556,4.7925,4.7936,4.9344,4.975,5.0476,5.1735,5.222,5.2623,5.3027,5.3091,5.3082,5.3082,5.2733,5.2532,5.2495,5.2495,5.2477,5.244,5.244,5.222,5.1854,5.1864,5.0931,4.9624,5.2871,5.3452,5.2544,5.5417,5.6294,5.597,5.597,5.6031,5.6122,5.5978,5.6616,5.7478,5.7336,5.7289,5.7329,5.7329,5.7329,5.7355,5.7408,5.7807,5.8231,5.8337,5.9128,5.9936,5.9988,5.9988,5.9988,5.9988,5.9988,5.9988,5.9988,5.9988,5.9988,5.9988,5.9988,6.0198,6.0704,6.0808,6.0842,6.0961,6.1383,6.1513,6.1036,6.1427,6.1695,6.1722,6.1365,6.1132,6.1119,6.117,6.1826,6.3246,6.3366,6.3842,6.4789,6.5377,6.6106,6.703,6.7617,6.8691,7.0188,7.0236,7.0888,3.5732,3.543,3.4986,3.5192,3.4239,3.3422,3.4097,3.3754,3.3534,3.4357,3.4933,3.545,3.5993,3.6114,3.6473,3.7636,3.781,3.8605,4.09,4.1168,4.2162,4.5014,4.5368,4.6392,4.9015,4.9409,5.0107,5.154,5.1719,5.1849,5.2025,5.2113,5.244,5.3091,5.3082,5.3082,5.3082,5.2697,5.2623,5.2843,5.2605,5.2623,5.2843,5.2843,5.2642,5.2257,5.2257,5.1373,5.0155,5.3086,5.3424,5.2371,5.5126,5.5911,5.5573,5.5887,5.605,5.6146,5.6455,5.7033,5.7535,5.7164,5.7667,5.8363,5.8045,5.7939,5.8019,5.8337,5.8601,5.8865,5.9227,5.9674,5.9988,5.9988,5.9988,5.9988,5.9988,5.9988,5.9988,5.9988,5.9988,5.9988,5.9988,5.9988,6.0198,6.0704,6.1068,6.1313,6.1357,6.1875,6.2165,6.197,6.2122,6.2241,6.2294,6.2687,6.2659,6.2076,6.2652,6.3126,6.3438,6.4041,6.4571,6.4977,6.5849,6.6628,6.7313,6.8152,6.9372,7.0878,7.12,7.19,3.5907,3.5478,3.4906,3.5234,3.4091,3.3111,3.3948,3.3333,3.292,3.4112,3.4721,3.5215,3.5707,3.6065,3.6622,3.7591,3.7967,3.8696,4.0415,4.0939,4.1836,4.3731,4.4815,4.6232,4.8483,4.9946,5.1238,5.2462,5.2552,5.2304,5.1749,5.2033,5.2384,5.2742,5.2923,5.2923,5.2733,5.2348,5.2275,5.2577,5.2403,5.2477,5.2752,5.2972,5.2725,5.2115,5.2514,5.1699,5.0307,5.3254,5.3594,5.2462,5.4928,5.5579,5.5169,5.5559,5.5793,5.5994,5.6346,5.7102,5.7771,5.7387,5.8227,5.9286,5.8917,5.868,5.8627,5.8996,5.9102,5.9233,5.9831,5.9988,5.9988,5.9988,5.9988,5.9988,5.9988,5.9988,6.0041,6.0224,6.0119,6.0041,6.0224,6.0119,6.025,6.0912,6.1353,6.1695,6.194,6.2328,6.2614,6.2637,6.2617,6.2657,6.2809,6.3364,6.3518,6.3089,6.377,6.4181,6.4097,6.4845,6.5303,6.5472,6.6511,6.7364,6.8006,6.9064,7.0384,7.1881,7.2257,7.3077,3.5907,3.5844,3.5675,3.6002,3.5033,3.4059,3.443,3.3719,3.3199,3.3873,3.4643,3.515,3.5028,3.5976,3.6923,3.7341,3.808,3.9165,4.0768,4.1262,4.1957,4.3265,4.4534,4.5697,4.6726,4.8828,5.0365,5.098,5.132,5.133,5.0836,5.2189,5.2646,5.1935,5.2494,5.2539,5.1927,5.1505,5.133,5.133,5.1725,5.1927,5.1945,5.2733,5.239,5.1197,5.2517,5.1575,4.9421,5.3299,5.3831,5.2462,5.4928,5.543,5.4713,5.4713,5.5049,5.5474,5.5364,5.6665,5.8385,5.8327,5.9049,5.9988,5.9988,5.9569,5.9102,5.9102,5.9102,5.9233,5.9831,5.9988,5.9988,5.9988,5.9988,5.9988,5.9988,5.9988,6.0172,6.0678,6.036,6.0172,6.0704,6.0334,6.0381,6.1426,6.1586,6.185,6.2495,6.2603,6.2634,6.2703,6.265,6.2809,6.3364,6.2974,6.3133,6.4119,6.417,6.4674,6.5728,6.58,6.6038,6.6559,6.7571,6.8621,6.9667,7.0689,7.1978,7.3496,7.3472,7.4316,3.4766,3.4697,3.4504,3.4515,3.3703,3.3079,3.3667,3.2971,3.2514,3.3748,3.395,3.414,3.4858,3.5035,3.5673,3.7449,3.7957,3.867,4.0237,4.1622,4.258,4.2887,4.6048,4.8813,5.0469,5.1921,5.2686,5.2514,5.2596,5.2595,5.244,5.2883,5.2945,5.2528,5.2706,5.252,5.1909,5.1487,5.1432,5.1707,5.1854,5.2269,5.2947,5.3458,5.3704,5.3724,5.4129,5.2772,5.053,5.4002,5.3836,5.1709,5.5188,5.5946,5.5195,5.6,5.6368,5.6557,5.6789,5.7551,5.8385,5.8327,5.8785,5.9365,5.9365,5.9543,5.9726,5.9726,5.9726,5.9779,5.9936,5.9988,5.9988,5.9988,5.9988,5.9988,5.9988,5.9988,6.0172,6.0704,6.0652,6.0621,6.0756,6.0959,6.1089,6.1068,6.1711,6.218,6.1991,6.2661,6.3146,6.3192,6.3152,6.3364,6.3894,6.41,6.4337,6.4663,6.5711,6.6322,6.6277,6.6979,6.7463,6.763,6.8679,6.9518,7.0167,7.1557,7.2824,7.3986,7.4361,7.497,3.4086,3.4147,3.3971,3.4025,3.3307,3.2705,3.3108,3.2484,3.2189,3.3526,3.385,3.4109,3.4775,3.5266,3.5897,3.688,3.7843,3.8768,3.9642,4.1599,4.3439,4.4723,4.7143,4.9699,5.2266,5.3242,5.364,5.3493,5.3697,5.3723,5.3493,5.3512,5.3332,5.2956,5.293,5.2687,5.2083,5.2059,5.2059,5.2083,5.2442,5.2832,5.3253,5.3666,5.3953,5.4114,5.4471,5.3249,0.0,5.4406,5.4278,5.2402,5.5574,5.6444,5.6016,5.6484,5.6895,5.7206,5.7022,5.7563,5.8348,5.8309,5.8812,5.9443,5.9443,5.97,5.9988,5.9988,5.9988,5.9988,5.9988,5.9988,5.9988,5.9988,5.9988,5.9988,5.9988,5.9988,6.0172,6.0704,6.0808,6.086,6.1068,6.1379,6.156,6.1452,6.2068,6.2527,6.2586,6.3224,6.3831,6.4212,6.4262,6.4463,6.5014,6.4956,6.5262,6.6066,6.6865,6.7228,6.7108,6.7741,6.818,6.8396,6.9426,7.0194,7.0724,7.2421,7.368,7.4521,7.5008,7.5666,0.0,3.3935,3.3816,3.4116,3.3483,3.2747,3.2656,3.2145,0.0,3.3178,3.4082,3.4675,3.4686,3.6261,3.7152,3.5862,3.7755,3.9323,3.9114,4.1422,4.4418,4.7942,4.7835,4.8822,5.2172,5.2984,5.3461,5.3896,5.4457,5.4533,5.4023,5.3998,5.3793,5.3339,5.3288,5.298,5.2408,5.2878,5.2852,5.2293,5.3298,5.3464,5.2969,5.3431,5.3402,5.3016,5.3825,5.316,5.1724,5.4486,5.4984,5.4163,5.6136,5.6981,5.7031,5.6512,5.6875,5.7503,5.6425,5.7045,5.831,5.8337,5.9122,5.9988,5.9988,5.9988,5.9988,5.9988,5.9988,5.9988,5.9988,5.9988,5.9988,5.9988,5.9988,6.0015,6.0041,6.0041,6.0198,6.0782,6.0865,6.0974,6.1518,6.1673,6.1905,6.2438,6.2588,6.302,6.4042,6.4195,6.4604,6.5591,6.5692,6.5966,6.6564,6.5664,6.594,6.7906,6.7634,6.7622,6.8127,6.8225,6.8491,6.9021,7.0002,7.0794,7.1431,7.3304,7.4498,7.5057,7.5538,7.6311,3.1132,0.0,3.2206,3.2189,3.1884,3.1649,0.0,3.1356,3.1138,3.2328,3.2507,3.2876,3.4284,3.5515,3.6309,3.622,3.7957,3.9468,3.9871,4.1849,4.4171,4.6657,4.7808,4.902,5.0622,5.2623,5.3691,5.339,5.3896,5.4125,5.3998,5.3998,5.4125,5.4431,5.4023,5.3359,5.2408,5.2537,5.2135,5.1269,5.2569,5.2966,5.2578,5.371,5.4402,5.4691,5.4198,5.3509,5.2888,5.4331,5.4772,5.4752,5.7102,5.8023,5.8035,5.8303,5.8279,5.8096,5.7832,5.7992,5.8363,5.8785,5.9411,5.9988,5.9988,5.9988,5.9988,5.9988,5.9988,5.9988,5.9988,5.9988,5.9988,5.9988,5.9988,6.0119,6.0516,6.0281,6.0433,6.1836,6.1439,6.1055,6.1567,6.2404,6.2886,6.2633,6.3574,6.4427,6.468,6.5085,6.5415,6.5667,6.5692,6.6243,6.761,6.7115,6.6942,6.7461,6.8128,6.8573,6.8699,6.943,6.9914,7.0059,7.1091,7.2235,7.3492,7.396,7.4658,7.5561,7.6065,7.6678,2.9419,3.0445,3.136,3.1295,3.1067,3.0922,3.1071,3.0545,3.0474,3.2042,3.2191,3.2576,3.4281,3.5324,3.612,3.6594,3.8186,4.0109,4.2171,4.3968,4.5721,4.7461,4.8935,5.0109,5.091,5.282,5.3876,5.3589,5.4074,5.438,5.438,5.438,5.4609,5.5148,5.466,5.41,5.3512,5.3512,5.3115,5.2348,5.3346,5.3712,5.3487,5.4208,5.4921,5.5514,5.4376,5.437,5.5124,5.5052,5.5696,5.6847,5.8191,5.8871,5.9075,5.9102,5.9075,5.9017,5.8469,5.8469,5.8706,5.9023,5.9496,5.9988,5.9988,5.9988,5.9988,5.9988,5.9988,5.9988,5.9988,6.0198,6.036,6.036,6.0542,6.0803,6.1094,6.0959,6.1011,6.1892,6.1854,6.179,6.2352,6.3141,6.3721,6.3673,6.4375,6.4984,6.5236,6.5516,6.5792,6.6041,6.6516,6.7064,6.7684,6.8153,6.8399,6.8399,6.8717,6.911,6.9573,7.0107,7.0639,7.112,7.1933,7.2928,7.4193,7.4452,7.5077,7.6065,7.6399,7.6941,2.8452,2.9626,3.0858,3.0915,3.068,3.043,3.0434,3.0032,3.0115,3.177,3.2245,3.2875,3.4454,3.5709,3.6669,3.7233,3.8865,4.1217,4.4516,4.6269,4.7581,4.8589,5.0197,5.1359,5.1711,5.313,5.4004,5.3998,5.4431,5.4685,5.4685,5.4685,5.4919,5.5451,5.4945,5.4736,5.4812,5.4736,5.4366,5.3798,5.4392,5.4563,5.4389,5.4603,5.5058,5.565,5.4434,5.5156,5.7104,5.59,5.6831,5.9026,5.9105,5.9487,5.9936,5.9417,5.9496,5.9726,5.8759,5.8785,5.9233,5.9233,5.9575,6.0015,6.0093,6.0067,6.0041,6.0198,6.0198,6.0093,6.0015,6.0464,6.0886,6.0808,6.1198,6.1633,6.1737,6.1664,6.1638,6.1819,6.2159,6.2578,6.3222,6.3757,6.4313,6.4821,6.504,6.5312,6.5742,6.5817,6.6016,6.6464,6.741,6.7832,6.7436,6.8743,6.9646,6.9792,6.9378,6.9573,7.0591,7.0712,7.1267,7.2344,7.2846,7.3532,7.4438,7.4975,7.5688,7.6524,7.6715,7.7277,2.8754,2.9428,3.0148,3.0564,3.0404,3.0217,3.0507,3.0501,3.0501,3.0736,3.135,3.2472,3.4641,3.7064,3.8746,3.8863,4.0977,4.3043,4.4188,4.6331,4.757,4.698,4.975,5.1567,5.1167,5.2871,5.3998,5.3998,5.4074,5.4125,5.4125,5.4125,5.438,5.4894,5.4406,5.4329,5.4812,5.4355,5.3695,5.2818,5.3695,5.3689,5.296,5.4156,5.4772,5.4837,5.4209,5.4805,5.6259,5.5718,5.6709,5.8655,5.9097,5.9558,5.9988,5.991,5.9601,5.9207,5.9049,5.9365,5.9857,5.9857,5.991,6.0093,6.0542,6.036,6.0198,6.1115,6.1016,6.0568,6.0119,6.0725,6.1353,6.0912,6.1198,6.1737,6.2249,6.1969,6.1892,6.2845,6.2392,6.2161,6.32,6.3829,6.4381,6.4903,6.5715,6.6289,6.6366,6.6389,6.6414,6.6489,6.7039,6.756,6.7954,6.862,6.9402,7.0229,7.0204,7.0639,7.1719,7.2188,7.2941,7.4015,7.4567,7.5042,7.5567,7.6079,7.6399,7.6524,7.7376,7.8098,2.8281,2.8725,2.9331,3.0351,3.0624,3.0744,3.1154,3.1283,3.1598,3.265,3.3351,3.4474,3.6833,3.828,3.9747,4.1594,4.4119,4.6136,4.6898,4.8397,4.9237,4.8731,5.1031,5.2449,5.1916,5.3159,5.3998,5.3998,5.3998,5.4125,5.4431,5.4431,5.4685,5.5224,5.4711,5.4558,5.4812,5.4278,5.3773,5.3349,5.3773,5.389,5.3769,5.4389,5.4922,5.528,5.4318,5.5,5.6728,5.5801,5.6767,5.8848,5.9109,5.9541,5.9988,5.9988,5.9831,5.9595,5.9595,5.9779,5.9988,5.9988,6.0198,6.049,6.073,6.0808,6.0907,6.1094,6.099,6.0808,6.0855,6.1478,6.2021,6.1789,6.2124,6.2588,6.287,6.2716,6.2665,6.3204,6.2901,6.2927,6.4018,6.4421,6.4873,6.5697,6.6204,6.6514,6.6514,6.6514,6.6614,6.6913,6.741,6.7931,6.8496,6.9036,6.9646,7.0349,7.0952,7.1603,7.2403,7.2965,7.3743,7.4812,7.5303,7.5804,7.6305,7.7016,7.7486,7.7698,7.8787,7.9559,2.7824,2.8261,2.8937,3.0071,3.0667,3.1124,3.1696,3.2213,3.2974,3.4445,3.5194,3.6361,3.8936,4.0026,4.1587,4.4788,4.6955,4.852,4.9411,5.0407,5.0979,5.0851,5.2437,5.3364,5.2978,5.3574,5.3998,5.3998,5.3998,5.4176,5.4584,5.4609,5.4812,5.5198,5.4838,5.4609,5.4609,5.4202,5.3998,5.3998,5.4125,5.4301,5.4531,5.4784,5.5149,5.5599,5.4869,5.5665,5.7396,5.6583,5.7477,5.9312,5.9312,5.9595,5.9988,5.9988,5.9988,5.9988,5.9988,5.9988,6.0015,6.0145,6.0464,6.086,6.112,6.1379,6.156,6.1431,6.1301,6.1224,6.1379,6.1944,6.2481,6.2481,6.2918,6.3306,6.3306,6.3306,6.3306,6.3306,6.3408,6.3791,6.4731,6.5009,6.5413,6.6364,6.6514,6.6514,6.6514,6.6614,6.6813,6.7064,6.7808,6.8546,6.9183,6.9719,7.0301,7.0906,7.1724,7.2426,7.2969,7.3844,7.4796,7.5706,7.6573,7.7146,7.7444,7.8324,7.8834,7.8972,8.0088,8.0864,2.7824,2.8633,2.945,2.9553,3.0121,3.0834,3.1613,3.3255,3.4537,3.4302,3.5101,3.6766,3.9766,4.2805,4.5686,4.8153,4.8563,4.8886,4.9824,5.1143,5.1941,5.1839,5.3078,5.3933,5.3908,5.3953,5.3998,5.3998,5.3998,5.4023,5.4049,5.4049,5.4074,5.41,5.4074,5.4049,5.4049,5.4023,5.3998,5.3998,5.4507,5.4502,5.4082,5.5032,5.5197,5.4856,5.6051,5.6977,5.7648,5.8489,5.9251,5.9936,5.9936,5.9962,5.9988,5.9988,5.9988,5.9988,5.9988,5.9988,6.0093,6.0574,6.0756,6.099,6.2068,6.1995,6.1793,6.2845,6.2742,6.2146,6.112,6.1659,6.2481,6.2481,6.2918,6.3306,6.3306,6.3306,6.3306,6.3306,6.3689,6.4246,6.4807,6.5289,6.584,6.6391,6.6514,6.6514,6.6514,6.6915,6.7087,6.6614,6.7931,6.9232,7.0204,7.0783,7.1533,7.2557,7.2702,7.2968,7.3522,7.5489,7.6795,7.7324,7.9248,8.0056,7.9598,8.0567,8.0569,7.9637,8.0715,8.1494,2.7569,2.8073,2.8658,2.9282,3.02,3.1249,3.2305,3.4126,3.6014,3.7393,3.8421,3.9717,4.1857,4.4638,4.6989,4.8205,4.9009,4.9795,5.0746,5.1811,5.2464,5.2396,5.3344,5.3998,5.3998,5.3998,5.3998,5.3998,5.3998,5.3998,5.3998,5.3998,5.3998,5.3998,5.4329,5.4329,5.3998,5.466,5.4838,5.4507,5.4711,5.4889,5.5015,5.5047,5.545,5.6141,5.6026,5.6783,5.8048,5.8132,5.8673,5.947,5.9857,5.9988,5.9988,5.9988,5.9988,5.9988,5.9988,6.0224,6.0542,6.073,6.1297,6.1918,6.2378,6.2562,6.2691,6.2789,6.2661,6.2481,6.2382,6.2665,6.302,6.302,6.3152,6.3306,6.3306,6.3306,6.3408,6.3715,6.3966,6.4398,6.5262,6.5566,6.589,6.6439,6.6514,6.6639,6.6963,6.7163,6.7484,6.7931,6.911,7.0132,7.0831,7.1646,7.2585,7.3684,7.4043,7.4659,7.5562,7.6954,7.813,7.8996,8.0062,8.0511,8.0348,8.157,8.1823,8.1149,8.2099,8.2842,2.7346,2.7887,2.8629,2.9301,3.0534,3.1814,3.2706,3.5079,3.7617,3.9423,4.1096,4.2546,4.3652,4.5912,4.7848,4.8645,4.9685,5.0682,5.1504,5.2383,5.296,5.3154,5.3802,5.4253,5.4253,5.4253,5.4176,5.3998,5.3998,5.3998,5.3998,5.3998,5.3998,5.3998,5.4355,5.4457,5.4253,5.499,5.5325,5.5299,5.497,5.5072,5.5603,5.5561,5.5967,5.6755,5.6528,5.7186,5.8352,5.8348,5.8764,5.9417,5.9831,5.9988,5.9988,5.9988,5.9988,6.0015,6.0177,6.049,6.086,6.1198,6.1866,6.2532,6.2712,6.2999,6.3229,6.2866,6.2764,6.2841,6.3204,6.3178,6.3076,6.3255,6.3306,6.3357,6.351,6.3536,6.3715,6.4271,6.4478,6.4832,6.5566,6.5842,6.6141,6.6666,6.6764,6.6963,6.7461,6.7684,6.8202,6.9256,7.0132,7.0928,7.1622,7.2771,7.3929,7.5007,7.6015,7.6787,7.7256,7.8416,7.9393,8.0147,8.0923,8.1372,8.1396,8.2494,8.2848,8.2553,8.3288,8.3873,2.7199,2.832,2.9698,2.9638,3.1026,3.2461,3.2677,3.6087,3.9318,3.9748,4.2478,4.4838,4.4902,4.6598,4.8471,4.9951,5.0833,5.1493,5.2041,5.2837,5.3586,5.4128,5.4555,5.4793,5.4793,5.4793,5.4584,5.4023,5.3998,5.3998,5.3998,5.3998,5.3998,5.3998,5.3998,5.4278,5.4812,5.4838,5.535,5.6384,5.533,5.5102,5.5648,5.665,5.6802,5.6403,5.786,5.8501,5.8594,5.9593,5.9988,5.9988,5.9988,5.9988,5.9988,5.9988,5.9988,6.0093,6.0621,6.0808,6.099,6.2146,6.2481,6.261,6.3127,6.3306,6.3306,6.3306,6.3306,6.3306,6.3306,6.2918,6.2661,6.3178,6.3306,6.3459,6.3992,6.4093,6.4271,6.4807,6.534,6.5692,6.5692,6.6141,6.6689,6.7236,6.7311,6.7509,6.8053,6.8571,6.9281,7.0301,7.088,7.1622,7.2646,7.4188,7.5576,7.6639,7.8672,7.9364,7.8378,7.9853,8.0715,8.0715,8.2142,8.2932,8.2932,8.3464,8.3693,8.3715,8.4188,8.4387,2.6988,2.8182,2.9859,3.0275,3.2071,3.3827,3.4182,3.677,3.9852,4.2367,4.4401,4.5691,4.5622,4.692,4.8424,4.9764,5.073,5.1589,5.2406,5.3033,5.346,5.3611,5.3978,5.4227,5.4227,5.4227,5.4176,5.3998,5.3998,5.3998,5.3998,5.3998,5.4176,5.4558,5.4939,5.5198,5.535,5.6107,5.6459,5.6409,5.6464,5.6564,5.671,5.6198,5.6683,5.7904,5.7986,5.8586,5.9593,5.9874,5.9988,5.9988,5.9988,5.9988,5.9988,5.9988,6.0229,6.0595,6.073,6.1323,6.2068,6.2378,6.2764,6.3076,6.3255,6.3306,6.3306,6.3306,6.3306,6.3306,6.3306,6.3459,6.3583,6.3357,6.3587,6.3915,6.4068,6.4398,6.4832,6.5362,6.5591,6.584,6.6191,6.6691,6.7253,6.7775,6.8171,6.8618,6.9164,6.9667,7.0349,7.1408,7.1956,7.2844,7.4265,7.5452,7.6789,7.8299,7.9638,8.0258,8.0,8.1128,8.1913,8.2234,8.3047,8.3464,8.3464,8.4279,8.4505,8.4188,8.4238,8.449,2.7184,2.8639,3.0583,3.1238,3.3343,3.5746,3.7621,3.9043,4.0829,4.3823,4.5426,4.6408,4.6705,4.7729,4.8947,5.0268,5.1264,5.2127,5.2885,5.3365,5.3734,5.3917,5.4172,5.4329,5.4329,5.4329,5.4227,5.4023,5.3998,5.3998,5.3998,5.4202,5.4482,5.4787,5.5302,5.5661,5.5864,5.6706,5.7066,5.6964,5.7066,5.7242,5.7475,5.6945,5.7413,5.8597,5.866,5.9185,5.9988,5.9988,5.9988,5.9988,5.9988,5.9988,6.0041,6.0229,6.0516,6.0886,6.156,6.2099,6.2558,6.2995,6.3485,6.3944,6.3944,6.4227,6.4557,6.4557,6.4557,6.4557,6.4557,6.481,6.4807,6.3842,6.402,6.4478,6.468,6.5315,6.6018,6.6568,6.6968,6.734,6.7685,6.8368,6.8953,6.9269,6.9932,7.0591,7.1176,7.166,7.2184,7.2828,7.3717,7.4779,7.5938,7.718,7.8393,7.9622,8.0658,8.1233,8.1279,8.189,8.2424,8.2909,8.3207,8.3601,8.3989,8.455,8.4775,8.4685,8.4585,8.4747,2.7537,2.9368,3.1606,3.2364,3.4695,3.784,4.1777,4.2083,4.2174,4.448,4.5862,4.6976,4.8077,4.8886,4.9893,5.1353,5.229,5.3005,5.346,5.3846,5.4227,5.4685,5.4736,5.4736,5.4736,5.4736,5.4533,5.4023,5.3998,5.4017,5.4056,5.4541,5.4846,5.4948,5.5351,5.5786,5.6171,5.6737,5.7196,5.7546,5.7181,5.7306,5.7852,5.8313,5.8582,5.8788,5.9636,5.9988,5.9988,5.9988,5.9988,5.9988,6.0041,6.0067,6.0145,6.0699,6.0938,6.1249,6.2845,6.3101,6.2969,6.3992,6.4655,6.506,6.506,6.5717,6.6518,6.6518,6.6518,6.6518,6.6518,6.6543,6.6218,6.4731,6.4756,6.5287,6.5792,6.6717,6.7588,6.8131,6.8989,6.9622,6.9744,7.0592,7.1346,7.1534,7.2298,7.3043,7.3617,7.4046,7.4304,7.4301,7.5713,7.6877,7.7493,7.8933,8.0051,8.0643,8.1639,8.2215,8.2262,8.2215,8.2447,8.2978,8.2978,8.3455,8.4482,8.4482,8.4685,8.5112,8.5112,8.5112,2.6908,2.9085,3.1766,3.2658,3.5315,3.8417,4.1092,4.2515,4.3815,4.5825,4.664,4.7521,4.9214,4.9899,5.0841,5.2663,5.3481,5.4028,5.4443,5.4575,5.4507,5.4202,5.4176,5.4176,5.4176,5.4176,5.4125,5.3998,5.3998,5.4154,5.4531,5.4679,5.5122,5.5947,5.6073,5.5848,5.5296,5.6545,5.6636,5.5613,5.6662,5.7212,5.7371,5.7735,5.8547,5.9699,5.9906,5.9988,5.9988,5.9988,5.9988,6.0041,6.0464,6.0647,6.0678,6.1224,6.1974,6.287,6.3667,6.4405,6.5113,6.5767,6.6068,6.6168,6.6168,6.6318,6.6518,6.6518,6.6518,6.6518,6.6518,6.6817,6.7043,6.667,6.6717,6.6942,6.7464,6.8105,6.8718,6.9184,6.9428,6.9889,7.0713,7.1395,7.2394,7.4086,7.4187,7.4086,7.4198,7.425,7.427,7.4237,7.5284,7.655,7.7932,7.9119,8.0212,8.1157,8.1832,8.2378,8.2747,8.2401,8.2609,8.351,8.3533,8.4011,8.4955,8.4955,8.5,8.5112,8.5112,8.5112,2.6928,2.9368,3.2509,3.5234,3.7355,3.9372,4.1734,4.3269,4.4669,4.64,4.7652,4.8738,4.9708,5.0592,5.1726,5.3488,5.4008,5.4342,5.4753,5.4812,5.4609,5.4049,5.4193,5.4258,5.4017,5.4193,5.4232,5.4017,5.4227,5.4478,5.474,5.5226,5.5787,5.6325,5.6573,5.6477,5.6016,5.6994,5.7116,5.634,5.737,5.7976,5.8203,5.8161,5.8807,5.9988,5.9988,5.9988,5.9988,5.9988,5.9988,6.0041,6.0595,6.0964,6.1301,6.2412,6.3335,6.4227,6.5267,6.582,6.6168,6.6717,6.7043,6.7289,6.7289,6.7636,6.8031,6.8031,6.8031,6.8031,6.8031,6.8228,6.8449,6.8449,6.8056,6.7834,6.8351,6.889,6.95,7.0228,7.0759,7.1435,7.2532,7.3601,7.4827,7.6476,7.6243,7.5982,7.6246,7.6021,7.5921,7.6131,7.6883,7.7911,7.9288,8.0098,8.091,8.1719,8.2053,8.2424,8.2886,8.2678,8.3024,8.4034,8.4057,8.4392,8.5112,8.5112,8.5112,8.5112,8.5112,8.5224,2.6903,2.9661,3.3293,3.7917,3.9439,4.0372,4.2586,4.3981,4.5176,4.6517,4.8392,4.986,5.0166,5.1196,5.2493,5.4047,5.4303,5.4421,5.4753,5.4812,5.4629,5.4172,5.4394,5.4453,5.4154,5.4394,5.4465,5.4145,5.4457,5.4781,5.5039,5.5825,5.633,5.6511,5.6903,5.6975,5.6756,5.7383,5.7567,5.7332,5.8109,5.8726,5.916,5.8871,5.9202,5.9988,5.9988,5.9988,6.0015,6.0093,6.0145,6.0224,6.0959,6.156,6.2206,6.382,6.4762,6.5518,6.6943,6.7215,6.7016,6.7537,6.8031,6.8375,6.8375,6.9012,6.9695,6.9695,6.9695,6.9695,6.9695,6.9695,6.9743,6.9913,6.9302,6.8788,6.9207,6.9791,7.0544,7.1555,7.2731,7.3864,7.4772,7.6094,7.7338,7.8366,7.8028,7.782,7.8233,7.7917,7.7807,7.8244,7.8753,7.9535,8.0575,8.1131,8.163,8.2169,8.2192,8.2447,8.3024,8.3047,8.3505,8.4505,8.446,8.464,8.5112,8.518,8.5224,8.5224,8.5314,8.5531,2.593,2.9264,3.3543,3.7852,3.9746,4.0907,4.2272,4.4128,4.5706,4.6259,4.7895,4.9685,5.1258,5.1998,5.2912,5.4477,5.4713,5.4733,5.4793,5.4812,5.4747,5.4628,5.4316,5.4213,5.457,5.4297,5.4261,5.466,5.4329,5.4691,5.6038,5.5777,5.6058,5.6975,5.7087,5.6492,5.5275,5.6598,5.6639,5.5401,5.715,5.825,5.8726,5.9057,5.9492,5.9988,5.9988,5.9988,6.0041,6.0516,6.0678,6.0834,6.2361,6.3284,6.3922,6.5062,6.6118,6.7067,6.7761,6.8253,6.8669,6.9231,6.9451,6.95,6.95,6.9597,6.9695,6.9695,6.9695,6.9695,6.9695,6.9695,6.9913,7.0884,7.0981,7.0884,7.0881,7.1681,7.2701,7.3778,7.5564,7.6972,7.7147,7.7708,7.8389,7.9001,7.8633,7.8277,7.829,7.8233,7.8213,7.8212,7.8751,7.9517,8.0531,8.1104,8.163,8.2169,8.2192,8.2609,8.3555,8.3601,8.4057,8.5,8.4618,8.464,8.5112,8.5509,8.5709,8.5731,8.6108,8.6329,2.7655,3.0351,3.334,3.6956,3.8881,4.0446,4.2383,4.4122,4.5717,4.7125,4.8725,5.0221,5.1271,5.2488,5.3662,5.4646,5.4812,5.4812,5.4812,5.4812,5.4668,5.4348,5.4355,5.4375,5.4316,5.4355,5.4399,5.4349,5.4685,5.5197,5.5859,5.6259,5.6669,5.7123,5.7148,5.6863,5.6252,5.6882,5.6862,5.6252,5.7708,5.8471,5.8648,6.008,6.0775,6.0907,6.0907,6.1245,6.1819,6.2051,6.2313,6.2699,6.3773,6.4709,6.5569,6.6645,6.7537,6.8276,6.8816,6.9134,6.9402,6.9622,6.9695,6.9695,6.9695,6.9695,6.9695,6.9695,6.9695,6.9695,6.9695,6.9913,7.0204,7.0689,7.1467,7.2147,7.2094,7.2513,7.3248,7.4598,7.6096,7.7236,7.7499,7.8253,7.8835,7.8763,7.8811,7.8827,7.8808,7.8779,7.8832,7.9121,7.9634,8.0255,8.0993,8.1541,8.196,8.2192,8.2447,8.2932,8.367,8.3966,8.4414,8.509,8.491,8.5023,8.5487,8.5709,8.5953,8.6197,8.6395,8.6637,2.9344,3.1189,3.2766,3.591,3.8035,3.9869,4.1922,4.3842,4.5735,4.7708,4.9486,5.0866,5.146,5.2811,5.4014,5.4513,5.4609,5.4609,5.4609,5.4609,5.4496,5.4205,5.4394,5.4433,5.4193,5.4394,5.4426,5.4221,5.4919,5.5527,5.5779,5.6559,5.706,5.721,5.721,5.721,5.721,5.721,5.721,5.721,5.8264,5.8697,5.8673,6.0799,6.1837,6.2,6.2,6.2541,6.3416,6.3569,6.3951,6.4487,6.5242,6.607,6.7018,6.7957,6.8645,6.9158,6.9573,6.9695,6.9695,6.9695,6.9695,6.9695,6.9695,6.9695,6.9695,6.9695,6.9695,6.9719,6.9865,7.0229,7.0738,7.1102,7.2123,7.3098,7.3343,7.3643,7.4284,7.5574,7.6678,7.7514,7.785,7.8645,7.9076,7.8667,7.8956,7.9243,7.9363,7.9327,7.9555,8.0213,8.0599,8.1032,8.1579,8.1983,8.2262,8.2378,8.2724,8.3184,8.3852,8.4324,8.482,8.5269,8.5403,8.5553,8.5798,8.6042,8.6351,8.6681,8.6791,8.7097,2.9785,3.0926,3.1762,3.5043,3.7673,3.9675,4.0314,4.3158,4.6048,4.7356,4.9529,5.1454,5.2353,5.3025,5.356,5.399,5.4049,5.4049,5.4049,5.4049,5.4205,5.459,5.4297,5.4193,5.4609,5.4271,5.4221,5.4736,5.4793,5.5274,5.6308,5.6409,5.6685,5.7185,5.721,5.721,5.721,5.721,5.721,5.721,5.8171,5.8606,5.8668,6.0677,6.2159,6.3131,6.3131,6.3441,6.4005,6.4585,6.5141,6.5722,6.6769,6.7514,6.8105,6.8645,6.9207,6.967,6.9695,6.9695,6.9695,6.9695,6.9695,6.9695,6.9695,6.9695,6.9695,6.9695,6.9695,6.9816,7.0253,7.0811,7.1615,7.3081,7.3498,7.3842,7.4854,7.5857,7.6761,7.7347,7.8348,7.9071,7.9095,7.9145,7.9196,7.9172,7.9172,7.9363,7.9814,7.9859,8.0213,8.1205,8.1346,8.1579,8.2122,8.2192,8.2401,8.284,8.2909,8.3317,8.4324,8.482,8.5263,8.5754,8.6197,8.6219,8.5798,8.6674,8.714,8.7184,8.7626,8.808,2.8826,3.0255,3.1523,3.4389,3.7096,3.9483,4.1073,4.338,4.5838,4.8212,4.976,5.117,5.2802,5.3467,5.3848,5.3978,5.4278,5.4406,5.4049,5.4304,5.4439,5.4264,5.4095,5.4056,5.4213,5.4095,5.383,5.343,5.4274,5.4699,5.4477,5.5693,5.6509,5.6685,5.7035,5.721,5.721,5.721,5.7385,5.7734,5.9405,6.0179,6.0251,6.3332,6.4582,6.4354,6.539,6.5742,6.5617,6.584,6.6243,6.6792,6.7512,6.8153,6.8694,6.9231,6.9549,6.9695,6.9695,6.9695,6.9695,6.9695,6.9695,6.9695,6.9695,6.9695,6.9695,6.9695,7.0203,7.0762,7.0932,7.1883,7.3008,7.3887,7.4649,7.5243,7.5615,7.6006,7.6643,7.7861,7.8425,7.8811,7.9148,7.9196,7.9196,7.9196,7.9457,7.9719,7.9886,8.0452,8.1021,8.1372,8.17,8.2095,8.2609,8.2655,8.2863,8.3395,8.3711,8.4165,8.482,8.5286,8.5776,8.6241,8.7009,8.7184,8.6703,8.7329,8.7814,8.8115,8.8566,8.9013,2.8193,2.9751,3.1183,3.353,3.6228,3.8871,4.0905,4.2833,4.5045,4.7977,4.933,5.0617,5.2576,5.3531,5.4049,5.4227,5.4584,5.4685,5.4329,5.4736,5.4889,5.4329,5.4278,5.4278,5.4278,5.4237,5.3909,5.3125,5.4443,5.4959,5.4175,5.5744,5.6685,5.6685,5.701,5.721,5.721,5.756,5.7933,5.8281,6.0337,6.1416,6.1639,6.4791,6.5842,6.5239,6.6506,6.695,6.6788,6.6788,6.7188,6.7857,6.8227,6.8717,6.9207,6.9573,6.9695,6.9695,6.9695,6.9695,6.9695,6.9695,6.9695,6.9719,6.9911,6.9959,7.0032,7.0396,7.1004,7.1639,7.1981,7.3107,7.426,7.4795,7.546,7.6103,7.6466,7.6691,7.7115,7.8203,7.8546,7.8787,7.9148,7.9339,7.9435,7.9435,7.9838,8.0242,8.0384,8.0997,8.1466,8.1653,8.2006,8.2331,8.2655,8.2816,8.3207,8.3898,8.4369,8.4933,8.5559,8.602,8.6505,8.6966,8.7749,8.7956,8.7581,8.8106,8.8523,8.8851,8.9289,8.9732,0.0,0.0,0.0,3.2475,3.516,3.7816,3.948,4.1351,4.3574,4.652,4.8212,4.9745,5.1668,5.3109,5.4176,5.4671,5.4793,5.4793,5.4787,5.5224,5.5375,5.4843,5.4787,5.4812,5.4812,5.4773,5.4544,5.4043,5.5419,5.6065,5.5578,5.6589,5.7185,5.721,5.721,5.7235,5.726,5.8281,5.8825,5.8875,6.0889,6.2122,6.2716,6.4791,6.5742,6.577,6.6359,6.6872,6.7288,6.7288,6.7906,6.8865,6.8889,6.9231,6.967,6.9695,6.9695,6.9695,6.9695,6.9695,6.9695,6.9743,6.9743,6.9839,7.0369,7.0562,7.0756,7.1806,7.2149,7.2396,7.3427,7.4459,7.5349,7.586,7.6006,7.6346,7.7356,7.8011,7.8425,7.8425,7.8859,7.9196,7.922,7.96,7.9909,7.9933,8.0384,8.088,8.1349,8.1419,8.163,8.2146,8.2215,8.2238,8.2238,8.2701,8.3386,8.4392,8.4888,8.5582,8.6483,8.6988,8.7438,8.7885,8.8395,8.855,8.8324,8.9015,8.9331,8.9331,8.9765,9.0204,2.8706,0.0,0.0,0.0,0.0,0.0,3.8652,4.0158,4.2531,4.6924,4.8051,4.9131,5.1978,5.3336,5.398,5.3866,5.4376,5.466,5.4278,5.4685,5.4838,5.4278,5.4558,5.4812,5.4812,5.514,5.5021,5.4205,5.5189,5.5431,5.4639,5.5874,5.681,5.7185,5.721,5.7585,5.8355,5.8652,5.9392,6.0543,6.2177,6.3236,6.3824,6.591,6.6641,6.6316,6.6876,6.7196,6.7264,6.6942,6.716,6.7808,6.8619,6.9011,6.9183,6.9549,6.9695,6.9695,6.9695,6.9695,6.9816,7.0616,7.0591,7.0466,7.1366,7.1659,7.1708,7.2002,7.2961,7.407,7.5134,7.5629,7.5777,7.5498,7.631,7.7121,7.7025,7.8035,7.898,7.898,7.91,7.9315,7.9648,7.9814,8.0028,8.0408,8.0903,8.1255,8.1396,8.1746,8.2053,8.2192,8.2516,8.2863,8.3258,8.4029,8.4747,8.5375,8.5842,8.6527,8.746,8.7633,8.7861,8.819,8.9116,8.9352,8.8804,8.9761,8.9987,8.954,9.0761,9.1412,2.9501,3.0704,3.2024,3.3181,0.0,0.0,3.8707,3.9837,4.1652,4.5625,4.6665,4.7596,5.0045,5.1394,5.2048,5.1841,5.2267,5.2992,5.4172,5.4856,5.5014,5.4484,5.4729,5.5015,5.5196,5.5452,5.5376,5.4819,5.5673,5.6012,5.5471,5.6291,5.6885,5.7185,5.7634,5.8181,5.88,5.9662,6.069,6.183,6.3368,6.434,6.4921,6.6362,6.6949,6.684,6.6975,6.7238,6.7611,6.7344,6.7536,6.803,6.8668,6.9036,6.928,6.9573,6.9695,6.9695,6.9695,6.9695,6.984,7.0665,7.0883,7.1027,7.2078,7.2567,7.2862,7.3305,7.4269,7.5357,7.6201,7.64,7.6423,7.651,7.7247,7.7911,7.7817,7.8553,7.9196,7.9196,7.9196,7.9363,7.9814,8.01,8.0408,8.0903,8.1419,8.1723,8.1723,8.2029,8.2192,8.2192,8.2632,8.3116,8.3619,8.455,8.5464,8.6351,8.6834,8.751,8.8459,8.8502,8.8646,8.901,8.9659,9.0055,9.0205,9.0656,9.0873,9.0879,9.178,9.2185,3.0446,3.1398,3.2521,3.3557,3.5046,0.0,3.9012,3.9849,4.0915,4.3514,4.4705,4.5686,4.7035,4.8469,4.9365,4.9183,4.9256,5.0537,5.3958,5.4864,5.5115,5.4933,5.4921,5.516,5.5683,5.5671,5.5658,5.5699,5.6578,5.714,5.7206,5.7252,5.7302,5.7385,5.8348,5.8942,5.9146,6.0982,6.2216,6.2816,6.4253,6.5226,6.5822,6.6291,6.6831,6.7351,6.688,6.7257,6.8203,6.8196,6.8462,6.8914,6.8987,6.928,6.9695,6.9695,6.9695,6.9695,6.9695,6.9743,6.9865,7.0398,7.0957,7.159,7.2667,7.3331,7.3996,7.5087,7.5758,7.6277,7.6695,7.6843,7.7137,7.8087,7.8377,7.8546,7.9004,7.9196,7.9291,7.9291,7.9291,7.9435,7.9909,8.0431,8.0927,8.1419,8.1886,8.2192,8.2192,8.2262,8.2285,8.2285,8.2816,8.3317,8.3724,8.4725,8.5887,8.7206,8.7698,8.8416,8.9361,8.9382,8.9555,8.9957,8.9957,9.0631,9.1993,9.1545,9.1749,9.2507,9.2568,9.2568,3.1484,3.239,3.3532,3.3809,3.5295,0.0,3.7673,3.863,4.0194,4.316,4.4189,4.4928,4.6265,4.7888,4.8562,4.7143,4.7772,4.9318,5.1806,5.1611,5.1997,5.4172,5.4157,5.4301,5.5164,5.5606,5.5988,5.6379,5.6887,5.7193,5.721,5.7562,5.7985,5.8454,5.9062,6.0001,6.1273,6.1709,6.2384,6.3342,6.4085,6.4931,6.5808,6.5905,6.6685,6.789,6.7378,6.7743,6.8743,6.8746,6.8818,6.8938,6.9378,6.9622,6.9695,6.9695,6.9695,6.9695,6.9695,6.9962,7.0422,7.1394,7.1759,7.2151,7.365,7.4169,7.4491,7.5632,7.6302,7.6695,7.6794,7.7137,7.7503,7.7722,7.8111,7.845,7.8546,7.9193,7.9767,7.9767,7.9767,7.9933,8.0455,8.095,8.1443,8.1983,8.2146,8.2192,8.2192,8.2539,8.277,8.277,8.3888,8.4708,8.4792,8.6042,8.7075,8.772,8.8201,8.8865,8.9824,8.9866,8.9838,8.9757,8.9757,9.0654,9.2467,9.1848,9.1708,9.2074,9.2407,9.2387,3.2814,3.3381,3.4258,3.4887,3.5926,0.0,0.0,3.8906,4.0109,4.2275,4.2704,4.305,4.4136,4.5078,4.5362,4.4493,4.4897,4.6008,4.8047,4.9386,5.1071,5.3387,5.2898,5.3029,5.4642,5.4402,5.4847,5.6469,5.6805,5.6987,5.719,5.7645,5.8064,5.8401,5.962,6.0705,6.154,6.2312,6.3103,6.389,6.4191,6.4565,6.5059,6.5571,6.6373,6.7351,6.761,6.831,6.9305,6.9305,6.9305,6.9329,6.9597,6.9695,6.9695,6.9695,6.9695,6.9743,6.9986,7.0035,7.0301,7.1879,7.2221,7.2296,7.3892,7.4585,7.5008,7.615,7.6622,7.6867,7.7137,7.7601,7.8014,7.8014,7.8425,7.8859,7.9097,7.9552,7.9981,8.0242,8.0502,8.0738,8.0997,8.1255,8.1583,8.2122,8.2401,8.2563,8.2563,8.2978,8.3391,8.3614,8.4527,8.5381,8.6086,8.7031,8.7936,8.8886,8.9162,8.9614,9.0285,9.0306,9.0261,9.016,9.0591,9.1192,9.1952,9.184,9.1941,9.2246,9.2246,9.2246,3.4305,3.4539,3.5086,3.6171,3.6773,3.747,0.0,0.0,0.0,4.115,4.116,4.1212,4.1897,4.2109,4.2105,4.1929,4.1972,4.263,4.4361,4.7026,4.9623,5.1869,5.1128,5.1218,5.3165,5.239,5.2911,5.5719,5.5937,5.616,5.6652,5.7568,5.8227,5.8581,6.0406,6.1536,6.177,6.291,6.3723,6.4151,6.4245,6.441,6.4621,6.5539,6.6295,6.6933,6.7865,6.8729,6.9549,6.967,6.9695,6.9695,6.9695,6.9695,6.9695,6.9695,6.9768,6.9889,7.0156,7.0204,7.0398,7.1998,7.2487,7.271,7.4006,7.485,7.5551,7.6422,7.6745,7.6916,7.7332,7.7941,7.8401,7.8401,7.8811,7.9339,7.9814,7.9981,8.0218,8.0715,8.1208,8.1536,8.1419,8.1489,8.1723,8.2262,8.2678,8.2978,8.3184,8.3642,8.4165,8.4725,8.5308,8.613,8.738,8.7921,8.8694,8.9929,9.0013,9.018,9.0576,9.068,9.0721,9.0721,9.1422,9.1667,9.1431,9.1565,9.1881,9.2326,9.2023,9.2084,3.5905,3.6097,3.6502,3.7108,3.7789,3.8385,3.8615,0.0,3.994,4.0081,0.0,4.0615,4.0695,0.0,0.0,4.024,4.045,4.1188,4.2606,4.3136,4.48,4.8554,4.8464,4.8359,4.9097,4.9366,5.0584,5.3297,5.3535,5.3948,5.4763,5.7276,5.9332,6.0694,6.1842,6.2938,6.3957,6.3643,6.3532,6.3604,6.4056,6.4762,6.5634,6.6247,6.7029,6.7961,6.8556,6.8867,6.9036,6.95,6.9695,6.9695,6.9695,6.9695,6.9695,6.9695,6.9938,7.0277,6.9913,7.0639,7.1695,7.1457,7.263,7.4153,7.4349,7.5151,7.6029,7.6128,7.6474,7.6818,7.6892,7.7649,7.8401,7.8401,7.8811,7.9339,7.9814,8.0266,8.0738,8.1232,8.1746,8.1983,8.1489,8.1793,8.2285,8.277,8.2886,8.3203,8.4092,8.4663,8.5263,8.6168,8.7046,8.7835,8.8373,8.8865,8.9403,8.9971,9.0013,9.018,9.0576,9.099,9.1226,9.1226,9.1329,9.1504,9.185,9.1114,9.099,9.1442,9.1769,9.1952,3.7189,3.7747,3.8456,3.84,3.8831,3.9197,3.8991,3.9262,3.9539,3.9492,0.0,0.0,0.0,0.0,0.0,0.0,3.9257,3.9508,3.9827,4.0124,4.1775,4.5778,4.533,4.5081,4.6083,4.7293,4.8884,5.1003,5.0987,5.1831,5.404,5.6384,5.8434,6.0171,6.1756,6.2851,6.3375,6.3457,6.3675,6.3961,6.3889,6.4362,6.5377,6.6223,6.6983,6.7701,6.8849,6.9378,6.9378,6.9622,6.9695,6.9695,6.9695,6.9695,6.9743,7.001,7.0229,7.047,7.088,7.1264,7.16,7.1993,7.3368,7.4875,7.4875,7.5202,7.5727,7.6324,7.6646,7.6867,7.7186,7.7844,7.8401,7.8401,7.8811,7.9411,8.0194,8.0526,8.0927,8.17,8.2258,8.2539,8.2304,8.2443,8.2793,8.3276,8.3824,8.4347,8.4753,8.5687,8.6593,8.7242,8.7921,8.8609,8.9361,8.9593,8.9908,9.0327,9.0347,9.0431,9.0597,9.1031,9.1185,9.0887,9.1185,9.1237,9.1155,9.0783,9.0845,9.1278,9.1463,9.1687,3.8623,3.9383,4.0095,3.9558,3.9688,3.9845,3.9467,3.9326,3.9362,3.9679,3.9689,0.0,0.0,0.0,3.8866,3.8635,0.0,3.829,3.7991,3.8144,3.9508,4.2763,4.2336,4.2456,4.4168,4.477,4.6041,4.8536,4.8227,4.924,5.2234,5.5004,5.7331,5.9209,6.1463,6.28,6.3141,6.3387,6.3699,6.4103,6.3984,6.4292,6.5048,6.6416,6.7105,6.7392,6.8996,6.9622,6.95,6.9646,6.9695,6.9719,6.9841,6.9889,6.9938,7.0277,7.0591,7.0928,7.1575,7.1721,7.1824,7.3021,7.4206,7.5202,7.5202,7.5327,7.5651,7.652,7.6794,7.6916,7.7479,7.8014,7.845,7.8544,7.9001,7.9648,8.0667,8.088,8.1185,8.2215,8.2678,8.3047,8.3409,8.3386,8.3505,8.4011,8.4775,8.5375,8.562,8.6681,8.764,8.8244,8.8694,8.9289,9.0097,9.016,9.0285,9.0576,9.0776,9.0776,9.0597,9.1031,9.1072,9.0618,9.1052,9.1052,9.0597,9.0721,9.0949,9.1308,9.1308,9.1585,4.0395,4.0928,4.1161,4.0349,4.0272,4.0291,3.9963,3.9546,3.957,4.0867,4.0788,4.0595,4.1055,4.0449,3.9571,0.0,3.8224,0.0,0.0,3.754,3.7865,3.9295,3.9776,4.1007,4.3676,4.1274,4.1339,4.562,4.519,4.5879,4.8452,5.3067,5.6503,5.8387,6.1201,6.3208,6.4244,6.3738,6.3508,6.3556,6.4505,6.4977,6.5071,6.713,6.7774,6.7368,6.8996,6.9402,6.8987,6.95,6.9695,6.9743,7.0204,7.0374,7.0374,7.0398,7.1072,7.1886,7.1383,7.1897,7.2972,7.447,7.5046,7.5202,7.5202,7.5603,7.6178,7.6671,7.6794,7.6916,7.7479,7.8014,7.8496,7.8951,7.9478,8.0147,8.1162,8.1396,8.1676,8.2674,8.2909,8.334,8.4798,8.4663,8.4527,8.4978,8.5464,8.613,8.7031,8.7546,8.8244,8.9141,8.9677,9.0139,9.0555,9.0576,9.0576,9.0597,9.1216,9.1276,9.0627,9.1031,9.1072,9.0618,9.1052,9.1052,9.0597,9.1052,9.1288,9.1308,9.1308,9.1769,4.2145,4.3029,4.359,4.2564,4.2593,4.2704,4.2071,4.1588,4.1422,4.1942,4.2118,4.1967,4.1308,4.0488,0.0,0.0,0.0,3.7213,0.0,3.592,3.5945,3.6761,3.7665,3.8595,3.9528,3.9663,4.0449,4.2223,4.2901,4.4357,4.6994,5.1,5.4528,5.7393,6.027,6.2421,6.3762,6.3945,6.4188,6.4505,6.4522,6.5233,6.6533,6.694,6.7582,6.8421,6.9309,6.9597,6.9451,6.9622,6.9695,6.9743,7.0204,7.0615,7.0976,7.1336,7.1918,7.2601,7.3118,7.3712,7.4358,7.495,7.5426,7.5803,7.5803,7.615,7.6597,7.6769,7.7063,7.7454,7.799,7.828,7.8546,7.9025,7.9552,8.0194,8.1185,8.1676,8.2238,8.3207,8.3938,8.4527,8.5023,8.542,8.5741,8.5985,8.6075,8.6341,8.6939,8.7688,8.8417,8.9026,8.9871,9.0451,9.0597,9.0597,9.0597,9.0597,9.0806,9.0836,9.0597,9.0742,9.0763,9.0597,9.0763,9.0763,9.0597,9.1052,9.121,9.1072,9.182,9.2306,4.3324,4.4352,4.5012,4.4036,4.4161,4.4295,4.3394,4.2942,4.2792,4.305,4.3261,4.3208,4.2602,4.1423,0.0,0.0,0.0,0.0,0.0,3.5194,3.5148,3.5482,3.636,3.7074,3.7364,3.8099,3.9051,4.0276,4.0989,4.2508,4.516,4.9429,5.313,5.593,5.9619,6.2193,6.3485,6.4045,6.4449,6.4738,6.5016,6.5705,6.6772,6.7009,6.7677,6.8637,6.9188,6.9524,6.9695,6.9695,6.9792,6.9986,7.0494,7.1,7.1527,7.1886,7.2472,7.3213,7.4081,7.4679,7.5128,7.5428,7.5778,7.6104,7.6104,7.6425,7.6843,7.7039,7.7479,7.8037,7.8737,7.8929,7.9097,7.9814,8.036,8.095,8.177,8.2327,8.3024,8.4011,8.4685,8.5185,8.5499,8.5964,8.632,8.6418,8.6435,8.6603,8.7105,8.7959,8.8747,8.9297,9.0079,9.0597,9.0597,9.0827,9.0836,9.0627,9.0806,9.0836,9.0597,9.0597,9.0597,9.0597,9.0763,9.0845,9.0845,9.1463,9.1648,9.1536,9.2394,9.2808]}]]